[[{"header":{"parameterUnit":"m.s-1","parameterCategory":1,"la1":31.0,"la2":29.5877,"lo1":-88.7671,"lo2":-86.6584,"dy":0.0162,"dx":0.0185,"nx":115,"ny":88,"refTime":"2023-08-27T12:00:00:Z","depth":0,"parameterNumber":2,"parameterNumberName":"U-component_of_WINDS"},"data":[0.0,0.0,0.0,0.0,0.0,0.0,0.0,0.0,0.0,0.0,0.0,0.0,0.0,0.0,0.0,0.0,0.0,0.0,0.0,0.0,0.0,0.0,0.0,0.0,0.0,0.0,0.0,0.0,0.0,0.0,0.0,0.0,0.0,0.0,0.0,0.0,0.0,0.0,0.0,0.0,0.0,0.0,0.0,0.0,0.0,0.0,0.0,0.0,0.0,0.0,0.0,0.0,0.0,0.0,0.0,0.0,0.0,0.0,0.0,0.0,0.0,0.0,0.0,0.0,0.0,0.0,0.0,0.0,0.0,0.0,0.0,0.0,0.0,0.0,0.0,0.0,0.0,0.0,0.0,0.0,0.0,0.0,0.0,0.0,0.0,0.0,0.0,0.0,0.0,0.0,0.0,0.0,0.0,0.0,0.0,0.0,0.0,0.0,0.0,0.0,0.0,0.0,0.0,0.0,0.0,0.0,0.0,0.0,0.0,0.0,0.0,0.0,0.0,0.0,0.0,0.0,0.0,0.0,0.0,0.0,0.0,0.0,0.0,0.0,0.0,0.0,0.0,0.0,0.0,0.0,0.0,0.0,0.0,0.0,0.0,0.0,0.0,0.0,0.0,0.0,0.0,0.0,0.0,0.0,0.0,0.0,0.0,0.0,0.0,0.0,0.0,0.0,0.0,0.0,0.0,0.0,0.0,0.0,0.0,0.0,0.0,0.0,0.0,0.0,0.0,0.0,0.0,0.0,0.0,0.0,0.0,0.0,0.0,0.0,0.0,0.0,0.0,0.0,0.0,0.0,0.0,0.0,0.0,0.0,0.0,0.0,0.0,0.0,0.0,0.0,0.0,0.0,0.0,0.0,0.0,0.0,0.0,0.0,0.0,0.0,0.0,0.0,0.0,0.0,0.0,0.0,0.0,0.0,0.0,0.0,0.0,0.0,0.0,0.0,0.0,0.0,0.0,0.0,0.0,0.0,0.0,0.0,0.0,0.0,0.0,0.0,0.0,0.0,0.0,0.0,0.0,0.0,0.0,0.0,0.0,0.0,0.0,0.0,0.0,0.0,0.0,0.0,0.0,0.0,0.0,0.0,0.0,0.0,0.0,0.0,0.0,0.0,0.0,0.0,0.0,0.0,0.0,0.0,0.0,0.0,0.0,0.0,0.0,0.0,0.0,0.0,0.0,0.0,0.0,0.0,0.0,0.0,0.0,0.0,0.0,0.0,0.0,0.0,0.0,0.0,0.0,0.0,0.0,0.0,0.0,0.0,0.0,0.0,0.0,0.0,0.0,0.0,0.0,0.0,0.0,0.0,0.0,0.0,0.0,0.0,0.0,0.0,0.0,0.0,0.0,0.0,0.0,0.0,0.0,0.0,0.0,0.0,0.0,0.0,0.0,0.0,0.0,0.0,0.0,0.0,0.0,0.0,0.0,0.0,0.0,0.0,0.0,0.0,0.0,0.0,0.0,0.0,0.0,0.0,0.0,0.0,0.0,0.0,0.0,0.0,0.0,0.0,0.0,0.0,0.0,0.0,0.0,0.0,0.0,0.0,0.0,0.0,0.0,0.0,0.0,0.0,0.0,0.0,0.0,0.0,0.0,0.0,0.0,0.0,0.0,0.0,0.0,0.0,0.0,0.0,0.0,0.0,0.0,0.0,0.0,0.0,0.0,0.0,0.0,0.0,0.0,0.0,0.0,0.0,0.0,0.0,0.0,0.0,0.0,0.0,0.0,0.0,0.0,0.0,0.0,0.0,0.0,0.0,0.0,0.0,0.0,0.0,0.0,0.0,0.0,0.0,0.0,0.0,0.0,0.0,0.0,0.0,0.0,0.0,0.0,0.0,0.0,0.0,0.0,0.0,0.0,0.0,0.0,0.0,0.0,0.0,0.0,0.0,0.0,0.0,0.0,0.0,0.0,0.0,0.0,0.0,0.0,0.0,0.0,0.0,0.0,0.0,0.0,0.0,0.0,0.0,0.0,0.0,0.0,0.0,0.0,0.0,0.0,0.0,0.0,0.0,0.0,0.0,0.0,0.0,0.0,0.0,0.0,0.0,0.0,0.0,0.0,0.0,0.0,0.0,0.0,0.0,0.0,0.0,0.0,0.0,0.0,0.0,0.0,0.0,0.0,0.0,0.0,0.0,0.0,0.0,0.0,0.0,0.0,0.0,0.0,0.0,0.0,0.0,0.0,0.0,0.0,0.0,0.0,0.0,0.0,0.0,0.0,0.0,0.0,0.0,0.0,0.0,0.0,0.0,0.0,0.0,0.0,0.0,0.0,0.0,0.0,0.0,0.0,0.0,0.0,0.0,0.0,0.0,0.0,0.0,0.0,0.0,0.0,0.0,0.0,0.0,0.0,0.0,0.0,0.0,0.0,0.0,0.0,0.0,0.0,0.0,0.0,0.0,0.0,0.0,0.0,0.0,0.0,0.0,0.0,0.0,0.0,0.0,0.0,0.0,0.0,0.0,0.0,0.0,0.0,0.0,0.0,0.0,0.0,0.0,0.0,0.0,0.0,0.0,0.0,0.0,0.0,0.0,0.0,0.0,0.0,0.0,0.0,0.0,0.0,0.0,0.0,0.0,0.0,0.0,0.0,0.0,0.0,0.0,0.0,0.0,0.0,0.0,0.0,0.0,0.0,0.0,0.0,0.0,0.0,0.0,0.0,0.0,0.0,0.0,0.0,0.0,0.0,0.0,0.0,0.0,0.0,0.0,0.0,0.0,0.0,0.0,0.0,0.0,0.0,0.0,0.0,0.0,0.0,0.0,0.0,0.0,0.0,0.0,0.0,0.0,0.0,0.0,0.0,0.0,0.0,0.0,0.0,0.0,0.0,0.0,0.0,0.0,0.0,0.0,0.0,0.0,0.0,0.0,0.0,0.0,0.0,0.0,0.0,0.0,0.0,0.0,0.0,0.0,0.0,0.0,0.0,0.0,0.0,0.0,0.0,0.0,0.0,0.0,0.0,0.0,0.0,0.0,0.0,0.0,0.0,0.0,0.0,0.0,0.0,0.0,0.0,0.0,0.0,0.0,0.0,0.0,0.0,0.0,0.0,0.0,0.0,0.0,0.0,0.0,0.0,0.0,0.0,0.0,0.0,0.0,0.0,0.0,0.0,0.0,0.0,0.0,0.0,0.0,0.0,0.0,0.0,0.0,0.0,0.0,0.0,0.0,0.0,0.0,0.0,0.0,0.0,0.0,0.0,0.0,0.0,0.0,0.0,0.0,0.0,0.0,0.0,0.0,0.0,0.0,0.0,0.0,0.0,0.0,0.0,0.0,0.0,0.0,0.0,0.0,0.0,0.0,0.0,0.0,0.0,0.0,0.0,0.0,0.0,0.0,0.0,0.0,0.0,0.0,0.0,0.0,0.0,0.0,0.0,0.0,0.0,0.0,0.0,0.0,0.0,0.0,0.0,0.0,0.0,0.0,0.0,0.0,0.0,0.0,0.0,0.0,0.0,0.0,0.0,0.0,0.0,0.0,0.0,0.0,0.0,0.0,0.0,0.0,0.0,0.0,0.0,0.0,0.0,0.0,0.0,0.0,0.0,0.0,0.0,0.0,0.0,0.0,0.0,0.0,0.0,0.0,0.0,0.0,0.0,0.0,0.0,0.0,0.0,0.0,0.0,0.0,0.0,0.0,0.0,0.0,0.0,0.0,0.0,0.0,0.0,0.0,0.0,0.0,0.0,0.0,0.0,0.0,0.0,0.0,0.0,0.0,0.0,0.0,0.0,0.0,0.0,0.0,0.0,0.0,0.0,0.0,0.0,0.0,0.0,0.0,0.0,0.0,0.0,0.0,0.0,0.0,0.0,0.0,0.0,0.0,0.0,0.0,0.0,0.0,0.0,0.0,0.0,0.0,0.0,0.0,0.0,0.0,0.0,0.0,0.0,0.0,0.0,0.0,0.0,0.0,0.0,0.0,0.0,0.0,0.0,0.0,0.0,0.0,0.0,0.0,0.0,0.0,0.0,0.0,0.0,0.0,0.0,0.0,0.0,0.0,0.0,0.0,0.0,0.0,0.0,0.0,0.0,0.0,0.0,0.0,0.0,0.0,0.0,0.0,0.0,0.0,0.0,0.0,0.0,0.0,0.0,0.0,0.0,0.0,0.0,0.0,0.0,0.0,0.0,0.0,0.0,0.0,0.0,0.0,0.0,0.0,0.0,0.0,0.0,0.0,0.0,0.0,0.0,0.0,0.0,0.0,0.0,0.0,0.0,0.0,0.0,0.0,0.0,0.0,0.0,0.0,0.0,0.0,0.0,0.0,1.625,0.0,0.0,0.0,0.0,0.0,0.0,0.0,0.0,0.0,0.0,0.0,0.0,0.0,0.0,0.0,0.0,0.0,0.0,0.0,0.0,0.0,0.0,0.0,0.0,0.0,0.0,0.0,0.0,0.0,0.0,0.0,0.0,0.0,0.0,0.0,0.0,0.0,0.0,0.0,0.0,0.0,0.0,0.0,0.0,0.0,0.0,0.0,0.0,0.0,0.0,0.0,0.0,0.0,0.0,0.0,0.0,0.0,0.0,0.0,0.0,0.0,0.0,0.0,0.0,0.0,0.0,0.0,0.0,0.0,0.0,0.0,0.0,0.0,0.0,0.0,0.0,0.0,0.0,0.0,0.0,0.0,0.0,0.0,0.0,0.0,0.0,0.0,0.0,0.0,0.0,0.0,0.0,0.0,0.0,0.0,0.0,0.0,0.0,0.0,0.0,0.0,0.0,0.0,0.0,0.0,0.0,0.0,0.0,0.0,0.0,1.7324,1.6302,1.681,1.6937,1.6503,0.0,0.0,0.0,0.0,0.0,0.0,0.0,0.0,0.0,0.0,0.0,0.0,0.0,0.0,0.0,0.0,0.0,0.0,0.0,0.0,0.0,0.0,0.0,0.0,0.0,0.0,0.0,0.0,0.0,0.0,0.0,0.0,0.0,0.0,0.0,0.0,0.0,0.0,0.0,0.0,0.0,0.0,0.0,0.0,0.0,0.0,0.0,0.0,0.0,0.0,0.0,0.0,0.0,0.0,0.0,0.0,0.0,0.0,0.0,0.0,0.0,0.0,0.0,0.0,0.0,0.0,0.0,0.0,0.0,0.0,0.0,0.0,0.0,0.0,0.0,0.0,0.0,0.0,0.0,0.0,0.0,0.0,0.0,0.0,0.0,0.0,0.0,0.0,0.0,0.0,0.0,0.0,0.0,0.0,0.0,0.0,0.0,0.0,0.0,0.0,0.0,0.0,0.0,0.0,0.0,0.0,0.0,0.0,0.0,0.0,0.0,0.0,1.7715,1.7934,1.7248,0.0,0.0,0.0,0.0,0.0,0.0,0.0,0.0,0.0,0.0,0.0,0.0,0.0,0.0,0.0,0.0,0.0,0.0,0.0,0.0,0.0,0.0,0.0,0.0,0.0,0.0,0.0,0.0,0.0,0.0,0.0,0.0,0.0,0.0,0.0,0.0,0.0,0.0,0.0,0.0,0.0,0.0,0.0,0.0,0.0,0.0,0.0,0.0,0.0,0.0,0.0,0.0,0.0,0.0,0.0,0.0,0.0,0.0,0.0,0.0,0.0,0.0,0.0,0.0,0.0,0.0,0.0,0.0,0.0,0.0,0.0,0.0,0.0,0.0,0.0,0.0,0.0,0.0,0.0,0.0,0.0,0.0,0.0,0.0,0.0,0.0,0.0,0.0,0.0,0.0,0.0,0.0,0.0,0.0,0.0,0.0,0.0,0.0,0.0,0.0,0.0,0.0,0.0,0.0,0.0,0.0,0.0,0.0,0.0,0.0,1.8412,1.9909,2.0129,0.0,1.966,0.0,0.0,0.0,0.0,0.0,0.0,0.0,0.0,0.0,0.0,0.0,0.0,0.0,0.0,0.0,0.0,0.0,0.0,0.0,0.0,0.0,0.0,0.0,0.0,0.0,0.0,0.0,0.0,0.0,0.0,0.0,0.0,0.0,0.0,0.0,0.0,0.0,0.0,0.0,0.0,0.0,0.0,0.0,0.0,0.0,0.0,0.0,0.0,0.0,0.0,0.0,0.0,0.0,0.0,0.0,0.0,0.0,0.0,0.0,0.0,0.0,0.0,0.0,0.0,0.0,0.0,0.0,0.0,0.0,0.0,0.0,0.0,0.0,0.0,0.0,0.0,0.0,0.0,0.0,0.0,0.0,0.0,0.0,0.0,0.0,0.0,0.0,0.0,0.0,0.0,0.0,0.0,0.0,0.0,0.0,0.0,0.0,0.0,0.0,0.0,0.0,0.0,0.0,0.0,0.0,0.0,0.0,0.0,0.0,0.0,1.9533,2.0515,2.0381,1.984,0.0,0.0,0.0,0.0,0.0,0.0,0.0,0.0,0.0,0.0,0.0,0.0,0.0,0.0,0.0,0.0,0.0,0.0,0.0,0.0,0.0,0.0,0.0,0.0,0.0,0.0,0.0,0.0,0.0,0.0,0.0,0.0,0.0,0.0,0.0,0.0,0.0,0.0,0.0,0.0,0.0,0.0,0.0,0.0,0.0,0.0,0.0,0.0,0.0,0.0,0.0,0.0,0.0,0.0,0.0,0.0,0.0,0.0,0.0,0.0,0.0,0.0,0.0,0.0,0.0,0.0,0.0,0.0,0.0,0.0,0.0,0.0,0.0,0.0,0.0,0.0,0.0,0.0,0.0,0.0,0.0,0.0,0.0,0.0,0.0,0.0,0.0,0.0,0.0,0.0,0.0,0.0,0.0,0.0,0.0,0.0,0.0,0.0,0.0,0.0,0.0,0.0,0.0,0.0,0.0,0.0,0.0,0.0,0.0,0.0,1.9965,2.0496,2.1173,2.0325,1.9366,1.8442,0.0,0.0,0.0,0.0,0.0,0.0,0.0,0.0,0.0,0.0,0.0,0.0,0.0,0.0,0.0,0.0,0.0,0.0,0.0,0.0,0.0,0.0,0.0,0.0,0.0,0.0,0.0,0.0,0.0,0.0,0.0,0.0,0.0,0.0,0.0,0.0,0.0,0.0,0.0,0.0,0.0,0.0,0.0,0.0,0.0,0.0,0.0,0.0,0.0,0.0,0.0,0.0,0.0,0.0,0.0,0.0,0.0,0.0,0.0,0.0,0.0,0.0,0.0,0.0,0.0,0.0,0.0,0.0,0.0,0.0,0.0,0.0,0.0,0.0,0.0,0.0,0.0,0.0,0.0,0.0,0.0,0.0,0.0,0.0,0.0,0.0,0.0,0.0,0.0,0.0,0.0,0.0,0.0,0.0,0.0,0.0,0.0,0.0,0.0,0.0,0.0,0.0,0.0,0.0,0.0,0.0,0.0,0.0,2.2973,2.1234,2.107,2.2806,2.0266,1.9071,0.0,0.0,0.0,0.0,0.0,0.0,0.0,0.0,0.0,0.0,0.0,0.0,0.0,0.0,0.0,0.0,0.0,0.0,0.0,0.0,0.0,0.0,0.0,0.0,0.0,0.0,0.0,0.0,0.0,0.0,0.0,0.0,0.0,0.0,0.0,0.0,0.0,0.0,0.0,0.0,0.0,0.0,0.0,0.0,0.0,0.0,0.0,0.0,0.0,0.0,0.0,0.0,0.0,0.0,0.0,0.0,0.0,0.0,0.0,0.0,0.0,0.0,0.0,0.0,0.0,0.0,0.0,0.0,0.0,0.0,0.0,0.0,0.0,0.0,0.0,0.0,0.0,0.0,0.0,0.0,0.0,0.0,0.0,0.0,0.0,0.0,0.0,0.0,0.0,0.0,0.0,0.0,0.0,0.0,0.0,0.0,0.0,0.0,0.0,0.0,0.0,0.0,0.0,0.0,0.0,0.0,0.0,0.0,0.0,1.8677,1.9129,2.039,2.2352,2.0488,1.953,0.0,0.0,0.0,0.0,0.0,0.0,0.0,0.0,0.0,0.0,0.0,0.0,0.0,0.0,0.0,0.0,0.0,0.0,0.0,0.0,0.0,0.0,0.0,0.0,0.0,0.0,0.0,0.0,0.0,0.0,0.0,0.0,0.0,0.0,0.0,0.0,0.0,0.0,0.0,0.0,0.0,0.0,0.0,0.0,0.0,0.0,0.0,0.0,0.0,0.0,0.0,0.0,0.0,0.0,0.0,0.0,0.0,0.0,0.0,0.0,0.0,0.0,0.0,0.0,0.0,0.0,0.0,0.0,0.0,0.0,0.0,0.0,0.0,0.0,0.0,0.0,0.0,0.0,0.0,0.0,0.0,0.0,0.0,0.0,0.0,0.0,0.0,0.0,0.0,0.0,0.0,0.0,0.0,0.0,0.0,0.0,0.0,0.0,0.0,0.0,0.0,0.0,0.0,0.0,0.0,0.0,0.0,0.0,0.0,1.7658,0.0,2.0567,0.0,2.0298,1.9241,0.0,0.0,0.0,0.0,0.0,0.0,0.0,0.0,0.0,0.0,0.0,0.0,0.0,0.0,0.0,0.0,0.0,0.0,0.0,0.0,0.0,0.0,0.0,0.0,0.0,0.0,0.0,0.0,0.0,0.0,0.0,0.0,0.0,0.0,0.0,0.0,0.0,0.0,0.0,0.0,0.0,0.0,0.0,0.0,0.0,0.0,0.0,0.0,0.0,0.0,0.0,0.0,0.0,0.0,0.0,0.0,0.0,0.0,0.0,0.0,0.0,0.0,0.0,0.0,0.0,0.0,0.0,0.0,0.0,0.0,0.0,0.0,0.0,0.0,0.0,0.0,0.0,0.0,0.0,0.0,0.0,0.0,0.0,0.0,0.0,0.0,0.0,0.0,0.0,0.0,0.0,0.0,0.0,0.0,0.0,0.0,0.0,0.0,0.0,0.0,0.0,0.0,0.0,0.0,0.0,0.0,0.0,0.0,1.8135,2.0755,2.1625,2.1655,2.1044,1.965,1.8183,0.0,0.0,0.0,0.0,0.0,0.0,0.0,0.0,0.0,0.0,0.0,0.0,0.0,0.0,0.0,0.0,0.0,0.0,0.0,0.0,0.0,0.0,0.0,0.0,0.0,0.0,0.0,0.0,0.0,0.0,0.0,0.0,0.0,0.0,0.0,0.0,0.0,0.0,0.0,0.0,0.0,0.0,0.0,0.0,0.0,0.0,0.0,0.0,0.0,0.0,0.0,0.0,0.0,0.0,0.0,0.0,0.0,0.0,0.0,0.0,0.0,0.0,0.0,0.0,0.0,0.0,0.0,0.0,0.0,0.0,0.0,0.0,0.0,0.0,0.0,0.0,0.0,0.0,0.0,0.0,0.0,0.0,0.0,0.0,0.0,0.0,0.0,0.0,0.0,0.0,0.0,0.0,0.0,0.0,0.0,0.0,0.0,0.0,0.0,0.0,0.0,0.0,0.0,0.0,0.0,0.0,0.0,0.0,0.0,1.8649,1.9476,2.0627,2.1954,1.9488,1.8696,0.0,0.0,0.0,0.0,0.0,0.0,0.0,0.0,0.0,0.0,0.0,0.0,0.0,0.0,0.0,0.0,0.0,0.0,0.0,0.0,0.0,0.0,0.0,0.0,0.0,0.0,0.0,0.0,0.0,0.0,0.0,0.0,0.0,0.0,0.0,0.0,0.0,0.0,0.0,0.0,0.0,0.0,0.0,0.0,0.0,0.0,0.0,0.0,0.0,0.0,0.0,0.0,0.0,0.0,0.0,0.0,0.0,0.0,0.0,0.0,0.0,0.0,0.0,0.0,0.0,0.0,0.0,0.0,0.0,0.0,0.0,0.0,0.0,0.0,0.0,0.0,0.0,0.0,0.0,0.0,0.0,0.0,0.0,0.0,0.0,0.0,0.0,0.0,0.0,0.0,0.0,0.0,0.0,0.0,0.0,0.0,0.0,0.0,0.0,0.0,0.0,0.0,0.0,0.0,0.0,0.0,0.0,0.0,0.0,1.9827,2.0255,2.0969,2.2009,1.9932,1.9096,1.9669,0.0,0.0,0.0,0.0,0.0,0.0,0.0,0.0,0.0,0.0,0.0,0.0,0.0,0.0,0.0,0.0,0.0,0.0,0.0,0.0,0.0,0.0,0.0,0.0,0.0,0.0,0.0,0.0,0.0,0.0,0.0,0.0,0.0,0.0,0.0,0.0,0.0,0.0,0.0,0.0,0.0,0.0,0.0,0.0,0.0,0.0,0.0,0.0,0.0,0.0,0.0,0.0,0.0,0.0,0.0,0.0,0.0,0.0,0.0,0.0,0.0,0.0,0.0,0.0,0.0,0.0,0.0,0.0,0.0,0.0,0.0,0.0,0.0,0.0,0.0,0.0,0.0,0.0,0.0,0.0,0.0,0.0,0.0,0.0,0.0,0.0,0.0,0.0,0.0,0.0,0.0,0.0,0.0,0.0,0.0,0.0,0.0,0.0,0.0,0.0,0.0,0.0,0.0,0.0,0.0,0.0,0.0,0.0,2.3564,2.3521,2.2876,2.1566,2.1022,1.9566,0.0,0.0,0.0,0.0,0.0,0.0,0.0,0.0,0.0,0.0,0.0,0.0,0.0,0.0,0.0,0.0,0.0,0.0,0.0,0.0,0.0,0.0,0.0,0.0,0.0,0.0,0.0,0.0,0.0,0.0,0.0,0.0,0.0,0.0,0.0,0.0,0.0,0.0,0.0,0.0,0.0,0.0,0.0,0.0,0.0,0.0,0.0,0.0,0.0,0.0,0.0,0.0,0.0,0.0,0.0,0.0,0.0,0.0,0.0,0.0,0.0,0.0,0.0,0.0,0.0,0.0,0.0,0.0,0.0,0.0,0.0,0.0,0.0,0.0,0.0,0.0,0.0,0.0,0.0,0.0,0.0,0.0,0.0,0.0,0.0,0.0,0.0,0.0,0.0,0.0,0.0,0.0,0.0,0.0,0.0,0.0,0.0,0.0,0.0,0.0,0.0,0.0,0.0,0.0,0.0,0.0,0.0,0.0,0.0,2.4395,2.6218,2.6732,2.573,2.3035,2.1265,0.0,0.0,0.0,0.0,0.0,0.0,0.0,0.0,0.0,0.0,0.0,0.0,0.0,0.0,0.0,0.0,0.0,0.0,0.0,0.0,0.0,0.0,0.0,0.0,0.0,0.0,0.0,0.0,0.0,0.0,0.0,0.0,0.0,0.0,0.0,0.0,0.0,0.0,0.0,0.0,0.0,0.0,0.0,0.0,0.0,0.0,0.0,0.0,0.0,0.0,0.0,0.0,0.0,0.0,0.0,0.0,0.0,0.0,0.0,0.0,0.0,0.0,0.0,0.0,0.0,0.0,0.0,0.0,0.0,0.0,0.0,0.0,0.0,0.0,0.0,0.0,0.0,0.0,0.0,0.0,0.0,0.0,0.0,0.0,0.0,0.0,0.0,0.0,0.0,0.0,0.0,0.0,0.0,0.0,0.0,0.0,0.0,0.0,0.0,0.0,0.0,0.0,0.0,0.0,0.0,0.0,0.0,0.0,2.477,2.6692,2.9182,3.0164,2.9421,2.6167,2.3342,0.0,0.0,0.0,0.0,0.0,0.0,0.0,0.0,0.0,0.0,0.0,0.0,0.0,0.0,0.0,0.0,0.0,0.0,0.0,0.0,0.0,0.0,0.0,0.0,0.0,0.0,0.0,0.0,0.0,0.0,0.0,0.0,0.0,0.0,0.0,0.0,0.0,0.0,0.0,0.0,0.0,0.0,0.0,0.0,0.0,0.0,0.0,0.0,0.0,0.0,0.0,0.0,0.0,0.0,0.0,0.0,0.0,0.0,0.0,0.0,0.0,0.0,0.0,0.0,0.0,0.0,0.0,0.0,0.0,0.0,0.0,0.0,0.0,0.0,0.0,0.0,0.0,0.0,0.0,0.0,0.0,0.0,0.0,0.0,0.0,0.0,0.0,0.0,0.0,0.0,0.0,0.0,0.0,0.0,0.0,0.0,0.0,0.0,0.0,0.0,0.0,0.0,0.0,0.0,0.0,0.0,0.0,0.0,2.6748,2.9355,3.1875,3.2861,3.2191,2.9263,2.5394,0.0,0.0,0.0,0.0,0.0,0.0,0.0,0.0,0.0,0.0,0.0,0.0,0.0,0.0,0.0,0.0,0.0,0.0,0.0,0.0,0.0,0.0,0.0,0.0,0.0,0.0,0.0,0.0,0.0,0.0,0.0,0.0,0.0,0.0,0.0,0.0,0.0,0.0,0.0,0.0,0.0,0.0,0.0,0.0,0.0,0.0,0.0,0.0,0.0,0.0,0.0,0.0,0.0,0.0,0.0,0.0,0.0,0.0,0.0,0.0,0.0,0.0,0.0,0.0,0.0,0.0,0.0,0.0,0.0,0.0,0.0,0.0,0.0,0.0,0.0,0.0,0.0,0.0,0.0,0.0,0.0,0.0,0.0,0.0,0.0,0.0,0.0,0.0,0.0,0.0,0.0,0.0,0.0,0.0,0.0,0.0,0.0,0.0,0.0,0.0,0.0,0.0,0.0,0.0,0.0,0.0,0.0,0.0,2.7573,2.8796,3.2028,3.339,3.2683,2.8887,2.5491,0.0,0.0,0.0,0.0,0.0,0.0,0.0,0.0,0.0,0.0,0.0,0.0,0.0,0.0,0.0,0.0,0.0,0.0,0.0,0.0,0.0,0.0,0.0,0.0,0.0,0.0,0.0,0.0,0.0,0.0,0.0,0.0,0.0,0.0,0.0,0.0,0.0,0.0,0.0,0.0,0.0,0.0,0.0,0.0,0.0,0.0,0.0,0.0,1.1743,0.0,0.0,0.0,0.0,0.0,0.0,0.0,0.0,0.0,0.0,0.0,0.0,0.0,0.0,0.0,0.0,0.0,0.0,0.0,0.0,0.0,0.0,0.0,0.0,0.0,0.0,0.0,0.0,0.0,0.0,0.0,0.0,0.0,0.0,0.0,0.0,0.0,0.0,0.0,0.0,0.0,0.0,0.0,0.0,0.0,0.0,0.0,0.0,0.0,0.0,0.0,0.0,0.0,0.0,0.0,0.0,0.0,0.0,0.0,2.8148,2.9865,3.2788,3.3888,3.2866,2.9827,2.667,0.0,0.0,0.0,0.0,0.0,0.0,0.0,0.0,0.0,0.0,0.0,0.0,0.0,0.0,0.0,0.0,0.0,0.0,0.0,0.0,0.0,0.0,0.0,0.0,0.0,0.0,0.0,0.0,0.0,0.0,0.0,0.0,0.0,0.0,0.0,0.0,0.0,0.0,0.0,0.0,0.0,0.0,0.0,0.0,0.0,0.0,0.0,0.0,0.0,0.0,0.0,0.0,0.0,0.0,0.0,0.0,0.0,0.0,0.0,0.0,0.0,0.0,0.0,0.0,0.0,0.0,0.0,0.0,0.0,0.0,0.0,0.0,0.0,0.0,0.0,0.0,0.0,0.0,0.0,0.0,0.0,0.0,0.0,0.0,0.0,0.0,0.0,0.0,0.0,0.0,0.0,0.0,0.0,0.0,0.0,0.0,0.0,0.0,0.0,0.0,0.0,0.0,0.0,0.0,0.0,0.0,0.0,2.6046,2.8391,3.1082,3.336,3.3962,3.2728,3.0601,2.7672,2.394,0.0,0.0,0.0,0.0,0.0,0.0,0.0,0.0,0.0,0.0,0.0,0.0,0.0,0.0,0.0,0.0,0.0,0.0,0.0,0.0,0.0,0.0,0.0,0.0,0.0,0.0,0.0,0.0,0.0,0.0,0.0,0.0,0.0,0.0,0.0,0.0,0.0,0.0,1.1981,1.1457,0.0,0.0,0.0,0.0,0.0,0.0,0.0,0.0,1.2408,0.0,0.0,0.0,0.0,0.0,0.0,0.0,0.0,0.0,0.0,0.0,0.0,0.0,0.0,0.0,0.0,0.0,0.0,0.0,0.0,0.0,0.0,0.0,0.0,0.0,0.0,0.0,0.0,0.0,0.0,0.0,0.0,0.0,0.0,0.0,0.0,0.0,0.0,0.0,0.0,0.0,0.0,0.0,0.0,0.0,0.0,0.0,0.0,0.0,0.0,0.0,0.0,0.0,0.0,0.0,0.0,2.4295,2.5978,2.8039,3.0493,3.2349,3.2585,3.1104,2.8787,2.6327,2.377,0.0,0.0,0.0,0.0,0.0,0.0,0.0,0.0,0.0,0.0,0.0,0.0,0.0,0.0,0.0,0.0,0.0,0.0,0.0,0.0,0.0,0.0,0.0,0.0,0.0,0.0,0.0,0.0,0.0,0.0,0.0,0.0,0.0,0.0,0.0,0.0,0.0,0.0,0.0,1.2404,1.2709,0.0,0.0,0.0,0.0,0.0,0.0,0.0,0.0,1.2709,0.0,0.0,0.0,0.0,0.0,0.0,0.0,0.0,0.0,0.0,0.0,0.0,0.0,0.0,0.0,0.0,0.0,0.0,0.0,0.0,0.0,0.0,0.0,0.0,0.0,0.0,0.0,0.0,0.0,0.0,0.0,0.0,0.0,0.0,0.0,0.0,0.0,0.0,0.0,0.0,0.0,0.0,0.0,0.0,0.0,0.0,0.0,0.0,0.0,0.0,0.0,0.0,0.0,0.0,0.0,2.3782,2.5864,2.7895,2.9887,3.1164,3.1171,2.9832,2.7412,2.5156,0.0,0.0,0.0,0.0,0.0,0.0,0.0,0.0,0.0,0.0,0.0,0.0,0.0,0.0,0.0,0.0,0.0,0.0,0.0,0.0,0.0,0.0,0.0,0.0,0.0,0.0,0.0,0.0,0.0,0.0,0.0,0.0,0.0,0.0,0.0,0.0,0.0,0.0,0.0,0.0,1.2445,1.2741,1.2348,0.0,0.0,0.0,0.0,0.0,0.0,1.3108,1.3171,0.0,0.0,0.0,0.0,0.0,0.0,0.0,0.0,0.0,0.0,0.0,0.0,0.0,0.0,0.0,0.0,0.0,0.0,0.0,0.0,0.0,0.0,0.0,0.0,0.0,0.0,0.0,0.0,0.0,0.0,0.0,0.0,0.0,0.0,0.0,0.0,0.0,0.0,0.0,0.0,0.0,0.0,0.0,0.0,0.0,0.0,0.0,0.0,0.0,0.0,0.0,0.0,0.0,0.0,0.0,2.3365,2.5421,2.7376,2.9124,2.9748,2.948,2.8282,2.5802,2.3785,0.0,0.0,0.0,0.0,0.0,0.0,0.0,0.0,0.0,0.0,0.0,0.0,0.0,0.0,0.0,0.0,0.0,0.0,0.0,0.0,0.0,0.0,0.0,0.0,0.0,0.0,0.0,0.0,0.0,0.0,0.0,0.0,0.0,0.0,0.0,0.0,0.0,0.0,0.0,0.0,0.0,1.2763,1.2576,1.2976,0.0,0.0,0.0,0.0,1.341,1.376,0.0,0.0,0.0,0.0,0.0,0.0,0.0,0.0,0.0,0.0,0.0,0.0,0.0,0.0,0.0,0.0,0.0,0.0,0.0,0.0,0.0,0.0,0.0,0.0,0.0,0.0,0.0,0.0,0.0,0.0,0.0,0.0,0.0,0.0,0.0,0.0,0.0,0.0,0.0,0.0,0.0,0.0,0.0,0.0,0.0,0.0,0.0,0.0,0.0,0.0,0.0,0.0,0.0,0.0,0.0,0.0,2.3452,2.4361,2.5881,2.8014,2.7912,2.7167,2.5912,2.3323,2.1682,0.0,0.0,0.0,0.0,0.0,0.0,0.0,0.0,0.0,0.0,0.0,0.0,0.0,0.0,0.0,0.0,0.0,0.0,0.0,0.0,0.0,0.0,0.0,0.0,0.0,0.0,0.0,0.0,0.0,0.0,0.0,0.0,0.0,0.0,0.0,0.0,0.0,0.0,0.0,0.0,0.0,1.3861,1.3434,1.3939,1.4164,0.0,0.0,1.4423,1.4423,1.4998,0.0,0.0,0.0,0.0,0.0,0.0,0.0,0.0,0.0,0.0,0.0,0.0,0.0,0.0,0.0,0.0,0.0,0.0,0.0,0.0,0.0,0.0,0.0,0.0,0.0,0.0,0.0,0.0,0.0,0.0,0.0,0.0,0.0,0.0,0.0,0.0,0.0,0.0,0.0,0.0,0.0,0.0,0.0,0.0,0.0,0.0,0.0,0.0,0.0,0.0,0.0,0.0,0.0,0.0,0.0,2.0429,2.2423,2.3582,2.5103,2.6943,2.6399,2.5842,2.5272,2.1784,1.9985,0.0,0.0,0.0,0.0,0.0,0.0,0.0,0.0,0.0,0.0,0.0,0.0,0.0,0.0,0.0,0.0,0.0,0.0,0.0,0.0,0.0,0.0,0.0,0.0,0.0,0.0,0.0,0.0,0.0,0.0,0.0,0.0,0.0,0.0,0.0,0.0,0.0,0.0,0.0,0.0,0.0,0.0,1.3738,1.4216,0.0,0.0,0.0,1.5166,1.5453,0.0,0.0,0.0,0.0,0.0,0.0,0.0,0.0,0.0,0.0,0.0,0.0,0.0,0.0,0.0,0.0,0.0,0.0,0.0,0.0,0.0,0.0,0.0,0.0,0.0,0.0,0.0,0.0,0.0,0.0,0.0,0.0,0.0,0.0,0.0,0.0,0.0,0.0,0.0,0.0,0.0,0.0,0.0,0.0,0.0,0.0,0.0,0.0,0.0,0.0,0.0,0.0,0.0,0.0,0.0,0.0,0.0,2.151,2.2889,2.4459,2.6078,2.5373,2.489,2.469,2.0825,0.0,0.0,0.0,0.0,0.0,0.0,0.0,0.0,0.0,0.0,0.0,0.0,0.0,0.0,0.0,0.0,0.0,0.0,0.0,0.0,0.0,0.0,0.0,0.0,0.0,0.0,0.0,1.3938,0.0,0.0,0.0,0.0,0.0,0.0,0.0,0.0,0.0,0.0,0.0,0.0,0.0,0.0,1.4263,1.4063,1.4467,1.4829,0.0,0.0,1.5994,1.6233,1.6594,1.6567,0.0,0.0,0.0,0.0,0.0,0.0,0.0,0.0,0.0,0.0,0.0,0.0,0.0,0.0,0.0,0.0,0.0,0.0,0.0,0.0,0.0,0.0,0.0,0.0,0.0,0.0,0.0,0.0,0.0,0.0,0.0,0.0,0.0,0.0,0.0,0.0,0.0,0.0,0.0,0.0,0.0,0.0,0.0,0.0,0.0,0.0,0.0,0.0,0.0,0.0,0.0,0.0,0.0,0.0,0.0,2.1209,2.2313,2.3831,2.5736,2.4984,2.4307,2.3763,2.0467,1.8792,0.0,0.0,0.0,0.0,0.0,0.0,0.0,0.0,0.0,0.0,0.0,0.0,0.0,0.0,0.0,0.0,0.0,0.0,0.0,0.0,0.0,0.0,0.0,0.0,0.0,0.0,0.0,0.0,0.0,0.0,0.0,0.0,0.0,0.0,0.0,0.0,0.0,0.0,0.0,0.0,0.0,1.4123,1.4579,1.4894,1.5311,0.0,0.0,1.7066,1.6495,1.7642,1.7947,1.5999,0.0,0.0,0.0,0.0,0.0,0.0,0.0,0.0,0.0,0.0,0.0,0.0,0.0,0.0,0.0,0.0,0.0,0.0,0.0,0.0,0.0,0.0,0.0,0.0,0.0,0.0,0.0,0.0,0.0,0.0,0.0,0.0,0.0,0.0,0.0,0.0,0.0,0.0,0.0,0.0,0.0,0.0,0.0,0.0,0.0,0.0,0.0,0.0,0.0,0.0,0.0,0.0,0.0,1.9478,2.0754,2.1779,2.3278,2.5189,2.4792,2.4399,2.4203,2.062,1.8709,0.0,0.0,0.0,0.0,0.0,0.0,0.0,0.0,0.0,0.0,0.0,0.0,0.0,0.0,0.0,0.0,0.0,0.0,0.0,0.0,0.0,0.0,0.0,0.0,0.0,0.0,0.0,0.0,1.2454,1.1976,1.2194,0.0,0.0,0.0,0.0,0.0,0.0,0.0,0.0,0.0,0.0,1.4191,1.4803,1.4479,0.0,0.0,1.5814,1.6061,1.6451,1.7064,1.7015,1.5571,1.5553,0.0,0.0,0.0,0.0,0.0,0.0,0.0,0.0,0.0,0.0,0.0,0.0,0.0,0.0,0.0,0.0,0.0,0.0,0.0,0.0,0.0,0.0,0.0,0.0,0.0,0.0,0.0,0.0,0.0,0.0,0.0,0.0,0.0,0.0,0.0,0.0,0.0,0.0,0.0,0.0,0.0,0.0,0.0,0.0,0.0,0.0,0.0,0.0,0.0,0.0,0.0,0.0,1.9296,2.0597,2.158,2.3047,2.5034,2.4689,2.4421,2.4181,2.0773,1.8763,0.0,0.0,0.0,0.0,0.0,0.0,0.0,0.0,0.0,0.0,0.0,0.0,0.0,0.0,0.0,0.0,0.0,0.0,0.0,0.0,0.0,0.0,0.0,0.0,0.0,0.0,0.0,0.0,1.2371,1.1715,1.1655,0.0,0.0,0.0,0.0,0.0,0.0,0.0,0.0,0.0,0.0,1.4022,1.4446,1.3842,1.3779,1.503,1.5172,1.5408,1.621,1.6407,1.6047,1.4931,0.0,0.0,0.0,0.0,0.0,0.0,0.0,0.0,0.0,0.0,0.0,0.0,0.0,0.0,0.0,0.0,0.0,0.0,0.0,0.0,0.0,0.0,0.0,0.0,0.0,0.0,0.0,0.0,0.0,0.0,2.4995,0.0,0.0,0.0,0.0,0.0,0.0,0.0,0.0,0.0,0.0,0.0,0.0,0.0,0.0,0.0,0.0,0.0,0.0,0.0,0.0,0.0,0.0,1.9927,2.0894,2.1833,2.3238,2.5095,2.4725,2.4268,2.3684,2.0909,1.8945,1.8006,0.0,0.0,0.0,0.0,0.0,0.0,0.0,0.0,0.0,0.0,0.0,0.0,0.0,0.0,0.0,0.0,0.0,0.0,0.0,0.0,0.0,0.0,0.0,0.0,0.0,0.0,1.3916,1.3235,1.2549,0.0,0.0,0.0,0.0,0.0,0.0,0.0,0.0,0.0,0.0,1.3574,1.3515,1.337,1.298,1.3234,1.4735,1.5162,1.5426,1.5639,1.5745,1.5391,0.0,0.0,0.0,0.0,0.0,0.0,0.0,0.0,0.0,0.0,0.0,0.0,0.0,0.0,0.0,0.0,0.0,0.0,0.0,0.0,0.0,0.0,0.0,0.0,0.0,0.0,0.0,2.6438,2.5774,0.0,0.0,0.0,0.0,0.0,0.0,0.0,0.0,0.0,0.0,0.0,2.4541,2.432,0.0,0.0,0.0,0.0,0.0,0.0,0.0,0.0,0.0,0.0,0.0,0.0,1.9866,2.1378,2.1997,2.3241,2.5139,2.4747,2.4399,2.4203,2.1394,1.8951,1.7068,0.0,0.0,0.0,0.0,0.0,0.0,0.0,0.0,0.0,0.0,0.0,0.0,0.0,0.0,0.0,0.0,0.0,0.0,0.0,0.0,0.0,0.0,0.0,0.0,0.0,1.3351,0.0,0.0,0.0,0.0,0.0,0.0,0.0,0.0,0.0,0.0,0.0,1.3644,1.3403,1.291,1.2724,1.3045,1.2411,1.2218,0.0,0.0,0.0,0.0,0.0,0.0,0.0,0.0,0.0,0.0,0.0,0.0,0.0,0.0,1.1996,1.1301,1.1036,1.085,1.0562,0.0,0.0,0.0,0.0,0.0,0.0,0.0,0.0,0.0,0.0,0.0,0.0,0.0,0.0,0.0,0.0,2.6087,0.0,0.0,0.0,0.0,0.0,0.0,0.0,0.0,2.5337,2.5476,2.5629,2.5286,2.4821,0.0,2.4295,2.3201,0.0,0.0,0.0,0.0,0.0,0.0,0.0,0.0,2.0312,2.1557,2.2359,2.3504,2.4878,2.4639,2.4353,2.394,2.1302,1.8951,1.709,1.6566,1.6326,0.0,0.0,0.0,0.0,0.0,0.0,0.0,0.0,0.0,0.0,0.0,0.0,0.0,0.0,0.0,0.0,0.0,0.0,0.0,0.0,0.0,0.0,0.0,1.3431,0.0,0.0,0.0,0.0,0.0,0.0,0.0,0.0,0.0,1.3544,1.3624,1.3532,1.3043,1.2613,1.2362,1.2453,0.0,0.0,0.0,0.0,0.0,0.0,0.0,1.3202,1.2829,1.294,1.295,1.2592,1.2487,1.2278,1.1801,0.0,0.0,1.1038,1.0929,1.0901,1.0825,1.0962,1.1113,1.1113,1.1331,1.1513,0.0,0.0,0.0,0.0,0.0,0.0,0.0,0.0,2.623,2.675,0.0,2.6517,0.0,0.0,0.0,0.0,0.0,2.6635,0.0,0.0,2.6717,2.6738,2.6187,2.5686,2.5114,2.4705,2.6105,2.5481,2.3015,2.1122,0.0,0.0,0.0,0.0,0.0,0.0,2.1209,2.147,2.2952,2.3987,2.4552,2.4528,2.4025,2.2979,2.0713,1.9032,1.8094,1.762,1.7314,1.7328,1.7314,0.0,0.0,0.0,0.0,0.0,0.0,0.0,0.0,0.0,0.0,0.0,0.0,0.0,0.0,0.0,0.0,0.0,0.0,0.0,0.0,1.474,0.0,0.0,0.0,0.0,0.0,0.0,0.0,0.0,0.0,0.0,1.4375,1.448,1.4081,1.2561,0.0,0.0,0.0,0.0,1.1542,1.2443,1.2581,1.2888,1.3751,1.3501,1.3096,1.2886,0.0,0.0,1.1907,1.22,1.2362,1.2173,1.2286,1.223,1.1617,1.1513,1.1457,1.1302,1.14,1.1513,1.156,1.1843,1.2118,3.2064,0.0,0.0,0.0,0.0,2.9096,2.9202,2.9296,2.9222,2.8863,2.8321,2.7995,0.0,0.0,0.0,0.0,0.0,0.0,2.7298,2.7417,2.7884,2.7989,2.7807,2.7667,2.732,2.6777,2.6619,2.5622,2.3845,2.2688,2.1507,2.0431,0.0,0.0,0.0,0.0,2.1935,2.3308,2.3982,2.4683,2.5469,2.4836,2.3853,2.2524,2.1205,2.0161,1.9518,1.872,1.8145,1.7824,1.7781,0.0,0.0,0.0,0.0,0.0,0.0,0.0,0.0,0.0,0.0,0.0,0.0,0.0,0.0,0.0,0.0,0.0,0.0,0.0,1.4792,1.4229,1.3994,0.0,0.0,0.0,0.0,0.0,0.0,0.0,0.0,0.0,1.5269,1.4191,1.3017,0.0,0.0,1.1983,1.1744,1.1777,1.1933,1.2188,1.2358,0.0,0.0,1.2522,1.2387,1.2356,1.2461,1.2663,1.2899,1.2937,1.2852,1.2625,1.2662,1.2521,1.206,1.206,1.2117,1.2079,1.2107,1.2211,1.238,1.2398,1.239,3.4415,3.1378,3.1064,3.0931,3.0908,3.0756,3.081,3.0948,3.0609,3.0289,2.999,2.952,2.8728,2.7694,2.7675,0.0,0.0,0.0,2.8388,2.8584,2.8755,2.886,2.8826,2.8611,2.8334,2.7978,2.7336,2.6432,2.5331,2.4472,2.3428,2.2259,0.0,0.0,2.1199,2.1823,2.2782,2.3965,2.4498,2.5033,2.5599,2.4683,2.3591,2.2328,2.1577,2.0943,2.0429,1.9469,1.8851,1.8567,1.837,1.8065,0.0,0.0,0.0,0.0,0.0,0.0,0.0,0.0,0.0,0.0,0.0,1.687,1.7315,0.0,0.0,0.0,1.5526,1.5206,1.5045,1.4675,0.0,0.0,0.0,0.0,0.0,0.0,0.0,1.7064,1.6311,1.581,1.5971,1.4594,1.322,1.224,1.1923,1.1824,1.1909,0.0,1.2041,1.2211,1.2307,1.2428,1.2502,1.2512,1.2475,1.2484,1.271,1.2984,1.3231,1.3183,1.306,1.2946,1.2918,1.2833,1.255,1.2606,1.2569,1.2352,1.2362,1.2456,1.2616,1.2597,1.2654,3.6442,3.5776,3.5032,3.4116,3.3118,3.2806,3.2382,3.1828,3.1029,3.126,3.2074,3.1042,3.0541,3.0499,2.9603,0.0,2.9371,2.9877,2.9998,2.9706,2.963,2.9517,2.9351,2.8805,2.8546,2.8478,2.8102,2.7622,2.705,2.6231,2.5343,2.4349,2.3028,2.2072,2.1592,2.2889,2.3674,2.3834,2.479,2.5228,2.5204,2.4268,2.3332,2.2393,2.1822,2.1315,2.0829,1.9899,1.9366,1.9338,1.896,1.8545,1.8108,0.0,0.0,0.0,0.0,0.0,0.0,0.0,0.0,0.0,0.0,0.0,0.0,0.0,0.0,0.0,1.4685,0.0,1.5637,1.5685,0.0,0.0,0.0,1.592,1.6297,1.6667,1.7085,1.7745,0.0,0.0,1.6497,1.5382,1.4245,1.3282,1.2428,1.1971,1.2136,1.2013,1.2004,1.239,1.2456,1.2598,1.2937,1.2975,1.2918,1.2918,1.3051,1.3022,1.306,1.307,1.307,1.3079,1.307,1.3041,1.3041,1.2956,1.2871,1.2249,1.2334,1.2484,1.2551,1.2691,1.2928,3.8022,3.7066,3.6852,3.612,3.5041,3.4955,3.4366,3.3443,3.3159,3.2733,3.2173,3.1902,3.1774,3.1742,3.1055,3.125,3.2118,3.2282,3.1982,3.1423,3.1401,3.0647,2.9343,2.9181,2.8907,2.8483,2.8082,2.7649,2.7163,2.6615,2.5874,2.5016,2.4645,2.4032,2.3204,2.3903,2.4456,2.4856,2.5446,2.5577,2.5184,2.4596,2.3831,2.2848,2.1686,2.0812,2.0303,1.973,1.9228,1.891,1.9098,1.9026,1.8582,1.8648,0.0,0.0,0.0,0.0,0.0,0.0,0.0,0.0,0.0,1.5904,1.6466,0.0,1.5607,0.0,1.5243,1.5221,1.5653,1.5685,0.0,0.0,1.6456,1.6805,1.7699,1.7874,1.7962,1.8008,1.7342,1.6796,1.6572,1.5425,1.4575,1.4516,1.3612,1.2866,1.2688,1.2606,1.2569,1.2691,1.2823,1.2928,1.2861,1.2691,1.2579,1.256,1.256,1.2644,1.2842,1.2861,1.2861,1.2861,1.2861,1.2804,1.2607,1.256,1.2522,1.24,1.2663,1.2994,1.3126,1.3098,1.3098,3.9156,3.8293,3.8022,3.7507,3.6829,3.6042,3.5473,3.5113,3.455,3.3954,3.3349,3.3078,3.295,3.2942,3.2598,3.2833,3.3411,3.3146,3.2671,3.1983,3.1706,3.076,2.9316,2.9292,2.9027,2.8483,2.7878,2.7452,2.7185,2.6571,2.6003,2.5512,2.5512,2.5229,2.4707,2.477,2.5053,2.5512,2.5753,2.5666,2.5206,2.4747,2.4224,2.3656,2.2062,2.1183,2.1067,2.0211,1.9584,1.9338,1.9334,1.9057,1.8431,1.838,1.8211,0.0,0.0,0.0,0.0,0.0,0.0,0.0,0.0,0.0,0.0,0.0,1.5571,1.5736,1.5818,1.6015,1.6385,1.6544,1.6782,1.7159,1.7191,1.7519,1.8424,1.8541,1.8512,1.8536,1.7863,1.7273,1.6899,1.5642,1.4767,1.476,1.3919,1.3219,1.3037,1.2791,1.2625,1.2625,1.272,1.2758,1.2635,1.2494,1.2382,1.2382,1.2382,1.2456,1.2597,1.2616,1.2625,1.2616,1.2625,1.256,1.2437,1.2382,1.2382,1.2419,1.2598,1.2852,1.3069,1.3051,1.3041,3.9834,3.9237,3.8646,3.8369,3.8157,3.6503,3.6069,3.6415,3.5364,3.4876,3.4775,3.4314,3.4151,3.4151,3.4124,3.4124,3.4086,3.3409,3.2815,3.2193,3.1521,3.0613,2.9529,2.9508,2.9196,2.8579,2.7728,2.7251,2.7185,2.6322,2.5906,2.5906,2.5906,2.5906,2.5884,2.549,2.549,2.5884,2.5906,2.571,2.5293,2.479,2.4443,2.4224,2.2495,2.159,2.1763,2.0595,1.989,1.9792,1.942,1.8837,1.8056,1.8028,1.7702,0.0,1.7174,0.0,0.0,0.0,0.0,0.0,0.0,0.0,0.0,1.5788,1.5446,1.5876,1.6397,1.6868,1.7323,1.7626,1.7816,1.7848,1.7886,1.8151,1.8843,1.8931,1.8956,1.8993,1.84,1.7753,1.7016,1.5885,1.4986,1.4625,1.3972,1.3434,1.3244,1.2782,1.2428,1.2382,1.2382,1.2456,1.2437,1.2391,1.2382,1.2382,1.2382,1.2382,1.2391,1.2391,1.2391,1.2391,1.2428,1.2391,1.2382,1.2382,1.2382,1.2382,1.2466,1.2587,1.2785,1.2861,1.2965,3.9834,3.9237,3.8646,3.8103,3.7594,3.6774,3.6225,3.5852,3.5655,3.5256,3.4849,3.5201,3.5364,3.5364,3.5364,3.5364,3.5324,3.4672,3.4016,3.335,3.2674,3.174,3.0633,3.0612,3.0107,2.9135,2.8262,2.7617,2.7185,2.6322,2.5906,2.5906,2.5906,2.5906,2.5906,0.0,0.0,0.0,2.5906,2.5863,2.5732,2.4943,2.4093,2.3285,2.1817,0.0,1.9368,1.9024,1.8672,1.8287,1.849,0.0,0.0,0.0,0.0,0.0,0.0,0.0,0.0,0.0,0.0,0.0,1.6283,1.6137,1.5928,1.5714,1.5987,1.6894,1.6805,1.6984,1.7641,1.7753,1.7912,1.816,1.8192,1.8589,1.955,1.9654,1.9416,1.8628,1.8376,1.7751,1.6405,1.5859,1.5508,1.4948,1.4391,1.3856,1.3369,1.2799,1.2409,1.2382,1.2382,1.2382,1.2382,1.2382,1.2382,1.2382,1.2382,1.2382,1.2382,1.2382,1.2382,1.2382,1.2382,1.2382,1.2382,1.2382,1.2382,1.2382,1.2551,1.2748,1.2795,1.2928,1.3117,3.9834,0.0,3.8646,3.8212,0.0,3.6985,3.6442,3.6144,3.5825,3.5527,3.5283,3.5554,3.571,3.571,3.571,3.5507,3.5182,3.4496,3.3852,3.3172,3.2503,3.1755,3.0922,3.0922,3.0364,2.9347,2.867,2.8111,2.7585,2.6926,2.6584,2.6605,2.6344,2.6235,2.6235,2.6016,2.5906,2.5906,2.5906,2.5906,2.5884,2.5206,2.4616,2.405,0.0,0.0,0.0,0.0,0.0,0.0,0.0,0.0,0.0,0.0,0.0,1.7129,1.6652,1.6494,1.6619,1.6209,1.6095,1.6424,1.6614,1.6587,1.6222,1.6528,1.6915,1.726,1.7413,1.7652,1.8007,1.8192,1.8367,1.8519,1.8535,1.8907,1.9661,1.9519,1.904,1.849,1.8055,1.7305,1.6072,1.5618,1.5363,1.5041,1.4546,1.3981,1.3396,1.2799,1.2382,1.2382,1.2382,1.2382,1.2382,1.2382,1.2382,1.2382,1.2382,1.2382,1.2382,1.2382,1.2382,1.2382,1.2382,1.2382,1.2382,1.2382,1.2382,1.2418,1.2503,1.2644,1.2776,1.3041,1.3287,3.9843,3.9264,3.8646,3.8401,3.8293,3.7121,3.6524,3.6415,0.0,0.0,0.0,3.571,3.571,3.571,3.571,3.5325,3.4662,3.4021,3.3343,3.268,3.2001,3.1476,3.1045,3.1021,3.0563,2.9657,2.9097,2.8619,2.8116,2.7569,2.7326,2.7282,2.6911,2.6737,2.6671,2.6256,2.6059,2.6147,2.5994,2.5906,2.5884,2.5446,2.5182,2.5095,2.3438,2.2411,2.2102,2.0883,2.0029,1.9693,1.9143,1.862,1.8138,1.7348,1.6699,1.63,1.6102,1.6098,1.6381,1.6444,1.6603,1.6868,1.7254,1.7302,1.6932,1.7467,1.7705,1.7498,1.7969,1.8319,1.836,1.8653,1.8804,1.8804,1.8804,1.9098,1.9725,1.9137,1.8575,1.8334,1.7726,1.6882,1.6019,1.5523,1.5122,1.4987,1.4654,1.4116,1.3521,1.2871,1.2382,1.2382,1.2382,1.2382,1.2382,1.2382,1.2382,1.2382,1.2382,1.2382,1.2382,1.2382,1.2382,1.2382,1.2382,1.2382,1.2382,1.2382,1.2382,1.2382,1.2484,1.2606,1.2833,1.3183,1.3496,3.9727,3.9237,3.8667,3.8401,3.8315,3.7121,3.6286,3.5845,3.5744,3.571,3.571,3.571,3.571,3.571,3.571,3.5345,3.4688,3.4021,3.3343,0.0,3.2001,3.1647,3.1597,3.1597,3.1264,3.0654,2.9782,2.9114,2.8573,2.7744,2.7326,2.7326,2.7217,2.7195,2.7151,2.6737,2.6693,2.7086,2.6299,2.5906,2.5884,2.5446,2.5009,2.4596,2.3899,2.2817,2.1409,2.0818,2.002,1.892,1.8136,1.7543,1.7126,1.6956,1.6638,1.6297,1.6755,1.7101,1.7148,1.7403,1.7594,1.7657,1.7976,1.8023,1.7689,1.7737,1.7896,1.8112,1.8255,1.8408,1.8677,1.8773,1.8804,1.8804,1.8804,1.9098,1.9765,1.9097,1.8521,1.8362,1.77,1.6856,1.6072,1.5805,1.5538,1.5148,1.4907,1.4654,1.4062,1.3115,1.2463,1.2382,1.2382,1.2382,1.2382,1.2382,1.2382,1.2382,1.2382,1.2382,1.2382,1.2382,1.2382,1.2382,1.2382,1.2382,1.2382,1.2382,1.2382,1.2428,1.2645,1.2956,1.3022,1.3363,1.3619,3.9791,3.9292,3.902,3.8884,3.8781,3.7588,3.6557,3.5717,3.571,3.571,3.571,3.571,3.571,3.571,3.571,3.5141,3.4168,3.3831,3.315,3.2154,3.1849,3.1717,3.1695,3.1383,3.0998,3.0496,2.9849,2.924,2.8768,2.8295,2.8091,2.8091,2.785,2.7566,2.7282,2.7086,2.7086,2.7282,2.6387,2.6016,2.6256,2.5819,2.5359,2.4878,2.4021,2.3077,2.2053,2.12,2.0467,1.9802,1.9438,1.9005,1.8518,1.8244,1.7896,1.7439,1.7514,1.7562,1.7562,1.7727,1.788,1.8071,1.8208,1.8319,1.8351,1.8335,1.8414,1.855,1.8589,1.863,1.8788,1.8804,1.8804,1.8804,1.8804,1.9011,1.9407,1.8868,1.8277,1.8096,1.7393,1.6637,1.598,1.5885,1.5832,1.5497,1.5256,1.4896,1.4665,1.3927,1.3251,1.2925,1.2627,1.2409,1.2382,1.2382,1.2382,1.2382,1.2382,1.2382,1.2382,1.2382,1.2382,1.2382,1.2382,1.2382,1.2382,1.2382,1.2382,1.241,1.2673,1.2928,1.3098,1.34,1.3627,3.9924,3.9319,3.9319,3.9237,3.8993,3.7968,3.6883,3.5934,3.5744,3.571,3.571,3.571,3.571,3.571,3.571,3.4977,3.3805,3.3679,3.3,3.1805,3.1717,3.1717,3.1673,3.125,3.0892,3.051,3.0057,2.9577,2.9163,2.9001,2.8907,2.8794,2.8375,2.8002,2.7654,2.7523,2.7523,2.7566,2.6693,2.6387,2.6737,2.63,2.5884,2.5471,2.4503,2.3713,2.3175,2.2185,2.1471,2.1039,2.0737,2.0315,1.9699,1.9162,1.8689,1.8305,1.8061,1.7944,1.8023,1.8023,1.8151,1.8398,1.8414,1.8519,1.8757,1.8804,1.8804,1.8804,1.8788,1.8788,1.8804,1.8804,1.8804,1.8804,1.8804,1.9034,1.9352,1.8721,1.8272,1.8161,1.7389,1.6625,1.6276,1.6019,1.5885,1.5805,1.5497,1.5229,1.5137,1.4734,1.4196,1.3711,1.3071,1.2582,1.2436,1.2382,1.2382,1.2382,1.2382,1.2382,1.2382,1.2382,1.2382,1.2382,1.2382,1.2382,1.2391,1.2466,1.2494,1.2532,1.2776,1.3032,1.325,1.3496,1.3684,4.0237,3.9368,3.9319,3.8993,3.8429,3.7805,3.7127,3.6497,3.5934,3.571,3.5771,3.571,3.5737,3.571,3.571,3.4977,3.3742,3.3679,3.2979,3.1805,3.1717,3.1717,3.1717,3.1605,3.1629,3.1405,3.0915,3.0352,2.9897,2.9577,2.9209,2.8861,2.8749,2.8705,2.8594,2.8177,2.8155,2.8639,2.7676,2.7195,2.7195,2.678,2.6518,2.6453,2.5931,2.5377,2.4619,2.4179,2.3308,2.2113,2.0924,1.9978,1.9286,1.8446,1.7931,1.7904,1.8125,1.8383,1.8662,1.8709,1.8693,1.8757,1.8741,1.8757,1.8804,1.8804,1.8804,1.8804,1.8804,1.8804,1.8804,1.8804,1.882,1.8852,1.8836,1.9082,1.9581,1.9066,1.8781,1.945,1.8062,1.7121,1.6949,1.6365,1.5912,1.5885,1.5805,1.5699,1.5672,1.5309,1.4869,1.4638,1.3937,1.3071,1.2627,1.2382,1.2382,1.2382,1.2382,1.2382,1.2382,1.2382,1.2382,1.2382,1.2382,1.2382,1.2456,1.2587,1.2729,1.2691,1.2947,1.3382,1.3561,1.3655,1.3693,4.0412,4.0232,3.9588,3.8966,3.8374,3.813,3.7675,3.7127,3.6862,3.6754,3.6774,3.6754,3.6347,3.5737,3.571,3.4977,3.3747,3.3679,3.2954,3.1783,3.1717,3.1717,3.1673,3.1385,3.1094,3.078,3.0306,2.9829,2.9416,2.9163,2.8978,2.8838,2.8814,2.8946,2.9141,2.8725,2.8725,2.9163,2.8529,2.8179,2.8069,2.7391,2.6889,2.6606,2.6303,2.5743,2.4913,2.4184,2.3408,2.2565,2.1615,2.0712,1.9913,1.9474,1.8989,1.8466,1.8526,1.8646,1.8788,1.8804,1.8804,1.8804,1.8804,1.8804,1.8804,1.8804,1.8804,1.8804,1.8804,1.8804,1.8804,1.8804,1.8907,1.9098,1.9145,1.936,1.9821,1.9592,1.9426,1.9324,1.8348,1.7499,1.716,1.6444,1.5965,1.5885,1.5885,1.5885,1.5885,1.5684,1.5416,1.5041,1.4557,1.3927,1.3125,1.2609,1.2463,1.2382,1.2382,1.2382,1.2382,1.2382,1.2382,1.2382,1.2382,1.2382,1.2382,1.2456,1.2578,1.2682,1.2918,1.3316,1.3647,1.3714,1.3693,4.0484,4.0564,3.9682,3.9047,3.8618,3.8456,3.8157,3.7751,3.7567,3.7512,3.7512,3.7512,3.6914,3.5992,3.589,3.5267,3.4251,3.3972,3.3255,3.2218,3.2128,3.2128,3.2083,3.1768,3.1384,3.1041,3.0767,3.026,2.9655,2.9467,2.9349,2.9232,2.9185,2.9338,2.9622,2.9338,2.9359,2.962,2.9338,2.9208,2.9097,2.8462,2.7741,2.702,2.6532,2.5944,2.5269,2.4395,2.3615,2.2964,2.2322,2.1527,2.0564,2.0269,1.9723,1.892,1.8804,1.8804,1.8804,1.8804,1.8804,1.8804,1.8804,1.8804,1.8804,1.8804,1.8804,1.8781,1.8884,1.8955,1.882,1.8884,1.9098,1.9375,1.9471,1.9662,2.002,2.0028,1.984,1.9289,1.858,1.7691,1.6963,1.6285,1.5885,1.5885,1.5885,1.5885,1.5885,1.5859,1.5699,1.5298,1.511,1.4493,1.3532,1.2989,1.2636,1.2409,1.2382,1.2382,1.2382,1.2382,1.2382,1.2382,1.2382,1.2391,1.2401,1.2437,1.2541,1.2635,1.2909,1.3259,1.3523,1.3627,1.3714,4.0554,3.9991,3.9518,3.9264,3.921,3.8673,3.8423,3.832,3.7805,3.754,3.7615,3.7567,3.7118,3.6452,3.6431,3.5948,3.5244,3.4525,3.3849,3.3162,3.314,3.3211,3.3235,3.3212,3.3118,3.2836,3.272,3.2277,3.1403,3.102,3.0632,3.0125,3.0057,3.0122,3.0166,3.01,3.0144,3.012,3.0078,3.01,3.01,3.0035,2.929,2.8043,2.6849,2.63,2.6063,2.5383,2.4456,2.3432,2.2923,2.2143,2.105,2.0116,1.9409,1.892,1.8804,1.8804,1.8804,1.8804,1.8804,1.8804,1.8804,1.8804,1.8804,1.8836,1.8852,1.882,1.9161,1.9225,1.8963,1.9193,1.9391,1.9471,1.9709,2.0012,2.0337,2.0369,2.015,1.9681,1.8899,1.7791,1.6311,1.5939,1.5885,1.5885,1.5885,1.5885,1.5885,1.5885,1.5859,1.5711,1.5298,1.4584,1.3586,1.3179,1.2935,1.2681,1.2518,1.2382,1.2382,1.2382,1.2382,1.2382,1.2382,1.2401,1.2429,1.256,1.2767,1.2909,1.3088,1.3382,1.3514,1.3628,1.3695,4.042,3.9562,3.9385,3.9319,3.9292,3.9074,3.8993,3.8939,3.8754,3.8667,3.8667,3.8646,3.8514,3.8224,3.7262,3.6035,3.4748,3.4406,3.3952,3.3354,3.3284,3.3284,3.3284,3.3284,3.3098,3.2841,3.277,3.2253,3.1301,3.0769,3.0405,3.0234,3.0209,3.0341,3.0537,3.0341,3.0316,3.0581,3.0384,3.0209,3.0231,3.0209,2.9923,2.9419,2.8685,2.7876,2.6927,2.6485,2.5617,2.417,2.3525,2.2524,2.11,2.0093,1.9523,1.9294,1.8989,1.8804,1.8804,1.8804,1.8804,1.8804,1.8804,1.882,1.8852,1.9034,1.9177,1.9241,1.9479,1.9614,1.9582,1.9646,1.9805,1.9987,2.013,2.0337,2.0623,2.0734,2.0654,2.0303,1.9283,1.795,1.6922,1.6258,1.5912,1.5885,1.5885,1.5885,1.5885,1.5885,1.5885,1.5805,1.5378,1.4746,1.4035,1.3505,1.3179,1.2962,1.2772,1.2491,1.2382,1.2382,1.2382,1.2382,1.2382,1.2391,1.241,1.2456,1.271,1.3003,1.3202,1.3354,1.3532,1.3618,1.3665,4.0332,3.939,3.9319,3.9319,3.9319,3.9319,3.9319,3.9319,3.9319,3.9319,3.9319,3.9319,3.9047,3.8508,3.7546,3.6142,3.4562,3.4468,3.4235,3.3789,3.3789,3.3789,3.3789,3.3789,3.3624,3.3315,3.3244,3.2861,3.2249,3.1696,3.1352,3.1186,3.1029,3.0973,3.1043,3.0796,3.0843,3.1018,3.0821,3.0643,3.0643,3.0668,3.0556,3.036,2.9969,2.8944,2.7363,2.6897,2.5906,2.4389,2.3629,2.2537,2.0933,2.0161,1.966,1.9356,1.9012,1.8804,1.882,1.8915,1.8979,1.9018,1.9113,1.9161,1.9177,1.9423,1.9535,1.963,1.9869,2.0059,2.0091,2.0155,2.0282,2.04,2.0496,2.0655,2.0851,2.0883,2.0601,1.9931,1.8774,1.77,1.6909,1.6258,1.5965,1.5885,1.5885,1.5885,1.5885,1.5885,1.5885,1.5859,1.5592,1.5244,1.4734,1.4234,1.3288,1.2945,1.2718,1.2491,1.2391,1.2391,1.2391,1.2391,1.2382,1.2382,1.2382,1.2391,1.2607,1.2956,1.3107,1.325,1.3448,1.3627,1.3665,4.026,3.9368,3.9319,3.9319,3.9319,3.9319,3.9319,3.9319,3.9319,3.9319,3.9319,3.9319,3.8621,3.7479,3.7196,3.6282,3.5065,3.48,3.4727,3.4655,3.4679,3.4679,3.4655,3.4631,3.4655,3.4654,3.4702,3.4695,3.4527,3.3902,3.3403,3.309,3.2495,3.2059,3.1651,3.1604,3.156,3.1582,3.1495,3.1516,3.1582,3.1495,3.1276,3.0908,3.0419,2.9281,2.7366,2.6572,2.5464,2.3866,2.3267,2.2157,2.0863,2.0463,1.9933,1.927,1.8921,1.8859,1.89,1.9193,1.9391,1.9423,1.9702,1.9773,1.9757,1.9837,1.9884,1.9948,2.0178,2.04,2.0448,2.0639,2.0718,2.0512,2.0686,2.0877,2.0883,2.0899,2.0318,1.9049,1.8042,1.6962,1.6258,1.5965,1.5912,1.5885,1.5885,1.5885,1.5885,1.5885,1.5885,1.591,1.5755,1.5495,1.5275,1.4934,1.3786,1.2836,1.2609,1.2382,1.2437,1.2447,1.2456,1.2447,1.2382,1.2391,1.2513,1.2532,1.2635,1.289,1.3013,1.3221,1.3458,1.3636,1.3665,3.9969,3.9319,3.9319,3.9319,3.9319,3.9319,3.9319,3.9319,3.9319,3.9319,3.9319,3.9319,3.8756,3.789,3.7335,3.6543,3.5595,3.509,3.4799,3.4799,3.4799,3.4799,3.4799,3.4799,3.4991,3.5206,3.498,3.5016,3.5139,3.4477,3.3879,3.366,3.3178,3.2823,3.2599,3.2306,3.2154,3.211,3.1778,3.1604,3.1604,3.1604,3.1516,3.1335,3.0725,2.9613,2.8178,2.7435,2.6204,2.4407,2.4207,2.3509,2.2317,2.1789,2.1298,2.0661,2.0274,1.9901,1.9614,1.9686,1.9741,1.9757,1.9853,1.9893,1.9916,2.0123,2.025,2.0257,2.0543,2.0724,2.0756,2.082,2.0836,2.0766,2.0836,2.0899,2.0899,2.0899,2.0678,2.0112,1.8893,1.7977,1.745,1.6816,1.5912,1.5885,1.5885,1.5885,1.5924,1.5948,1.5982,1.6115,1.5907,1.5775,1.5646,1.5356,1.4482,1.3565,1.3092,1.2586,1.2531,1.256,1.2551,1.2532,1.2484,1.2503,1.2625,1.2691,1.2804,1.2956,1.3174,1.3343,1.3542,1.3636,1.3674,4.0341,3.9617,3.94,3.9319,3.9319,3.9319,3.9319,3.9319,3.9319,3.9319,3.9319,3.9319,3.8733,3.7867,3.7289,3.6521,3.5547,3.5017,3.4919,3.5015,3.4871,3.4799,3.4823,3.5039,3.5256,3.5518,3.5458,3.5663,3.6111,3.5349,3.4883,3.4807,3.4117,3.3635,3.3422,3.2941,3.266,3.2617,3.2328,3.2154,3.2132,3.1979,3.1866,3.1792,3.103,3.0069,2.9029,2.8428,2.7077,2.5155,2.4438,2.3727,2.2737,2.231,2.1977,2.147,2.099,2.0515,2.0232,2.0142,2.0091,2.0107,2.0203,2.0282,2.0314,2.0496,2.0591,2.0639,2.0782,2.0899,2.0883,2.0899,2.0899,2.0899,2.0883,2.0899,2.0899,2.0899,2.0694,2.0163,1.9179,1.8422,1.774,1.6856,1.5939,1.5885,1.5885,1.5985,1.6021,1.6069,1.6226,1.6317,1.6263,1.618,1.6119,1.5698,1.5131,1.4435,1.379,1.3145,1.2764,1.2842,1.2871,1.2814,1.2776,1.2795,1.2871,1.2899,1.2965,1.3164,1.3296,1.3438,1.358,1.3646,1.3693,4.1142,4.021,3.9644,3.9454,3.94,3.94,3.9373,3.9319,3.9319,3.9319,3.9319,3.9266,3.852,3.7413,3.7141,3.6317,3.5114,3.4968,3.5208,3.5424,3.5256,3.5039,3.5111,3.5472,3.5712,3.588,3.6216,3.6672,3.71,3.656,3.6415,3.6215,3.5333,3.4588,3.4123,3.3506,3.3222,3.3141,3.3054,3.2988,3.2967,3.2595,3.235,3.2306,3.1341,3.0409,2.9622,2.881,2.7457,2.5213,2.4251,2.3505,2.2649,2.2363,2.2326,2.1873,2.1172,2.0939,2.0777,2.0546,2.0416,2.0448,2.0655,2.0899,2.0829,2.0813,2.082,2.0836,2.0883,2.0899,2.0899,2.0899,2.0899,2.0899,2.0899,2.0899,2.0899,2.0899,2.0668,1.9957,1.9023,1.8174,1.7569,1.6627,1.6092,1.6033,1.6018,1.6166,1.6263,1.6371,1.6453,1.6518,1.6594,1.6645,1.6651,1.6544,1.5972,1.5325,1.4689,1.4079,1.3236,1.3135,1.3155,1.3117,1.3013,1.3079,1.3107,1.3117,1.3164,1.3268,1.34,1.3504,1.358,1.3665,1.375,4.1144,4.0842,4.068,4.0354,3.9997,3.9965,3.9699,3.9346,3.9346,3.94,3.9289,3.9142,3.8588,3.7674,3.7054,3.648,3.5912,3.552,3.5689,3.6122,3.6074,3.5978,3.5977,3.6097,3.6361,3.6723,3.6892,3.7278,3.7707,3.7197,3.6929,3.6908,3.6236,3.5598,3.5034,3.4508,3.4024,3.3633,3.3251,3.3141,3.3076,3.2682,3.242,3.2302,3.124,3.0249,2.9231,2.7676,2.6756,2.6181,2.5068,2.4523,2.4415,2.4172,2.3759,2.3258,2.273,2.2123,2.1511,2.1048,2.0807,2.0782,2.0893,2.0899,2.0899,2.0899,2.0899,2.0899,2.0899,2.0899,2.0899,2.0915,2.0915,2.0899,2.0962,2.0947,2.0915,2.0899,2.0796,2.0488,1.9312,1.8601,1.809,1.7189,1.6341,1.642,1.6441,1.6477,1.6577,1.6625,1.6682,1.6875,1.6979,1.7129,1.7155,1.7146,1.682,1.6218,1.5661,1.521,1.4245,1.3488,1.3481,1.3419,1.325,1.3212,1.3258,1.3306,1.3381,1.3429,1.3514,1.3608,1.3636,1.3693,1.3807,4.1649,4.1462,4.1195,4.092,4.0594,4.0594,4.0377,4.0106,4.0051,3.9888,3.9703,3.9492,3.8692,3.7574,3.6963,3.6456,3.6052,3.5736,3.6025,3.6699,3.6964,3.6795,3.6555,3.6603,3.6916,3.718,3.7421,3.7685,3.7899,3.7652,3.7518,3.7388,3.6904,3.6336,3.5749,3.5241,3.4702,3.4164,3.3814,3.3683,3.3639,3.3251,3.3054,3.2821,3.2002,3.108,2.9884,2.8265,2.7072,2.6385,2.5537,2.5168,2.5352,2.5186,2.4878,2.4507,2.3875,2.3066,2.2391,2.1776,2.138,2.1173,2.1121,2.1121,2.1089,2.0994,2.0899,2.0899,2.0899,2.0899,2.0915,2.1026,2.1169,2.1354,2.1354,2.1306,2.1153,2.129,2.1338,2.1039,2.0249,1.9204,1.9052,1.7827,1.7119,1.6773,1.6646,1.673,1.6827,1.6863,1.6936,1.7117,1.7225,1.731,1.7346,1.7324,1.7307,1.6768,1.6356,1.5993,1.5242,1.4213,1.3995,1.3927,1.3586,1.3402,1.3517,1.3554,1.3532,1.3619,1.3655,1.3684,1.3703,1.3816,1.391,4.254,4.2036,4.1598,4.1303,4.1222,4.1195,4.1086,4.1059,4.0978,4.0638,4.0137,3.9856,3.8713,3.7147,3.6822,3.6358,3.5881,3.5978,3.6483,3.7156,3.7565,3.7445,3.6843,3.7108,3.7276,3.7397,3.7781,3.7998,3.8094,3.8043,3.8046,3.7934,3.7483,3.685,3.6227,3.574,3.5157,3.4552,3.4376,3.431,3.4223,3.3901,3.3617,3.3475,3.2599,3.1789,3.0704,2.9427,2.8002,2.6295,2.5719,2.5535,2.5535,2.5535,2.5462,2.5295,2.4565,2.3834,2.3281,2.2753,2.2231,2.1891,2.1681,2.1549,2.158,2.1368,2.1147,2.1163,2.101,2.1115,2.1163,2.1312,2.155,2.1825,2.1937,2.1862,2.1677,2.1798,2.2011,2.1957,2.1198,2.0345,1.9622,1.8808,1.8045,1.8066,1.7726,1.7505,1.7436,1.7301,1.7329,1.7358,1.7418,1.7455,1.7467,1.7467,1.7467,1.7243,1.6897,1.6527,1.6116,1.5352,1.4914,1.4569,1.4202,1.3957,1.3886,1.3885,1.3754,1.3703,1.3731,1.374,1.3789,1.3948,1.4059,4.3239,4.2711,4.3088,4.2656,4.1896,4.1791,4.1571,4.1141,4.1141,4.078,3.9986,3.9377,3.8475,3.7416,3.6873,3.6586,3.6747,3.6819,3.7254,3.776,3.7928,3.7928,3.7639,3.776,3.7808,3.7829,3.7928,3.8214,3.8431,3.8286,3.8214,3.8497,3.8099,3.7281,3.6413,3.6164,3.5543,3.4708,3.4485,3.4507,3.4419,3.4098,3.3835,3.3682,3.2117,3.1025,3.0326,2.8956,2.7903,2.7299,2.6508,2.6086,2.6215,2.6031,2.5902,2.5723,2.5297,2.4712,2.4289,2.3729,2.3334,2.307,2.2673,2.2593,2.254,2.2006,2.1756,2.1762,2.1762,2.1698,2.173,2.1809,2.1952,2.208,2.2255,2.2355,2.2259,2.2127,2.2064,2.187,2.1356,2.0694,2.0643,1.9962,1.9499,1.9364,1.8944,1.8522,1.8159,1.7795,1.7582,1.7479,1.7479,1.7479,1.7479,1.7479,1.7479,1.7527,1.7303,1.7079,1.6667,1.6316,1.5793,1.5296,1.4827,1.457,1.4311,1.3983,1.3824,1.3831,1.3825,1.3873,1.3958,1.4097,1.4229,4.3875,4.3359,4.3658,4.3278,4.2493,4.2412,4.2249,4.1954,4.1951,4.1548,4.0792,3.9956,3.9014,3.8064,3.7237,3.6989,3.7204,3.7495,3.7711,3.7976,3.8,3.8,3.8,3.8,3.8,3.8022,3.8286,3.8551,3.8668,3.8767,3.8791,3.8812,3.8719,3.7997,3.6855,3.6648,3.6022,3.5091,3.4624,3.4507,3.4419,3.4266,3.4114,3.3839,3.235,3.1194,3.0645,2.9264,2.8304,2.776,2.7234,2.682,2.6857,2.6673,2.649,2.6207,2.5836,2.5361,2.4881,2.4553,2.41,2.3644,2.3295,2.2998,2.2716,2.2258,2.2038,2.2011,2.1984,2.2032,2.2207,2.2239,2.2287,2.2477,2.2636,2.2736,2.2704,2.2561,2.245,2.2395,2.2123,2.1658,2.1317,2.088,2.0458,2.0116,1.9225,1.8774,1.8468,1.8073,1.7618,1.7479,1.7479,1.7479,1.7479,1.7479,1.7479,1.7551,1.7576,1.7445,1.7221,1.6925,1.6626,1.6053,1.5461,1.4897,1.46,1.4282,1.396,1.3924,1.3958,1.4043,1.4197,1.4389,1.4471,4.4468,4.3956,4.4038,4.3739,4.3223,4.3063,4.3033,4.3033,4.2952,4.2253,4.1646,4.0684,3.942,3.8466,3.758,3.7232,3.7421,3.7711,3.7976,3.8,3.8,3.8,3.8024,3.8094,3.8217,3.8166,3.8527,3.8764,3.9029,3.9345,3.9317,3.9149,3.9345,3.8748,3.7633,3.709,3.6556,3.5597,3.4829,3.4507,3.4507,3.4441,3.4441,3.4165,3.3154,3.2001,3.1152,2.9963,2.8871,2.8063,2.7977,2.7757,2.7481,2.7279,2.7169,2.6802,2.6436,2.6063,2.5721,2.5415,2.493,2.3924,2.3815,2.3579,2.3212,2.2808,2.2532,2.2359,2.2364,2.2323,2.2529,2.2561,2.2704,2.2895,2.299,2.3022,2.3022,2.3022,2.2942,2.2914,2.2691,2.237,2.2135,2.1768,2.1316,2.0788,1.9895,1.92,1.8981,1.8661,1.8411,1.842,1.865,1.879,1.8803,1.8715,1.8555,1.8441,1.8394,1.8322,1.8306,1.8525,1.8277,1.6807,1.6094,1.5553,1.495,1.449,1.4246,1.4127,1.4116,1.4248,1.4474,1.4703,1.5032,4.4986,4.4583,4.5071,4.4936,4.4366,4.3875,4.3658,4.3576,4.3142,4.2037,4.0788,4.0077,3.902,3.7855,3.7366,3.7421,3.7757,3.7952,3.8,3.8,3.8,3.8024,3.8169,3.8431,3.8623,3.8695,3.8888,3.9125,3.9437,3.9561,3.9874,3.9994,3.985,3.9161,3.8402,3.7604,3.6886,3.6033,3.5117,3.4572,3.4507,3.455,3.4528,3.4416,3.3402,3.2491,3.1635,3.0673,2.9743,2.8921,2.8803,2.8564,2.8215,2.7885,2.7683,2.7463,2.7151,2.6829,2.6691,2.6473,2.6318,2.5991,2.548,2.5216,2.4796,2.4138,2.3524,2.3308,2.303,2.2859,2.2911,2.2879,2.2927,2.3006,2.3022,2.3038,2.3038,2.3022,2.3085,2.3149,2.3073,2.2969,2.2733,2.2593,2.2383,2.197,2.1336,2.0816,2.0585,2.0181,1.9804,1.9959,2.0203,2.0315,2.0413,2.0309,2.0162,2.0037,1.9966,1.995,2.0073,2.0577,2.0033,1.7954,1.6738,1.6171,1.5565,1.5054,1.4942,1.5103,1.4866,1.4684,1.5499,1.6347,1.6731,4.5463,4.4773,4.5343,4.5261,4.4719,4.4393,4.4092,4.3794,4.347,4.2507,4.1246,4.0334,3.9398,3.8397,3.7746,3.7784,3.7928,3.8,3.8,3.8,3.8,3.8193,3.8359,3.8719,3.8957,3.9224,3.9489,3.9874,4.0379,4.0451,4.0547,4.0667,4.0523,4.0022,3.9196,3.8325,3.7471,3.6641,3.5551,3.4753,3.4572,3.4703,3.4747,3.4264,3.3436,3.2489,3.171,3.0343,2.9509,2.9094,2.8975,2.8895,2.8729,2.8509,2.8215,2.7867,2.7628,2.75,2.75,2.727,2.7002,2.646,2.6147,2.5718,2.529,2.464,2.4267,2.3921,2.3725,2.3316,2.3034,2.3038,2.3022,2.3022,2.3038,2.3105,2.3168,2.3089,2.3228,2.3371,2.32,2.3184,2.3267,2.3228,2.3346,2.3106,2.2676,2.2353,2.2059,2.1583,2.1059,2.1058,2.1231,2.1347,2.1462,2.1506,2.1506,2.1459,2.1422,2.1383,2.1061,2.1196,2.0076,1.8282,1.743,1.7599,1.6884,1.6608,1.6393,1.6326,1.6835,1.7286,1.7582,1.8021,1.8474,4.5907,4.5098,4.556,4.5505,4.5071,4.4908,4.4529,4.4038,4.3848,4.2847,4.1449,4.0667,3.9828,3.8974,3.8319,3.8,3.8,3.8,3.8,3.8048,3.8193,3.8431,3.8692,3.8981,3.9245,3.9801,4.0258,4.0763,4.098,4.1052,4.1225,4.1273,4.1297,4.0836,3.9933,3.9122,3.83,3.7473,3.6218,3.5345,3.5021,3.5037,3.5059,3.4612,3.3505,3.2662,3.1741,3.0507,2.9569,2.9253,2.9097,2.9042,2.9097,2.906,2.8682,2.816,2.7977,2.7922,2.7903,2.7757,2.733,2.6695,2.6527,2.6006,2.5453,2.5183,2.4768,2.4239,2.3992,2.3856,2.3493,2.3298,2.3289,2.3276,2.3308,2.3279,2.3454,2.3546,2.3578,2.3578,2.3387,2.3451,2.3626,2.3673,2.3737,2.3835,2.3428,2.3324,2.304,2.2613,2.2216,2.2053,2.2097,2.22,2.2363,2.2527,2.2587,2.2677,2.2629,2.2621,2.1919,2.1307,2.0253,1.9867,2.02,2.0261,1.9228,1.8168,1.7917,1.8155,1.9193,1.9606,1.9439,1.985,2.0484,4.6324,4.6291,4.6346,4.6346,4.6183,4.5694,4.5126,4.4529,4.3961,4.2548,4.0642,4.0363,3.9519,3.8449,3.8106,3.8,3.8048,3.8072,3.8145,3.8265,3.8551,3.8791,3.8933,3.9345,3.9801,4.0282,4.0812,4.1105,4.1321,4.1321,4.1562,4.1803,4.1514,4.11,4.0875,3.9878,3.9371,3.8881,3.7463,3.6327,3.5808,3.5459,3.5277,3.4991,3.4456,3.3537,3.2215,3.1142,3.0392,2.9682,2.9218,2.9207,2.9409,2.9159,2.8993,2.8785,2.8583,2.8315,2.8289,2.8105,2.7746,2.7266,2.712,2.6838,2.637,2.5904,2.5471,2.474,2.4535,2.4338,2.4159,2.4011,2.3981,2.3893,2.3814,2.3877,2.3973,2.3816,2.3909,2.4084,2.3973,2.3989,2.4084,2.41,2.4116,2.4229,2.4265,2.413,2.3934,2.3514,2.3412,2.3322,2.3247,2.3323,2.3354,2.349,2.3566,2.3747,2.3551,2.3532,2.2886,2.2317,2.2881,2.2653,2.2806,2.1877,2.0135,1.9285,1.9315,2.003,2.1082,2.1149,2.0854,2.1542,2.2591,4.5856,4.5994,4.6373,4.6509,4.6427,4.5831,4.5261,4.4536,4.3565,4.2097,4.0542,3.9879,3.9052,3.8159,3.8,3.8166,3.8383,3.8431,3.8647,3.8815,3.9128,3.9417,3.9729,3.997,4.0331,4.0739,4.1076,4.1365,4.1586,4.1995,4.2356,4.2597,4.2067,4.1682,4.1456,4.0448,3.9609,3.866,3.735,3.6324,3.6063,3.6027,3.5911,3.5641,3.5197,3.4345,3.3314,3.1998,3.1312,3.063,2.9948,2.9409,2.9464,2.9243,2.8975,2.8986,2.8858,2.8737,2.87,2.8535,2.8234,2.7977,2.782,2.7681,2.7305,2.6991,2.6599,2.6042,2.5537,2.5163,2.4746,2.434,2.4183,2.4114,2.4225,2.4291,2.4307,2.4148,2.4132,2.4339,2.4529,2.4498,2.4466,2.445,2.4529,2.4706,2.4692,2.4552,2.4473,2.4226,2.4323,2.4604,2.4542,2.4527,2.4513,2.456,2.4407,2.4392,2.3764,2.3714,2.3667,2.3604,2.3941,2.3874,2.3419,2.2254,2.0804,2.12,2.1933,2.2498,2.2999,2.3135,2.3332,2.4151,2.4955,4.5346,4.564,4.6101,4.6346,4.6454,4.5831,4.5261,4.4563,4.3238,4.1794,4.0415,3.9389,3.8554,3.8106,3.8048,3.8262,3.8764,3.8788,3.9125,3.9465,3.9777,4.0018,4.0186,4.0403,4.0643,4.1196,4.1148,4.1466,4.1995,4.2428,4.2813,4.3096,4.2067,4.1755,4.1542,4.0906,4.004,3.8838,3.7372,3.6604,3.645,3.6544,3.6413,3.6126,3.5678,3.5062,3.4104,3.2793,3.1857,3.1124,3.0346,2.9794,2.9758,2.9562,2.9232,2.914,2.9012,2.9048,2.8975,2.8865,2.8755,2.8517,2.8242,2.7977,2.7793,2.7793,2.7679,2.7047,2.6603,2.5999,2.5436,2.4943,2.4703,2.457,2.4434,2.4561,2.4641,2.4529,2.4498,2.4658,2.4817,2.4849,2.4817,2.477,2.4897,2.5151,2.5135,2.4976,2.4849,2.472,2.4817,2.504,2.5024,2.4992,2.504,2.5087,2.5088,2.5028,2.4393,2.4206,2.433,2.4295,2.4384,2.419,2.4138,2.4097,2.3576,2.4129,2.4626,2.4428,2.4499,2.5563,2.6152,2.6778,2.6867,4.5095,4.5587,4.5667,4.5993,4.6427,4.5857,4.5234,4.4561,4.3134,4.1642,4.0032,3.887,3.8133,3.8024,3.8121,3.8383,3.8836,3.8788,3.9269,3.9753,4.0066,4.0355,4.0499,4.0571,4.0691,4.11,4.1225,4.1514,4.1947,4.2284,4.2356,4.2091,4.1779,4.1442,4.1235,4.1033,4.031,3.9231,3.7958,3.7362,3.7124,3.6997,3.6697,3.6584,3.6058,3.5063,3.3386,3.2745,3.2033,3.1314,3.0556,3.0198,3.0161,3.0002,2.9672,2.9299,2.9335,2.9317,2.9188,2.9023,2.8821,2.8443,2.8197,2.8087,2.8032,2.7885,2.7773,2.7758,2.7374,2.6953,2.6483,2.6037,2.5424,2.5151,2.4905,2.4817,2.4913,2.4928,2.4928,2.5025,2.5057,2.504,2.504,2.496,2.4992,2.5214,2.5183,2.4993,2.5009,2.4944,2.5024,2.5104,2.512,2.5104,2.5151,2.523,2.5389,2.5485,2.5172,2.5188,2.5329,2.5249,2.5008,2.54,2.5525,2.5938,2.6223,2.6091,2.5942,2.5659,2.5927,2.6704,2.7203,2.7489,2.7602,4.5049,4.5071,4.5424,4.5723,4.5911,4.5288,4.4908,4.4329,4.2257,4.0389,3.8922,3.8291,3.8,3.8096,3.8407,3.8791,3.9296,3.9681,4.0066,4.0475,4.0812,4.0884,4.0884,4.0884,4.1033,4.1177,4.1225,4.1273,4.1514,4.1851,4.173,4.1538,4.1562,4.173,4.16,4.0999,4.0305,3.9732,3.8712,3.7992,3.7865,3.7445,3.7142,3.7074,3.7019,3.617,3.4972,3.4041,3.3094,3.2106,3.1113,3.0701,3.0497,3.0351,2.9984,2.9519,2.9629,2.9556,2.9409,2.9207,2.8902,2.8828,2.8608,2.8528,2.8491,2.8528,2.8546,2.8414,2.8097,2.7705,2.7437,2.6651,2.5912,2.567,2.5473,2.529,2.5229,2.5339,2.5262,2.5326,2.5199,2.5057,2.5057,2.5057,2.5151,2.5246,2.5167,2.5088,2.5136,2.531,2.5437,2.5469,2.5485,2.5612,2.5643,2.5723,2.5754,2.5802,2.5818,2.5898,2.5961,2.5945,2.588,2.6358,2.6709,2.6816,2.7004,2.731,2.7158,2.6682,2.6905,2.7507,2.7908,2.8205,2.826,4.5365,4.5493,4.5907,4.5895,4.5558,4.5126,4.4702,4.392,4.1773,3.9644,3.8027,3.8,3.8121,3.831,3.8599,3.9224,3.9753,4.0186,4.0667,4.0956,4.1124,4.1196,4.1196,4.1172,4.1153,4.1196,4.1196,4.122,4.1244,4.1196,4.1244,4.1365,4.1538,4.1658,4.1465,4.0808,4.0194,3.9902,3.9049,3.8328,3.8208,3.7714,3.7382,3.7361,3.7292,3.6755,3.5724,3.4706,3.374,3.2694,3.1752,3.0996,3.0772,3.0607,3.0332,3.0125,2.9959,2.9959,2.9868,2.9629,2.936,2.9397,2.9225,2.9188,2.9159,2.9177,2.9133,2.914,2.8811,2.8533,2.8359,2.7578,2.6996,2.68,2.6297,2.6065,2.5924,2.5909,2.5689,2.5595,2.5469,2.5485,2.55,2.5516,2.5342,2.5453,2.5595,2.55,2.5422,2.566,2.6041,2.6057,2.6025,2.612,2.6263,2.6136,2.6009,2.6057,2.612,2.6279,2.6343,2.6375,2.6597,2.6962,2.728,2.7484,2.7677,2.7804,2.7741,2.7546,2.782,2.8058,2.8487,2.8719,2.8838,4.5994,4.7094,4.7073,4.65,4.5605,4.5585,4.4716,4.3408,4.1802,3.9943,3.8154,3.8022,3.831,3.8668,3.8912,3.9513,4.0138,4.0403,4.0715,4.1129,4.1196,4.1196,4.1196,4.1196,4.1196,4.1196,4.1196,4.1196,4.1196,4.1196,4.1196,4.1196,4.1321,4.1345,4.1192,4.0566,4.0223,4.0019,3.893,3.8514,3.8156,3.7706,3.7435,3.7404,3.7404,3.6898,3.59,3.5191,3.4184,3.3033,3.2217,3.1524,3.1134,3.1336,3.1171,3.0809,3.0736,3.0717,3.0681,3.0351,3.0204,3.0094,2.9886,2.9666,2.9647,2.9647,2.9684,2.9727,2.9769,2.9475,2.9149,2.8747,2.8261,2.7688,2.7196,2.6724,2.6518,2.6198,2.5961,2.5834,2.5993,2.612,2.612,2.6025,2.5707,2.5707,2.5913,2.5929,2.5786,2.5914,2.6263,2.6406,2.6358,2.6501,2.6566,2.6375,2.6279,2.6311,2.6438,2.6661,2.6803,2.693,2.7216,2.7548,2.777,2.7995,2.8122,2.8233,2.8233,2.8249,2.8154,2.8376,2.8821,2.9186,2.9273,4.5836,4.6026,4.6789,4.6451,4.5447,4.5128,4.4432,4.3339,4.1595,3.9704,3.8355,3.8334,3.8599,3.8933,3.9537,4.0042,4.0379,4.0888,4.1153,4.1177,4.1196,4.1196,4.1196,4.1196,4.1196,4.1196,4.1196,4.1196,4.1196,4.1196,4.1196,4.1196,4.1297,4.1196,4.1168,4.0884,4.0687,4.0135,3.9374,3.8752,3.8276,3.7766,3.7404,3.7404,3.7404,3.6928,3.6043,3.549,3.4586,3.3468,3.2706,3.2329,3.1944,3.2071,3.1909,3.1579,3.1414,3.1029,3.0956,3.0809,3.0974,3.0791,3.0437,3.0253,3.0657,3.0479,3.0424,3.0382,3.0492,3.0164,2.987,2.9587,2.9088,2.8408,2.7855,2.7229,2.6842,2.6408,2.6088,2.6073,2.6168,2.628,2.6296,2.6391,2.6168,2.6057,2.6247,2.6232,2.6088,2.6104,2.6327,2.655,2.6645,2.6787,2.6868,2.6741,2.6709,2.674,2.6899,2.7105,2.7296,2.7389,2.7677,2.7963,2.8217,2.8471,2.8567,2.8678,2.8885,2.8916,2.8805,2.8726,2.9028,2.9377,2.9611,4.6333,4.6528,4.7101,4.6902,4.6086,4.534,4.4172,4.2492,4.0686,3.9173,3.8323,3.8551,3.8933,3.9296,3.9922,4.0571,4.0691,4.1008,4.1201,4.1196,4.1196,4.1196,4.1196,4.1196,4.1196,4.1196,4.1196,4.1196,4.1196,4.1196,4.1317,4.149,4.149,4.1538,4.1461,4.1278,4.1,4.0421,3.9785,3.9049,3.8544,3.7976,3.7404,3.7404,3.7314,3.7102,3.6484,3.5821,3.5073,3.4071,3.3359,3.2945,3.2545,3.2272,3.2294,3.2203,3.2038,3.1653,3.1433,3.1194,3.1414,3.1777,3.0937,3.0749,3.1079,3.0791,3.0736,3.0754,3.0969,3.0772,3.0482,3.0261,3.0081,2.9424,2.8922,2.8323,2.7933,2.754,2.697,2.6874,2.6631,2.6599,2.6486,2.6582,2.6629,2.6582,2.6566,2.647,2.6422,2.655,2.6613,2.6788,2.6978,2.7169,2.7232,2.7137,2.7137,2.7185,2.7328,2.7471,2.758,2.7691,2.8027,2.8313,2.8503,2.871,2.8964,2.9139,2.9266,2.9377,2.9393,2.9345,2.9329,2.9568,2.9865,4.7497,4.8484,4.8014,4.7653,4.7386,4.5669,4.336,4.0528,3.9362,3.861,3.8169,3.8746,3.9176,3.9681,4.021,4.0691,4.1028,4.1148,4.1172,4.1196,4.1196,4.1196,4.1196,4.1196,4.1196,4.1196,4.1196,4.1244,4.122,4.1514,4.1755,4.1899,4.1899,4.1875,4.1755,4.1557,4.1177,4.0613,4.0159,3.9406,3.8798,3.8155,3.7681,3.7509,3.7344,3.7314,3.6832,3.6194,3.5343,3.4354,3.3367,3.2632,3.2091,3.175,3.2342,3.2609,3.2606,3.2239,3.1891,3.1579,3.1818,3.2111,3.1469,3.1047,3.1029,3.1212,3.1267,3.1341,3.1488,3.1249,3.1039,3.1176,3.1294,3.0804,3.0429,2.9948,2.9561,2.9044,2.8327,2.7929,2.7549,2.7336,2.7027,2.701,2.693,2.6914,2.6867,2.6852,2.6884,2.7232,2.7264,2.7216,2.7423,2.7582,2.7532,2.7391,2.7407,2.7407,2.75,2.7643,2.7802,2.804,2.8392,2.863,2.8742,2.8948,2.9266,2.9472,2.9563,2.9674,2.9806,2.9679,2.9584,2.987,3.0172,4.6598,4.7323,4.7149,4.669,4.566,4.3065,4.1209,4.0135,3.923,3.896,3.9428,3.9379,3.9657,4.0186,4.0715,4.1004,4.1124,4.1196,4.1172,4.1196,4.1196,4.1196,4.1196,4.1196,4.1196,4.1225,4.1273,4.1442,4.1803,4.2043,4.2332,4.2525,4.2284,4.214,4.2043,4.1851,4.1277,4.0838,4.0481,3.9814,3.9151,3.8559,3.8069,3.7613,3.7404,3.7404,3.7106,3.6878,3.6204,3.5611,3.5378,3.4828,3.3491,3.3312,3.3445,3.2324,3.2203,3.2074,3.1946,3.1648,3.1777,3.2349,3.1964,3.1983,3.1964,3.1964,3.1928,3.1964,3.2093,3.1983,3.1891,3.2001,3.1964,3.1667,3.13,3.1005,3.0577,3.0036,2.9362,2.8873,2.8505,2.7674,2.7428,2.7248,2.7169,2.72,2.72,2.7185,2.7185,2.7502,2.7627,2.7548,2.7516,2.758,2.7564,2.7421,2.7516,2.7629,2.7804,2.8011,2.8297,2.8551,2.8825,2.8984,2.9059,2.9314,2.9615,2.9806,2.9981,3.0076,3.0156,2.9981,2.9917,3.0187,3.0426,4.6475,4.6749,4.6778,4.5863,4.4032,4.1749,4.067,4.0336,3.9327,3.9248,3.9922,3.9964,4.0114,4.0403,4.0884,4.1172,4.1172,4.1196,4.1196,4.1196,4.1196,4.1196,4.1196,4.1196,4.1196,4.1249,4.1442,4.1706,4.214,4.2717,4.3078,4.3024,4.2693,4.2621,4.2525,4.2206,4.1651,4.1305,4.0934,4.0287,3.9665,3.9047,3.8354,3.7717,3.7456,3.7396,3.7335,3.7301,3.6803,3.63,3.6134,3.5295,3.4041,3.3714,3.3406,3.2459,3.2533,3.2441,3.2294,3.2074,3.2203,3.2423,3.2551,3.2514,3.2478,3.2423,3.2441,3.2478,3.2698,3.2826,3.279,3.2738,3.2523,3.234,3.2083,3.1842,3.1397,3.0885,3.0394,2.9885,2.9106,2.8135,2.7687,2.7506,2.7439,2.7502,2.7614,2.7725,2.7518,2.7423,2.7582,2.7564,2.75,2.7484,2.75,2.7643,2.7738,2.7947,2.8201,2.844,2.8777,2.8952,2.9075,2.9234,2.9393,2.9631,2.987,3.0156,3.0362,3.0442,3.0537,3.0537,3.0473,3.0558,3.0712,4.6743,4.6755,4.6616,4.5044,4.2846,4.1493,4.1055,4.1121,3.9653,3.9446,4.022,4.0382,4.0459,4.0732,4.1061,4.1201,4.1196,4.1196,4.1196,4.1196,4.1196,4.1196,4.1196,4.1196,4.1196,4.1394,4.1658,4.1971,4.2332,4.2886,4.3361,4.3457,4.3168,4.2952,4.276,4.2308,4.1859,4.179,4.1739,4.1389,4.0308,3.9485,3.8705,3.7844,3.7574,3.7461,3.7293,3.6933,3.6393,3.5967,3.5551,3.4934,3.4037,3.3633,3.326,3.2915,3.2936,3.3083,3.29,3.2698,3.279,3.2973,3.3065,3.3175,3.3211,3.2991,3.2991,3.2881,3.301,3.3138,3.3138,3.312,3.2986,3.2848,3.2673,3.2557,3.2388,3.1938,3.1542,3.0943,3.019,2.9224,2.833,2.8164,2.7994,2.7938,2.7865,2.8058,2.7979,2.7661,2.7677,2.7772,2.7852,2.7884,2.7881,2.7992,2.804,2.8249,2.8519,2.8761,2.8932,2.9139,2.9345,2.9504,2.9663,2.9854,3.0092,3.0394,3.067,3.0728,3.0855,3.1115,3.1115,3.0988,3.1004,4.6366,4.6639,4.5096,4.3773,4.2577,4.0617,4.0378,4.1197,4.0474,4.0728,4.158,4.1114,4.0906,4.1188,4.1162,4.1196,4.1196,4.1196,4.1196,4.1196,4.1196,4.1196,4.1196,4.1196,4.1196,4.1394,4.1706,4.226,4.2693,4.3144,4.3289,4.2982,4.2813,4.2663,4.2669,4.2164,4.2158,4.223,4.255,4.2201,4.1165,4.0554,3.9893,3.887,3.8326,3.7771,3.7523,3.728,3.714,3.6984,3.6945,3.5913,3.4364,3.4365,3.3759,3.301,3.3376,3.367,3.3707,3.347,3.347,3.3837,3.4057,3.413,3.4038,3.3725,3.3468,3.3321,3.3248,3.3376,3.345,3.345,3.3431,3.334,3.3248,3.326,3.3304,3.2918,3.2533,3.1926,3.1201,3.0309,2.9304,2.8827,2.8622,2.8432,2.8191,2.8167,2.823,2.8072,2.8138,2.8233,2.8408,2.844,2.8424,2.8376,2.8408,2.8551,2.8789,2.8964,2.9155,2.9425,2.9695,2.977,2.9912,3.0172,3.0394,3.0686,3.0893,3.0966,3.1061,3.1274,3.1338,3.1242,3.1274,4.633,4.6137,4.4204,4.2822,4.1842,4.0211,4.0068,4.0796,4.0879,4.1397,4.2171,4.1559,4.1282,4.1463,4.1258,4.1196,4.1196,4.1196,4.1196,4.1196,4.1196,4.1196,4.1196,4.1196,4.1196,4.1369,4.2043,4.2621,4.3,4.3265,4.3313,4.303,4.2687,4.2543,4.2597,4.2645,4.2567,4.2711,4.3265,4.2951,4.2154,4.182,4.064,3.9558,3.8725,3.8204,3.7776,3.7571,3.7527,3.7265,3.6923,3.6559,3.5361,3.4921,3.4362,3.4027,3.413,3.4405,3.444,3.4258,3.4148,3.4551,3.4496,3.435,3.4643,3.4331,3.413,3.3965,3.3633,3.367,3.367,3.367,3.367,3.3596,3.356,3.3548,3.3395,3.3063,3.2749,3.24,3.1669,3.0875,3.0032,2.9583,2.9375,2.9198,2.8938,2.8748,2.8713,2.8659,2.8694,2.8694,2.8869,2.8932,2.8885,2.8805,2.8742,2.89,2.9091,2.9409,2.9695,2.9849,3.0023,3.0103,3.0299,3.0574,3.0813,3.0972,3.1131,3.122,3.1284,3.1363,3.1395,3.1395,3.1363,4.6337,4.5623,4.3681,4.2306,4.1294,4.0134,4.0023,4.0549,4.105,4.1601,4.2068,4.1812,4.1549,4.1373,4.1225,4.1225,4.1196,4.1196,4.1196,4.1196,4.1196,4.1345,4.1345,4.1244,4.1321,4.1586,4.2164,4.2741,4.3216,4.3216,4.3096,4.3289,4.3265,4.3192,4.3289,4.3289,4.3048,4.312,4.3403,4.3715,4.3487,4.3251,4.1576,4.0265,3.9262,3.8881,3.8266,3.7876,3.7811,3.7727,3.7266,3.6797,3.6609,3.6079,3.5352,3.5105,3.5366,3.5407,3.5191,3.4752,3.4881,3.5009,3.4661,3.4661,3.5009,3.5009,3.4808,3.4551,3.4185,3.3982,3.3982,3.3927,3.3927,3.389,3.3872,3.3782,3.3539,3.3295,3.305,3.2823,3.2297,3.1514,3.1028,3.0575,3.0311,3.0116,2.984,2.9663,2.9505,2.9429,2.9373,2.9329,2.9329,2.9345,2.9266,2.925,2.9171,2.9266,2.9488,2.9886,3.0166,3.0299,3.0394,3.0458,3.067,3.0924,3.1067,3.1157,3.13,3.1395,3.1395,3.1395,3.1395,3.1395,3.1395,4.6034,4.5737,4.3654,4.2647,4.2184,4.0491,4.0023,4.0524,4.105,4.152,4.1773,4.2012,4.1968,4.1883,4.1373,4.1225,4.1225,4.1249,4.1196,4.1196,4.1297,4.1514,4.1562,4.1293,4.1514,4.1803,4.2116,4.2428,4.3024,4.2687,4.2351,4.2501,4.1995,4.2067,4.2404,4.2549,4.288,4.3192,4.3577,4.3811,4.3706,4.3338,4.2848,4.1619,4.0448,3.9579,3.8762,3.8226,3.8304,3.8475,3.8572,3.7805,3.7506,3.7471,3.7004,3.5963,3.6265,3.6253,3.5886,3.5172,3.5174,3.5797,3.5522,3.5266,3.5486,3.5577,3.5394,3.5247,3.4899,3.4587,3.4495,3.4348,3.4293,3.4183,3.4128,3.4018,3.3806,3.3681,3.3557,3.3505,3.3383,3.2804,3.235,3.1983,3.1737,3.1452,3.0926,3.0697,3.0598,3.0397,3.0134,3.0022,2.9879,2.9584,2.9425,2.9647,2.9647,2.9743,2.987,3.0203,3.0473,3.0632,3.0712,3.0791,3.0966,3.1204,3.1331,3.13,3.1347,3.1395,3.1395,3.1395,3.1395,3.1411,3.1427]},{"header":{"parameterUnit":"m.s-1","parameterCategory":1,"la1":31.0,"la2":29.5877,"lo1":-88.7671,"lo2":-86.6584,"dy":0.0162,"dx":0.0185,"nx":115,"ny":88,"refTime":"2023-08-27T12:00:00:Z","depth":0,"parameterNumber":3,"parameterNumberName":"V-component_of_WINDS"},"data":[0.0,0.0,0.0,0.0,0.0,0.0,0.0,0.0,0.0,0.0,0.0,0.0,0.0,0.0,0.0,0.0,0.0,0.0,0.0,0.0,0.0,0.0,0.0,0.0,0.0,0.0,0.0,0.0,0.0,0.0,0.0,0.0,0.0,0.0,0.0,0.0,0.0,0.0,0.0,0.0,0.0,0.0,0.0,0.0,0.0,0.0,0.0,0.0,0.0,0.0,0.0,0.0,0.0,0.0,0.0,0.0,0.0,0.0,0.0,0.0,0.0,0.0,0.0,0.0,0.0,0.0,0.0,0.0,0.0,0.0,0.0,0.0,0.0,0.0,0.0,0.0,0.0,0.0,0.0,0.0,0.0,0.0,0.0,0.0,0.0,0.0,0.0,0.0,0.0,0.0,0.0,0.0,0.0,0.0,0.0,0.0,0.0,0.0,0.0,0.0,0.0,0.0,0.0,0.0,0.0,0.0,0.0,0.0,0.0,0.0,0.0,0.0,0.0,0.0,0.0,0.0,0.0,0.0,0.0,0.0,0.0,0.0,0.0,0.0,0.0,0.0,0.0,0.0,0.0,0.0,0.0,0.0,0.0,0.0,0.0,0.0,0.0,0.0,0.0,0.0,0.0,0.0,0.0,0.0,0.0,0.0,0.0,0.0,0.0,0.0,0.0,0.0,0.0,0.0,0.0,0.0,0.0,0.0,0.0,0.0,0.0,0.0,0.0,0.0,0.0,0.0,0.0,0.0,0.0,0.0,0.0,0.0,0.0,0.0,0.0,0.0,0.0,0.0,0.0,0.0,0.0,0.0,0.0,0.0,0.0,0.0,0.0,0.0,0.0,0.0,0.0,0.0,0.0,0.0,0.0,0.0,0.0,0.0,0.0,0.0,0.0,0.0,0.0,0.0,0.0,0.0,0.0,0.0,0.0,0.0,0.0,0.0,0.0,0.0,0.0,0.0,0.0,0.0,0.0,0.0,0.0,0.0,0.0,0.0,0.0,0.0,0.0,0.0,0.0,0.0,0.0,0.0,0.0,0.0,0.0,0.0,0.0,0.0,0.0,0.0,0.0,0.0,0.0,0.0,0.0,0.0,0.0,0.0,0.0,0.0,0.0,0.0,0.0,0.0,0.0,0.0,0.0,0.0,0.0,0.0,0.0,0.0,0.0,0.0,0.0,0.0,0.0,0.0,0.0,0.0,0.0,0.0,0.0,0.0,0.0,0.0,0.0,0.0,0.0,0.0,0.0,0.0,0.0,0.0,0.0,0.0,0.0,0.0,0.0,0.0,0.0,0.0,0.0,0.0,0.0,0.0,0.0,0.0,0.0,0.0,0.0,0.0,0.0,0.0,0.0,0.0,0.0,0.0,0.0,0.0,0.0,0.0,0.0,0.0,0.0,0.0,0.0,0.0,0.0,0.0,0.0,0.0,0.0,0.0,0.0,0.0,0.0,0.0,0.0,0.0,0.0,0.0,0.0,0.0,0.0,0.0,0.0,0.0,0.0,0.0,0.0,0.0,0.0,0.0,0.0,0.0,0.0,0.0,0.0,0.0,0.0,0.0,0.0,0.0,0.0,0.0,0.0,0.0,0.0,0.0,0.0,0.0,0.0,0.0,0.0,0.0,0.0,0.0,0.0,0.0,0.0,0.0,0.0,0.0,0.0,0.0,0.0,0.0,0.0,0.0,0.0,0.0,0.0,0.0,0.0,0.0,0.0,0.0,0.0,0.0,0.0,0.0,0.0,0.0,0.0,0.0,0.0,0.0,0.0,0.0,0.0,0.0,0.0,0.0,0.0,0.0,0.0,0.0,0.0,0.0,0.0,0.0,0.0,0.0,0.0,0.0,0.0,0.0,0.0,0.0,0.0,0.0,0.0,0.0,0.0,0.0,0.0,0.0,0.0,0.0,0.0,0.0,0.0,0.0,0.0,0.0,0.0,0.0,0.0,0.0,0.0,0.0,0.0,0.0,0.0,0.0,0.0,0.0,0.0,0.0,0.0,0.0,0.0,0.0,0.0,0.0,0.0,0.0,0.0,0.0,0.0,0.0,0.0,0.0,0.0,0.0,0.0,0.0,0.0,0.0,0.0,0.0,0.0,0.0,0.0,0.0,0.0,0.0,0.0,0.0,0.0,0.0,0.0,0.0,0.0,0.0,0.0,0.0,0.0,0.0,0.0,0.0,0.0,0.0,0.0,0.0,0.0,0.0,0.0,0.0,0.0,0.0,0.0,0.0,0.0,0.0,0.0,0.0,0.0,0.0,0.0,0.0,0.0,0.0,0.0,0.0,0.0,0.0,0.0,0.0,0.0,0.0,0.0,0.0,0.0,0.0,0.0,0.0,0.0,0.0,0.0,0.0,0.0,0.0,0.0,0.0,0.0,0.0,0.0,0.0,0.0,0.0,0.0,0.0,0.0,0.0,0.0,0.0,0.0,0.0,0.0,0.0,0.0,0.0,0.0,0.0,0.0,0.0,0.0,0.0,0.0,0.0,0.0,0.0,0.0,0.0,0.0,0.0,0.0,0.0,0.0,0.0,0.0,0.0,0.0,0.0,0.0,0.0,0.0,0.0,0.0,0.0,0.0,0.0,0.0,0.0,0.0,0.0,0.0,0.0,0.0,0.0,0.0,0.0,0.0,0.0,0.0,0.0,0.0,0.0,0.0,0.0,0.0,0.0,0.0,0.0,0.0,0.0,0.0,0.0,0.0,0.0,0.0,0.0,0.0,0.0,0.0,0.0,0.0,0.0,0.0,0.0,0.0,0.0,0.0,0.0,0.0,0.0,0.0,0.0,0.0,0.0,0.0,0.0,0.0,0.0,0.0,0.0,0.0,0.0,0.0,0.0,0.0,0.0,0.0,0.0,0.0,0.0,0.0,0.0,0.0,0.0,0.0,0.0,0.0,0.0,0.0,0.0,0.0,0.0,0.0,0.0,0.0,0.0,0.0,0.0,0.0,0.0,0.0,0.0,0.0,0.0,0.0,0.0,0.0,0.0,0.0,0.0,0.0,0.0,0.0,0.0,0.0,0.0,0.0,0.0,0.0,0.0,0.0,0.0,0.0,0.0,0.0,0.0,0.0,0.0,0.0,0.0,0.0,0.0,0.0,0.0,0.0,0.0,0.0,0.0,0.0,0.0,0.0,0.0,0.0,0.0,0.0,0.0,0.0,0.0,0.0,0.0,0.0,0.0,0.0,0.0,0.0,0.0,0.0,0.0,0.0,0.0,0.0,0.0,0.0,0.0,0.0,0.0,0.0,0.0,0.0,0.0,0.0,0.0,0.0,0.0,0.0,0.0,0.0,0.0,0.0,0.0,0.0,0.0,0.0,0.0,0.0,0.0,0.0,0.0,0.0,0.0,0.0,0.0,0.0,0.0,0.0,0.0,0.0,0.0,0.0,0.0,0.0,0.0,0.0,0.0,0.0,0.0,0.0,0.0,0.0,0.0,0.0,0.0,0.0,0.0,0.0,0.0,0.0,0.0,0.0,0.0,0.0,0.0,0.0,0.0,0.0,0.0,0.0,0.0,0.0,0.0,0.0,0.0,0.0,0.0,0.0,0.0,0.0,0.0,0.0,0.0,0.0,0.0,0.0,0.0,0.0,0.0,0.0,0.0,0.0,0.0,0.0,0.0,0.0,0.0,0.0,0.0,0.0,0.0,0.0,0.0,0.0,0.0,0.0,0.0,0.0,0.0,0.0,0.0,0.0,0.0,0.0,0.0,0.0,0.0,0.0,0.0,0.0,0.0,0.0,0.0,0.0,0.0,0.0,0.0,0.0,0.0,0.0,0.0,0.0,0.0,0.0,0.0,0.0,0.0,0.0,0.0,0.0,0.0,0.0,0.0,0.0,0.0,0.0,0.0,0.0,0.0,0.0,0.0,0.0,0.0,0.0,0.0,0.0,0.0,0.0,0.0,0.0,0.0,0.0,0.0,0.0,0.0,0.0,0.0,0.0,0.0,0.0,0.0,0.0,0.0,0.0,0.0,0.0,0.0,0.0,0.0,0.0,0.0,0.0,0.0,0.0,0.0,0.0,0.0,0.0,0.0,0.0,0.0,0.0,0.0,0.0,0.0,0.0,0.0,0.0,0.0,0.0,0.0,0.0,0.0,0.0,0.0,0.0,0.0,0.0,0.0,0.0,0.0,0.0,0.0,0.0,0.0,0.0,0.0,0.0,0.0,0.0,0.0,0.0,0.0,0.0,0.0,0.0,0.0,0.0,0.0,0.0,0.0,0.0,0.0,0.0,0.0,0.0,0.0,0.0,0.0,0.0,0.0,0.974,0.0,0.0,0.0,0.0,0.0,0.0,0.0,0.0,0.0,0.0,0.0,0.0,0.0,0.0,0.0,0.0,0.0,0.0,0.0,0.0,0.0,0.0,0.0,0.0,0.0,0.0,0.0,0.0,0.0,0.0,0.0,0.0,0.0,0.0,0.0,0.0,0.0,0.0,0.0,0.0,0.0,0.0,0.0,0.0,0.0,0.0,0.0,0.0,0.0,0.0,0.0,0.0,0.0,0.0,0.0,0.0,0.0,0.0,0.0,0.0,0.0,0.0,0.0,0.0,0.0,0.0,0.0,0.0,0.0,0.0,0.0,0.0,0.0,0.0,0.0,0.0,0.0,0.0,0.0,0.0,0.0,0.0,0.0,0.0,0.0,0.0,0.0,0.0,0.0,0.0,0.0,0.0,0.0,0.0,0.0,0.0,0.0,0.0,0.0,0.0,0.0,0.0,0.0,0.0,0.0,0.0,0.0,0.0,0.0,0.0,0.8934,0.9024,0.9791,1.0189,1.015,0.0,0.0,0.0,0.0,0.0,0.0,0.0,0.0,0.0,0.0,0.0,0.0,0.0,0.0,0.0,0.0,0.0,0.0,0.0,0.0,0.0,0.0,0.0,0.0,0.0,0.0,0.0,0.0,0.0,0.0,0.0,0.0,0.0,0.0,0.0,0.0,0.0,0.0,0.0,0.0,0.0,0.0,0.0,0.0,0.0,0.0,0.0,0.0,0.0,0.0,0.0,0.0,0.0,0.0,0.0,0.0,0.0,0.0,0.0,0.0,0.0,0.0,0.0,0.0,0.0,0.0,0.0,0.0,0.0,0.0,0.0,0.0,0.0,0.0,0.0,0.0,0.0,0.0,0.0,0.0,0.0,0.0,0.0,0.0,0.0,0.0,0.0,0.0,0.0,0.0,0.0,0.0,0.0,0.0,0.0,0.0,0.0,0.0,0.0,0.0,0.0,0.0,0.0,0.0,0.0,0.0,0.0,0.0,0.0,0.0,0.0,0.0,1.0789,1.1179,1.1094,0.0,0.0,0.0,0.0,0.0,0.0,0.0,0.0,0.0,0.0,0.0,0.0,0.0,0.0,0.0,0.0,0.0,0.0,0.0,0.0,0.0,0.0,0.0,0.0,0.0,0.0,0.0,0.0,0.0,0.0,0.0,0.0,0.0,0.0,0.0,0.0,0.0,0.0,0.0,0.0,0.0,0.0,0.0,0.0,0.0,0.0,0.0,0.0,0.0,0.0,0.0,0.0,0.0,0.0,0.0,0.0,0.0,0.0,0.0,0.0,0.0,0.0,0.0,0.0,0.0,0.0,0.0,0.0,0.0,0.0,0.0,0.0,0.0,0.0,0.0,0.0,0.0,0.0,0.0,0.0,0.0,0.0,0.0,0.0,0.0,0.0,0.0,0.0,0.0,0.0,0.0,0.0,0.0,0.0,0.0,0.0,0.0,0.0,0.0,0.0,0.0,0.0,0.0,0.0,0.0,0.0,0.0,0.0,0.0,0.0,1.1297,1.3022,1.3041,0.0,1.367,0.0,0.0,0.0,0.0,0.0,0.0,0.0,0.0,0.0,0.0,0.0,0.0,0.0,0.0,0.0,0.0,0.0,0.0,0.0,0.0,0.0,0.0,0.0,0.0,0.0,0.0,0.0,0.0,0.0,0.0,0.0,0.0,0.0,0.0,0.0,0.0,0.0,0.0,0.0,0.0,0.0,0.0,0.0,0.0,0.0,0.0,0.0,0.0,0.0,0.0,0.0,0.0,0.0,0.0,0.0,0.0,0.0,0.0,0.0,0.0,0.0,0.0,0.0,0.0,0.0,0.0,0.0,0.0,0.0,0.0,0.0,0.0,0.0,0.0,0.0,0.0,0.0,0.0,0.0,0.0,0.0,0.0,0.0,0.0,0.0,0.0,0.0,0.0,0.0,0.0,0.0,0.0,0.0,0.0,0.0,0.0,0.0,0.0,0.0,0.0,0.0,0.0,0.0,0.0,0.0,0.0,0.0,0.0,0.0,0.0,1.1708,1.3164,1.3442,1.3477,0.0,0.0,0.0,0.0,0.0,0.0,0.0,0.0,0.0,0.0,0.0,0.0,0.0,0.0,0.0,0.0,0.0,0.0,0.0,0.0,0.0,0.0,0.0,0.0,0.0,0.0,0.0,0.0,0.0,0.0,0.0,0.0,0.0,0.0,0.0,0.0,0.0,0.0,0.0,0.0,0.0,0.0,0.0,0.0,0.0,0.0,0.0,0.0,0.0,0.0,0.0,0.0,0.0,0.0,0.0,0.0,0.0,0.0,0.0,0.0,0.0,0.0,0.0,0.0,0.0,0.0,0.0,0.0,0.0,0.0,0.0,0.0,0.0,0.0,0.0,0.0,0.0,0.0,0.0,0.0,0.0,0.0,0.0,0.0,0.0,0.0,0.0,0.0,0.0,0.0,0.0,0.0,0.0,0.0,0.0,0.0,0.0,0.0,0.0,0.0,0.0,0.0,0.0,0.0,0.0,0.0,0.0,0.0,0.0,0.0,1.1746,1.2606,1.38,1.3806,1.3545,1.3094,0.0,0.0,0.0,0.0,0.0,0.0,0.0,0.0,0.0,0.0,0.0,0.0,0.0,0.0,0.0,0.0,0.0,0.0,0.0,0.0,0.0,0.0,0.0,0.0,0.0,0.0,0.0,0.0,0.0,0.0,0.0,0.0,0.0,0.0,0.0,0.0,0.0,0.0,0.0,0.0,0.0,0.0,0.0,0.0,0.0,0.0,0.0,0.0,0.0,0.0,0.0,0.0,0.0,0.0,0.0,0.0,0.0,0.0,0.0,0.0,0.0,0.0,0.0,0.0,0.0,0.0,0.0,0.0,0.0,0.0,0.0,0.0,0.0,0.0,0.0,0.0,0.0,0.0,0.0,0.0,0.0,0.0,0.0,0.0,0.0,0.0,0.0,0.0,0.0,0.0,0.0,0.0,0.0,0.0,0.0,0.0,0.0,0.0,0.0,0.0,0.0,0.0,0.0,0.0,0.0,0.0,0.0,0.0,1.5044,1.4205,1.4447,1.5987,1.4505,1.3824,0.0,0.0,0.0,0.0,0.0,0.0,0.0,0.0,0.0,0.0,0.0,0.0,0.0,0.0,0.0,0.0,0.0,0.0,0.0,0.0,0.0,0.0,0.0,0.0,0.0,0.0,0.0,0.0,0.0,0.0,0.0,0.0,0.0,0.0,0.0,0.0,0.0,0.0,0.0,0.0,0.0,0.0,0.0,0.0,0.0,0.0,0.0,0.0,0.0,0.0,0.0,0.0,0.0,0.0,0.0,0.0,0.0,0.0,0.0,0.0,0.0,0.0,0.0,0.0,0.0,0.0,0.0,0.0,0.0,0.0,0.0,0.0,0.0,0.0,0.0,0.0,0.0,0.0,0.0,0.0,0.0,0.0,0.0,0.0,0.0,0.0,0.0,0.0,0.0,0.0,0.0,0.0,0.0,0.0,0.0,0.0,0.0,0.0,0.0,0.0,0.0,0.0,0.0,0.0,0.0,0.0,0.0,0.0,0.0,1.2406,1.3132,1.4194,1.5615,1.4665,1.4189,0.0,0.0,0.0,0.0,0.0,0.0,0.0,0.0,0.0,0.0,0.0,0.0,0.0,0.0,0.0,0.0,0.0,0.0,0.0,0.0,0.0,0.0,0.0,0.0,0.0,0.0,0.0,0.0,0.0,0.0,0.0,0.0,0.0,0.0,0.0,0.0,0.0,0.0,0.0,0.0,0.0,0.0,0.0,0.0,0.0,0.0,0.0,0.0,0.0,0.0,0.0,0.0,0.0,0.0,0.0,0.0,0.0,0.0,0.0,0.0,0.0,0.0,0.0,0.0,0.0,0.0,0.0,0.0,0.0,0.0,0.0,0.0,0.0,0.0,0.0,0.0,0.0,0.0,0.0,0.0,0.0,0.0,0.0,0.0,0.0,0.0,0.0,0.0,0.0,0.0,0.0,0.0,0.0,0.0,0.0,0.0,0.0,0.0,0.0,0.0,0.0,0.0,0.0,0.0,0.0,0.0,0.0,0.0,0.0,1.2712,0.0,1.5481,0.0,1.5123,1.4384,0.0,0.0,0.0,0.0,0.0,0.0,0.0,0.0,0.0,0.0,0.0,0.0,0.0,0.0,0.0,0.0,0.0,0.0,0.0,0.0,0.0,0.0,0.0,0.0,0.0,0.0,0.0,0.0,0.0,0.0,0.0,0.0,0.0,0.0,0.0,0.0,0.0,0.0,0.0,0.0,0.0,0.0,0.0,0.0,0.0,0.0,0.0,0.0,0.0,0.0,0.0,0.0,0.0,0.0,0.0,0.0,0.0,0.0,0.0,0.0,0.0,0.0,0.0,0.0,0.0,0.0,0.0,0.0,0.0,0.0,0.0,0.0,0.0,0.0,0.0,0.0,0.0,0.0,0.0,0.0,0.0,0.0,0.0,0.0,0.0,0.0,0.0,0.0,0.0,0.0,0.0,0.0,0.0,0.0,0.0,0.0,0.0,0.0,0.0,0.0,0.0,0.0,0.0,0.0,0.0,0.0,0.0,0.0,1.345,1.6639,1.8347,1.8373,1.6965,1.5894,1.4415,0.0,0.0,0.0,0.0,0.0,0.0,0.0,0.0,0.0,0.0,0.0,0.0,0.0,0.0,0.0,0.0,0.0,0.0,0.0,0.0,0.0,0.0,0.0,0.0,0.0,0.0,0.0,0.0,0.0,0.0,0.0,0.0,0.0,0.0,0.0,0.0,0.0,0.0,0.0,0.0,0.0,0.0,0.0,0.0,0.0,0.0,0.0,0.0,0.0,0.0,0.0,0.0,0.0,0.0,0.0,0.0,0.0,0.0,0.0,0.0,0.0,0.0,0.0,0.0,0.0,0.0,0.0,0.0,0.0,0.0,0.0,0.0,0.0,0.0,0.0,0.0,0.0,0.0,0.0,0.0,0.0,0.0,0.0,0.0,0.0,0.0,0.0,0.0,0.0,0.0,0.0,0.0,0.0,0.0,0.0,0.0,0.0,0.0,0.0,0.0,0.0,0.0,0.0,0.0,0.0,0.0,0.0,0.0,0.0,1.4261,1.6653,1.8069,1.8198,1.6154,1.5395,0.0,0.0,0.0,0.0,0.0,0.0,0.0,0.0,0.0,0.0,0.0,0.0,0.0,0.0,0.0,0.0,0.0,0.0,0.0,0.0,0.0,0.0,0.0,0.0,0.0,0.0,0.0,0.0,0.0,0.0,0.0,0.0,0.0,0.0,0.0,0.0,0.0,0.0,0.0,0.0,0.0,0.0,0.0,0.0,0.0,0.0,0.0,0.0,0.0,0.0,0.0,0.0,0.0,0.0,0.0,0.0,0.0,0.0,0.0,0.0,0.0,0.0,0.0,0.0,0.0,0.0,0.0,0.0,0.0,0.0,0.0,0.0,0.0,0.0,0.0,0.0,0.0,0.0,0.0,0.0,0.0,0.0,0.0,0.0,0.0,0.0,0.0,0.0,0.0,0.0,0.0,0.0,0.0,0.0,0.0,0.0,0.0,0.0,0.0,0.0,0.0,0.0,0.0,0.0,0.0,0.0,0.0,0.0,0.0,1.6417,1.8601,1.9726,1.9514,1.7499,1.6436,1.6486,0.0,0.0,0.0,0.0,0.0,0.0,0.0,0.0,0.0,0.0,0.0,0.0,0.0,0.0,0.0,0.0,0.0,0.0,0.0,0.0,0.0,0.0,0.0,0.0,0.0,0.0,0.0,0.0,0.0,0.0,0.0,0.0,0.0,0.0,0.0,0.0,0.0,0.0,0.0,0.0,0.0,0.0,0.0,0.0,0.0,0.0,0.0,0.0,0.0,0.0,0.0,0.0,0.0,0.0,0.0,0.0,0.0,0.0,0.0,0.0,0.0,0.0,0.0,0.0,0.0,0.0,0.0,0.0,0.0,0.0,0.0,0.0,0.0,0.0,0.0,0.0,0.0,0.0,0.0,0.0,0.0,0.0,0.0,0.0,0.0,0.0,0.0,0.0,0.0,0.0,0.0,0.0,0.0,0.0,0.0,0.0,0.0,0.0,0.0,0.0,0.0,0.0,0.0,0.0,0.0,0.0,0.0,0.0,2.1926,2.3546,2.3305,2.1078,1.984,1.7733,0.0,0.0,0.0,0.0,0.0,0.0,0.0,0.0,0.0,0.0,0.0,0.0,0.0,0.0,0.0,0.0,0.0,0.0,0.0,0.0,0.0,0.0,0.0,0.0,0.0,0.0,0.0,0.0,0.0,0.0,0.0,0.0,0.0,0.0,0.0,0.0,0.0,0.0,0.0,0.0,0.0,0.0,0.0,0.0,0.0,0.0,0.0,0.0,0.0,0.0,0.0,0.0,0.0,0.0,0.0,0.0,0.0,0.0,0.0,0.0,0.0,0.0,0.0,0.0,0.0,0.0,0.0,0.0,0.0,0.0,0.0,0.0,0.0,0.0,0.0,0.0,0.0,0.0,0.0,0.0,0.0,0.0,0.0,0.0,0.0,0.0,0.0,0.0,0.0,0.0,0.0,0.0,0.0,0.0,0.0,0.0,0.0,0.0,0.0,0.0,0.0,0.0,0.0,0.0,0.0,0.0,0.0,0.0,0.0,2.3661,2.6593,2.7292,2.5423,2.2538,2.0603,0.0,0.0,0.0,0.0,0.0,0.0,0.0,0.0,0.0,0.0,0.0,0.0,0.0,0.0,0.0,0.0,0.0,0.0,0.0,0.0,0.0,0.0,0.0,0.0,0.0,0.0,0.0,0.0,0.0,0.0,0.0,0.0,0.0,0.0,0.0,0.0,0.0,0.0,0.0,0.0,0.0,0.0,0.0,0.0,0.0,0.0,0.0,0.0,0.0,0.0,0.0,0.0,0.0,0.0,0.0,0.0,0.0,0.0,0.0,0.0,0.0,0.0,0.0,0.0,0.0,0.0,0.0,0.0,0.0,0.0,0.0,0.0,0.0,0.0,0.0,0.0,0.0,0.0,0.0,0.0,0.0,0.0,0.0,0.0,0.0,0.0,0.0,0.0,0.0,0.0,0.0,0.0,0.0,0.0,0.0,0.0,0.0,0.0,0.0,0.0,0.0,0.0,0.0,0.0,0.0,0.0,0.0,0.0,2.3609,2.6838,2.9923,3.093,2.9743,2.6368,2.3393,0.0,0.0,0.0,0.0,0.0,0.0,0.0,0.0,0.0,0.0,0.0,0.0,0.0,0.0,0.0,0.0,0.0,0.0,0.0,0.0,0.0,0.0,0.0,0.0,0.0,0.0,0.0,0.0,0.0,0.0,0.0,0.0,0.0,0.0,0.0,0.0,0.0,0.0,0.0,0.0,0.0,0.0,0.0,0.0,0.0,0.0,0.0,0.0,0.0,0.0,0.0,0.0,0.0,0.0,0.0,0.0,0.0,0.0,0.0,0.0,0.0,0.0,0.0,0.0,0.0,0.0,0.0,0.0,0.0,0.0,0.0,0.0,0.0,0.0,0.0,0.0,0.0,0.0,0.0,0.0,0.0,0.0,0.0,0.0,0.0,0.0,0.0,0.0,0.0,0.0,0.0,0.0,0.0,0.0,0.0,0.0,0.0,0.0,0.0,0.0,0.0,0.0,0.0,0.0,0.0,0.0,0.0,0.0,2.6171,3.0299,3.2971,3.4028,3.3371,3.0171,2.5869,0.0,0.0,0.0,0.0,0.0,0.0,0.0,0.0,0.0,0.0,0.0,0.0,0.0,0.0,0.0,0.0,0.0,0.0,0.0,0.0,0.0,0.0,0.0,0.0,0.0,0.0,0.0,0.0,0.0,0.0,0.0,0.0,0.0,0.0,0.0,0.0,0.0,0.0,0.0,0.0,0.0,0.0,0.0,0.0,0.0,0.0,0.0,0.0,0.0,0.0,0.0,0.0,0.0,0.0,0.0,0.0,0.0,0.0,0.0,0.0,0.0,0.0,0.0,0.0,0.0,0.0,0.0,0.0,0.0,0.0,0.0,0.0,0.0,0.0,0.0,0.0,0.0,0.0,0.0,0.0,0.0,0.0,0.0,0.0,0.0,0.0,0.0,0.0,0.0,0.0,0.0,0.0,0.0,0.0,0.0,0.0,0.0,0.0,0.0,0.0,0.0,0.0,0.0,0.0,0.0,0.0,0.0,0.0,2.7393,2.9754,3.3203,3.4766,3.4253,3.0208,2.6483,0.0,0.0,0.0,0.0,0.0,0.0,0.0,0.0,0.0,0.0,0.0,0.0,0.0,0.0,0.0,0.0,0.0,0.0,0.0,0.0,0.0,0.0,0.0,0.0,0.0,0.0,0.0,0.0,0.0,0.0,0.0,0.0,0.0,0.0,0.0,0.0,0.0,0.0,0.0,0.0,0.0,0.0,0.0,0.0,0.0,0.0,0.0,0.0,2.6414,0.0,0.0,0.0,0.0,0.0,0.0,0.0,0.0,0.0,0.0,0.0,0.0,0.0,0.0,0.0,0.0,0.0,0.0,0.0,0.0,0.0,0.0,0.0,0.0,0.0,0.0,0.0,0.0,0.0,0.0,0.0,0.0,0.0,0.0,0.0,0.0,0.0,0.0,0.0,0.0,0.0,0.0,0.0,0.0,0.0,0.0,0.0,0.0,0.0,0.0,0.0,0.0,0.0,0.0,0.0,0.0,0.0,0.0,0.0,2.8364,3.0893,3.399,3.5208,3.4294,3.1363,2.8166,0.0,0.0,0.0,0.0,0.0,0.0,0.0,0.0,0.0,0.0,0.0,0.0,0.0,0.0,0.0,0.0,0.0,0.0,0.0,0.0,0.0,0.0,0.0,0.0,0.0,0.0,0.0,0.0,0.0,0.0,0.0,0.0,0.0,0.0,0.0,0.0,0.0,0.0,0.0,0.0,0.0,0.0,0.0,0.0,0.0,0.0,0.0,0.0,0.0,0.0,0.0,0.0,0.0,0.0,0.0,0.0,0.0,0.0,0.0,0.0,0.0,0.0,0.0,0.0,0.0,0.0,0.0,0.0,0.0,0.0,0.0,0.0,0.0,0.0,0.0,0.0,0.0,0.0,0.0,0.0,0.0,0.0,0.0,0.0,0.0,0.0,0.0,0.0,0.0,0.0,0.0,0.0,0.0,0.0,0.0,0.0,0.0,0.0,0.0,0.0,0.0,0.0,0.0,0.0,0.0,0.0,0.0,2.6103,2.9112,3.2433,3.4848,3.5516,3.4263,3.278,2.9903,2.5532,0.0,0.0,0.0,0.0,0.0,0.0,0.0,0.0,0.0,0.0,0.0,0.0,0.0,0.0,0.0,0.0,0.0,0.0,0.0,0.0,0.0,0.0,0.0,0.0,0.0,0.0,0.0,0.0,0.0,0.0,0.0,0.0,0.0,0.0,0.0,0.0,0.0,0.0,2.3356,2.4569,0.0,0.0,0.0,0.0,0.0,0.0,0.0,0.0,2.7828,0.0,0.0,0.0,0.0,0.0,0.0,0.0,0.0,0.0,0.0,0.0,0.0,0.0,0.0,0.0,0.0,0.0,0.0,0.0,0.0,0.0,0.0,0.0,0.0,0.0,0.0,0.0,0.0,0.0,0.0,0.0,0.0,0.0,0.0,0.0,0.0,0.0,0.0,0.0,0.0,0.0,0.0,0.0,0.0,0.0,0.0,0.0,0.0,0.0,0.0,0.0,0.0,0.0,0.0,0.0,0.0,2.4428,2.6609,2.9451,3.2987,3.4995,3.5521,3.4545,3.3152,3.0219,2.5743,0.0,0.0,0.0,0.0,0.0,0.0,0.0,0.0,0.0,0.0,0.0,0.0,0.0,0.0,0.0,0.0,0.0,0.0,0.0,0.0,0.0,0.0,0.0,0.0,0.0,0.0,0.0,0.0,0.0,0.0,0.0,0.0,0.0,0.0,0.0,0.0,0.0,0.0,0.0,2.7616,2.8378,0.0,0.0,0.0,0.0,0.0,0.0,0.0,0.0,2.842,0.0,0.0,0.0,0.0,0.0,0.0,0.0,0.0,0.0,0.0,0.0,0.0,0.0,0.0,0.0,0.0,0.0,0.0,0.0,0.0,0.0,0.0,0.0,0.0,0.0,0.0,0.0,0.0,0.0,0.0,0.0,0.0,0.0,0.0,0.0,0.0,0.0,0.0,0.0,0.0,0.0,0.0,0.0,0.0,0.0,0.0,0.0,0.0,0.0,0.0,0.0,0.0,0.0,0.0,0.0,2.5144,2.801,3.0811,3.3485,3.5224,3.5582,3.4469,3.2632,2.9782,0.0,0.0,0.0,0.0,0.0,0.0,0.0,0.0,0.0,0.0,0.0,0.0,0.0,0.0,0.0,0.0,0.0,0.0,0.0,0.0,0.0,0.0,0.0,0.0,0.0,0.0,0.0,0.0,0.0,0.0,0.0,0.0,0.0,0.0,0.0,0.0,0.0,0.0,0.0,0.0,2.8707,2.9303,2.9047,0.0,0.0,0.0,0.0,0.0,0.0,2.9398,2.954,0.0,0.0,0.0,0.0,0.0,0.0,0.0,0.0,0.0,0.0,0.0,0.0,0.0,0.0,0.0,0.0,0.0,0.0,0.0,0.0,0.0,0.0,0.0,0.0,0.0,0.0,0.0,0.0,0.0,0.0,0.0,0.0,0.0,0.0,0.0,0.0,0.0,0.0,0.0,0.0,0.0,0.0,0.0,0.0,0.0,0.0,0.0,0.0,0.0,0.0,0.0,0.0,0.0,0.0,0.0,2.5638,2.8987,3.1842,3.4099,3.5413,3.5485,3.4195,3.1934,2.9143,0.0,0.0,0.0,0.0,0.0,0.0,0.0,0.0,0.0,0.0,0.0,0.0,0.0,0.0,0.0,0.0,0.0,0.0,0.0,0.0,0.0,0.0,0.0,0.0,0.0,0.0,0.0,0.0,0.0,0.0,0.0,0.0,0.0,0.0,0.0,0.0,0.0,0.0,0.0,0.0,0.0,3.0483,3.0222,3.0944,0.0,0.0,0.0,0.0,3.0118,3.086,0.0,0.0,0.0,0.0,0.0,0.0,0.0,0.0,0.0,0.0,0.0,0.0,0.0,0.0,0.0,0.0,0.0,0.0,0.0,0.0,0.0,0.0,0.0,0.0,0.0,0.0,0.0,0.0,0.0,0.0,0.0,0.0,0.0,0.0,0.0,0.0,0.0,0.0,0.0,0.0,0.0,0.0,0.0,0.0,0.0,0.0,0.0,0.0,0.0,0.0,0.0,0.0,0.0,0.0,0.0,0.0,2.5398,2.8304,3.1466,3.4866,3.5446,3.5087,3.3884,3.1627,2.8611,0.0,0.0,0.0,0.0,0.0,0.0,0.0,0.0,0.0,0.0,0.0,0.0,0.0,0.0,0.0,0.0,0.0,0.0,0.0,0.0,0.0,0.0,0.0,0.0,0.0,0.0,0.0,0.0,0.0,0.0,0.0,0.0,0.0,0.0,0.0,0.0,0.0,0.0,0.0,0.0,0.0,3.3411,3.1938,3.3039,3.3368,0.0,0.0,3.2489,3.2489,3.3687,0.0,0.0,0.0,0.0,0.0,0.0,0.0,0.0,0.0,0.0,0.0,0.0,0.0,0.0,0.0,0.0,0.0,0.0,0.0,0.0,0.0,0.0,0.0,0.0,0.0,0.0,0.0,0.0,0.0,0.0,0.0,0.0,0.0,0.0,0.0,0.0,0.0,0.0,0.0,0.0,0.0,0.0,0.0,0.0,0.0,0.0,0.0,0.0,0.0,0.0,0.0,0.0,0.0,0.0,0.0,2.2763,2.5485,2.9056,3.2239,3.4915,3.5474,3.5447,3.4944,3.1003,2.7921,0.0,0.0,0.0,0.0,0.0,0.0,0.0,0.0,0.0,0.0,0.0,0.0,0.0,0.0,0.0,0.0,0.0,0.0,0.0,0.0,0.0,0.0,0.0,0.0,0.0,0.0,0.0,0.0,0.0,0.0,0.0,0.0,0.0,0.0,0.0,0.0,0.0,0.0,0.0,0.0,0.0,0.0,3.2912,3.4109,0.0,0.0,0.0,3.4467,3.481,0.0,0.0,0.0,0.0,0.0,0.0,0.0,0.0,0.0,0.0,0.0,0.0,0.0,0.0,0.0,0.0,0.0,0.0,0.0,0.0,0.0,0.0,0.0,0.0,0.0,0.0,0.0,0.0,0.0,0.0,0.0,0.0,0.0,0.0,0.0,0.0,0.0,0.0,0.0,0.0,0.0,0.0,0.0,0.0,0.0,0.0,0.0,0.0,0.0,0.0,0.0,0.0,0.0,0.0,0.0,0.0,0.0,2.6007,2.9999,3.3168,3.5323,3.5737,3.5837,3.5548,3.0479,0.0,0.0,0.0,0.0,0.0,0.0,0.0,0.0,0.0,0.0,0.0,0.0,0.0,0.0,0.0,0.0,0.0,0.0,0.0,0.0,0.0,0.0,0.0,0.0,0.0,0.0,0.0,2.1643,0.0,0.0,0.0,0.0,0.0,0.0,0.0,0.0,0.0,0.0,0.0,0.0,0.0,0.0,3.4808,3.4003,3.5695,3.6645,0.0,0.0,3.662,3.6729,3.7381,3.7264,0.0,0.0,0.0,0.0,0.0,0.0,0.0,0.0,0.0,0.0,0.0,0.0,0.0,0.0,0.0,0.0,0.0,0.0,0.0,0.0,0.0,0.0,0.0,0.0,0.0,0.0,0.0,0.0,0.0,0.0,0.0,0.0,0.0,0.0,0.0,0.0,0.0,0.0,0.0,0.0,0.0,0.0,0.0,0.0,0.0,0.0,0.0,0.0,0.0,0.0,0.0,0.0,0.0,0.0,0.0,2.73,3.0817,3.3956,3.6628,3.6437,3.5952,3.5189,3.0344,2.7184,0.0,0.0,0.0,0.0,0.0,0.0,0.0,0.0,0.0,0.0,0.0,0.0,0.0,0.0,0.0,0.0,0.0,0.0,0.0,0.0,0.0,0.0,0.0,0.0,0.0,0.0,0.0,0.0,0.0,0.0,0.0,0.0,0.0,0.0,0.0,0.0,0.0,0.0,0.0,0.0,0.0,3.6671,3.5692,3.8425,4.0148,0.0,0.0,3.9307,3.7936,4.0035,4.037,3.5935,0.0,0.0,0.0,0.0,0.0,0.0,0.0,0.0,0.0,0.0,0.0,0.0,0.0,0.0,0.0,0.0,0.0,0.0,0.0,0.0,0.0,0.0,0.0,0.0,0.0,0.0,0.0,0.0,0.0,0.0,0.0,0.0,0.0,0.0,0.0,0.0,0.0,0.0,0.0,0.0,0.0,0.0,0.0,0.0,0.0,0.0,0.0,0.0,0.0,0.0,0.0,0.0,0.0,2.4487,2.6714,3.0287,3.3438,3.6057,3.6284,3.6173,3.5882,3.0571,2.7478,0.0,0.0,0.0,0.0,0.0,0.0,0.0,0.0,0.0,0.0,0.0,0.0,0.0,0.0,0.0,0.0,0.0,0.0,0.0,0.0,0.0,0.0,0.0,0.0,0.0,0.0,0.0,0.0,2.2439,2.3315,2.4692,0.0,0.0,0.0,0.0,0.0,0.0,0.0,0.0,0.0,0.0,3.8274,3.8879,4.0746,0.0,0.0,4.1671,4.1367,4.1171,4.1132,4.039,3.824,3.7318,0.0,0.0,0.0,0.0,0.0,0.0,0.0,0.0,0.0,0.0,0.0,0.0,0.0,0.0,0.0,0.0,0.0,0.0,0.0,0.0,0.0,0.0,0.0,0.0,0.0,0.0,0.0,0.0,0.0,0.0,0.0,0.0,0.0,0.0,0.0,0.0,0.0,0.0,0.0,0.0,0.0,0.0,0.0,0.0,0.0,0.0,0.0,0.0,0.0,0.0,0.0,0.0,2.4977,2.7179,3.0429,3.3455,3.6213,3.626,3.6206,3.5849,3.0797,2.7818,0.0,0.0,0.0,0.0,0.0,0.0,0.0,0.0,0.0,0.0,0.0,0.0,0.0,0.0,0.0,0.0,0.0,0.0,0.0,0.0,0.0,0.0,0.0,0.0,0.0,0.0,0.0,0.0,2.3638,2.4664,2.6025,0.0,0.0,0.0,0.0,0.0,0.0,0.0,0.0,0.0,0.0,3.9872,4.1006,4.2366,4.3372,4.3574,4.307,4.2695,4.2857,4.1986,4.0869,3.954,0.0,0.0,0.0,0.0,0.0,0.0,0.0,0.0,0.0,0.0,0.0,0.0,0.0,0.0,0.0,0.0,0.0,0.0,0.0,0.0,0.0,0.0,0.0,0.0,0.0,0.0,0.0,0.0,0.0,0.0,1.8098,0.0,0.0,0.0,0.0,0.0,0.0,0.0,0.0,0.0,0.0,0.0,0.0,0.0,0.0,0.0,0.0,0.0,0.0,0.0,0.0,0.0,0.0,2.6656,2.9191,3.173,3.4412,3.7117,3.6613,3.5979,3.5195,3.1035,2.812,2.6727,0.0,0.0,0.0,0.0,0.0,0.0,0.0,0.0,0.0,0.0,0.0,0.0,0.0,0.0,0.0,0.0,0.0,0.0,0.0,0.0,0.0,0.0,0.0,0.0,0.0,0.0,2.4441,2.5698,2.6646,0.0,0.0,0.0,0.0,0.0,0.0,0.0,0.0,0.0,0.0,3.9076,4.1364,4.1534,4.3128,4.4234,4.3799,4.357,4.3187,4.232,4.2822,4.2286,0.0,0.0,0.0,0.0,0.0,0.0,0.0,0.0,0.0,0.0,0.0,0.0,0.0,0.0,0.0,0.0,0.0,0.0,0.0,0.0,0.0,0.0,0.0,0.0,0.0,0.0,0.0,1.9697,1.9733,0.0,0.0,0.0,0.0,0.0,0.0,0.0,0.0,0.0,0.0,0.0,2.5608,2.7039,0.0,0.0,0.0,0.0,0.0,0.0,0.0,0.0,0.0,0.0,0.0,0.0,2.7187,2.9902,3.2043,3.4457,3.7182,3.6645,3.6173,3.5882,3.1792,2.8163,2.5334,0.0,0.0,0.0,0.0,0.0,0.0,0.0,0.0,0.0,0.0,0.0,0.0,0.0,0.0,0.0,0.0,0.0,0.0,0.0,0.0,0.0,0.0,0.0,0.0,0.0,2.5109,0.0,0.0,0.0,0.0,0.0,0.0,0.0,0.0,0.0,0.0,0.0,3.631,3.8516,4.1024,4.3041,4.4128,4.504,4.5497,0.0,0.0,0.0,0.0,0.0,0.0,0.0,0.0,0.0,0.0,0.0,0.0,0.0,0.0,4.4384,4.2548,4.2012,4.1859,4.1973,0.0,0.0,0.0,0.0,0.0,0.0,0.0,0.0,0.0,0.0,0.0,0.0,0.0,0.0,0.0,0.0,2.1841,0.0,0.0,0.0,0.0,0.0,0.0,0.0,0.0,2.6468,2.8047,2.8278,2.9671,3.0011,0.0,2.9836,2.846,0.0,0.0,0.0,0.0,0.0,0.0,0.0,0.0,2.8215,3.0397,3.2647,3.4845,3.684,3.6529,3.6063,3.5493,3.1619,2.8163,2.5366,2.4589,2.4232,0.0,0.0,0.0,0.0,0.0,0.0,0.0,0.0,0.0,0.0,0.0,0.0,0.0,0.0,0.0,0.0,0.0,0.0,0.0,0.0,0.0,0.0,0.0,2.7087,0.0,0.0,0.0,0.0,0.0,0.0,0.0,0.0,0.0,3.4717,3.6318,3.8346,4.09,4.2667,4.4202,4.5677,0.0,0.0,0.0,0.0,0.0,0.0,0.0,4.5384,4.5775,4.5785,4.5822,4.6286,4.7325,4.7905,4.722,0.0,0.0,4.427,4.3733,4.3619,4.3316,4.3966,4.4573,4.4573,4.5445,4.6285,0.0,0.0,0.0,0.0,0.0,0.0,0.0,0.0,2.3054,2.3823,0.0,2.3615,0.0,0.0,0.0,0.0,0.0,2.43,0.0,0.0,2.9189,3.0793,3.0391,3.1826,3.218,3.1657,3.3488,3.2687,2.9458,2.6673,0.0,0.0,0.0,0.0,0.0,0.0,2.9734,3.0841,3.3709,3.5603,3.64,3.6322,3.5577,3.4068,3.0744,2.8249,2.6856,2.6092,2.5639,2.5629,2.5639,0.0,0.0,0.0,0.0,0.0,0.0,0.0,0.0,0.0,0.0,0.0,0.0,0.0,0.0,0.0,0.0,0.0,0.0,0.0,0.0,2.9403,0.0,0.0,0.0,0.0,0.0,0.0,0.0,0.0,0.0,0.0,3.7327,3.8792,4.0679,4.3008,0.0,0.0,0.0,0.0,4.5552,4.7054,4.726,4.7785,4.9168,4.9521,4.9306,4.8513,0.0,0.0,4.7757,4.8932,4.9696,4.8938,4.9393,4.9166,4.6702,4.6285,4.6057,4.5331,4.583,4.6285,4.6474,4.7611,4.8831,2.7537,0.0,0.0,0.0,0.0,2.5237,2.6121,2.7349,2.7429,2.724,2.6846,2.6509,0.0,0.0,0.0,0.0,0.0,0.0,2.7447,2.8641,3.1241,3.2808,3.3472,3.4744,3.4968,3.4351,3.4573,3.381,3.2115,3.0979,2.9132,2.6716,0.0,0.0,0.0,0.0,3.1326,3.3559,3.5181,3.6594,3.776,3.6821,3.5364,3.3433,3.1401,2.9891,2.9005,2.7753,2.6869,2.6426,2.6361,0.0,0.0,0.0,0.0,0.0,0.0,0.0,0.0,0.0,0.0,0.0,0.0,0.0,0.0,0.0,0.0,0.0,0.0,0.0,2.9508,3.0043,3.0841,0.0,0.0,0.0,0.0,0.0,0.0,0.0,0.0,0.0,4.1249,4.188,4.2913,0.0,0.0,4.6649,4.6992,4.7346,4.775,4.821,4.8771,0.0,0.0,4.8971,4.8885,4.8651,4.9631,5.0789,5.1736,5.1767,5.1426,5.0637,5.0668,5.022,4.8483,4.8483,4.8711,4.8559,4.8673,4.909,4.9652,4.9728,4.981,3.2909,3.0038,2.8371,2.782,2.8136,2.8245,2.9047,3.0313,3.0211,3.0091,2.9892,2.9424,2.7833,2.5516,2.5304,0.0,0.0,0.0,2.9333,3.0922,3.2609,3.4016,3.5163,3.609,3.6307,3.5891,3.5746,3.5156,3.4272,3.4268,3.2997,3.0567,0.0,0.0,2.9789,3.1166,3.2878,3.491,3.6106,3.7112,3.7908,3.6594,3.4975,3.3141,3.1951,3.1013,3.0323,2.8897,2.7948,2.7527,2.7235,2.6782,0.0,0.0,0.0,0.0,0.0,0.0,0.0,0.0,0.0,0.0,0.0,2.787,2.7642,0.0,0.0,0.0,3.0186,3.1133,3.199,3.2248,0.0,0.0,0.0,0.0,0.0,0.0,0.0,3.8326,3.9499,4.1254,4.4029,4.4751,4.5542,4.6906,4.7269,4.7536,4.7877,0.0,4.8408,4.909,4.9589,4.9962,5.0144,5.0182,5.0151,5.0189,5.0978,5.1957,5.2942,5.2753,5.226,5.1805,5.1691,5.135,5.0334,5.0561,5.053,4.9658,4.9696,5.0075,5.0599,5.0523,5.0751,3.7737,3.6805,3.2883,3.1227,3.1154,3.137,3.1752,3.2142,3.1887,3.237,3.3213,3.2145,3.0943,2.9711,2.8276,0.0,2.9628,3.0171,3.1199,3.2596,3.3712,3.479,3.5844,3.6334,3.6538,3.6492,3.6831,3.6656,3.606,3.6564,3.6236,3.4976,3.304,3.1706,3.1089,3.2994,3.4446,3.5377,3.671,3.7358,3.7279,3.5979,3.4631,3.3238,3.2352,3.1563,3.0807,2.9502,2.8778,2.8703,2.8109,2.7494,2.6847,0.0,0.0,0.0,0.0,0.0,0.0,0.0,0.0,0.0,0.0,0.0,0.0,0.0,0.0,0.0,3.1899,0.0,3.507,3.5177,0.0,0.0,0.0,3.5757,3.6658,3.7434,3.8487,4.0032,0.0,0.0,4.5791,4.7164,4.8091,4.8406,4.7947,4.7902,4.8787,4.8294,4.8256,4.981,5.0075,5.0644,5.1767,5.1919,5.1812,5.1812,5.2222,5.2108,5.226,5.2298,5.2298,5.2215,5.2298,5.2184,5.2184,5.1964,5.1502,4.9242,4.9583,5.0189,5.0455,5.0903,5.1729,3.9416,3.8383,3.7337,3.6358,3.5502,3.5532,3.5125,3.4443,3.4337,3.3934,3.328,3.2999,3.2688,3.2336,3.1533,3.1835,3.3007,3.3174,3.4109,3.5673,3.6004,3.6443,3.7054,3.7182,3.6999,3.6538,3.6847,3.7027,3.7046,3.7442,3.7341,3.6698,3.6196,3.5337,3.4199,3.5188,3.6088,3.6807,3.7681,3.7876,3.7293,3.6465,3.5331,3.3874,3.2113,3.0818,3.0172,2.9286,2.8541,2.8002,2.8347,2.8207,2.7516,2.7614,0.0,0.0,0.0,0.0,0.0,0.0,0.0,0.0,0.0,3.043,3.013,0.0,3.328,0.0,3.3018,3.4187,3.5106,3.5177,0.0,0.0,3.7015,3.78,3.9753,4.0146,4.1004,4.2812,4.3675,4.4849,4.6718,4.7561,4.8237,4.8907,4.9085,4.9528,5.042,5.0441,5.041,5.0782,5.1312,5.1729,5.1464,5.0903,5.0568,5.0492,5.0492,5.0713,5.1388,5.1464,5.1464,5.1464,5.1464,5.1237,5.0682,5.0492,5.0341,4.9848,5.0789,5.1995,5.2646,5.2411,5.2411,4.0547,3.9697,3.9416,3.8882,3.8179,3.7363,3.6773,3.636,3.5817,3.5199,3.4534,3.4253,3.4158,3.4112,3.3793,3.4,3.4636,3.489,3.5654,3.6792,3.7082,3.7315,3.7523,3.7492,3.7153,3.6538,3.6953,3.727,3.7417,3.7903,3.8012,3.7778,3.7778,3.7404,3.6672,3.6724,3.7099,3.7778,3.8181,3.8051,3.7325,3.6645,3.5914,3.5072,3.2708,3.1369,3.1306,2.9999,2.9102,2.8703,2.9175,2.917,2.8552,2.8956,2.9109,0.0,0.0,0.0,0.0,0.0,0.0,0.0,0.0,0.0,0.0,0.0,3.4415,3.3651,3.486,3.5971,3.6747,3.7104,3.7639,3.854,3.8611,3.9406,4.1441,4.1645,4.2511,4.475,4.5275,4.6046,4.7555,4.823,4.8872,4.9731,4.977,4.9879,5.0412,5.0596,5.0637,5.0637,5.1016,5.1168,5.0675,5.0227,4.9893,4.9893,4.9893,5.0075,5.0523,5.0599,5.0637,5.0599,5.0637,5.0492,5.0,4.9893,4.9893,5.0044,5.0644,5.1547,5.2419,5.2222,5.2184,4.125,4.0631,4.0062,3.9732,3.9556,3.7841,3.7392,3.7709,3.6661,3.6155,3.6089,3.5611,3.5442,3.5442,3.5414,3.5414,3.5451,3.5983,3.6525,3.7075,3.7648,3.7889,3.7753,3.7769,3.7369,3.6661,3.726,3.7465,3.7417,3.8076,3.8408,3.8408,3.8408,3.8408,3.8375,3.7746,3.7746,3.8375,3.8408,3.8116,3.7455,3.671,3.6238,3.5914,3.3311,3.2084,3.2532,3.0823,2.9838,2.9903,3.0192,3.0145,2.9755,3.0681,3.1051,0.0,3.1345,0.0,0.0,0.0,0.0,0.0,0.0,0.0,0.0,3.4445,3.4642,3.5605,3.6827,3.7943,3.8852,3.953,3.9958,4.0029,4.0055,4.0707,4.2323,4.2583,4.3596,4.621,4.6785,4.7326,4.8301,4.889,4.95,5.0177,4.9958,4.9701,4.9752,4.9872,4.9962,4.9893,4.9893,5.0075,5.0,4.9931,4.9893,4.9893,4.9893,4.9893,4.9931,4.9931,4.9931,4.9931,4.9962,4.9931,4.9893,4.9893,4.9893,4.9893,5.0113,5.0486,5.1161,5.1464,5.1881,4.125,4.0631,4.0062,3.95,3.9015,3.8123,3.7512,3.7167,3.6922,3.6548,3.6126,3.6492,3.6661,3.6661,3.6661,3.6661,3.6699,3.7263,3.7862,3.845,3.9026,3.9239,3.9121,3.9138,3.8491,3.7417,3.7934,3.7924,3.7417,3.8076,3.8408,3.8408,3.8408,3.8408,3.8408,0.0,0.0,0.0,3.8408,3.8343,3.8149,3.6937,3.572,3.4522,3.2308,0.0,3.0039,2.9611,2.9557,2.9842,3.0359,0.0,0.0,0.0,0.0,0.0,0.0,0.0,0.0,0.0,0.0,0.0,3.5936,3.5616,3.5154,3.5036,3.5855,3.7889,3.78,3.8148,3.9565,3.9815,4.0172,4.0788,4.086,4.1752,4.3847,4.4143,4.5057,4.7367,4.7716,4.8036,4.8677,4.8899,4.9093,4.9471,4.9473,4.9544,4.9678,4.9828,4.9886,4.9893,4.9893,4.9893,4.9893,4.9893,4.9893,4.9893,4.9893,4.9893,4.9893,4.9893,4.9893,4.9893,4.9893,4.9893,4.9893,4.9893,4.9893,4.9893,5.0455,5.1009,5.1199,5.1729,5.2487,4.125,0.0,4.0062,3.9613,0.0,3.8299,3.7737,3.7428,3.7139,3.6829,3.6576,3.6857,3.6978,3.6978,3.6978,3.7173,3.7481,3.806,3.8686,3.9271,3.9826,3.9877,3.949,3.949,3.9083,3.8289,3.8701,3.8869,3.8717,3.9178,3.9458,3.9444,3.9102,3.894,3.894,3.857,3.8408,3.8408,3.8408,3.8408,3.8375,3.7325,3.6451,3.5655,0.0,0.0,0.0,0.0,0.0,0.0,0.0,0.0,0.0,0.0,0.0,3.3754,3.4426,3.5021,3.5437,3.567,3.6149,3.6943,3.7372,3.7255,3.6435,3.7068,3.7879,3.8709,3.9111,3.9646,4.0386,4.086,4.1252,4.1655,4.1691,4.2465,4.4225,4.4757,4.5683,4.7547,4.8131,4.8364,4.8829,4.8976,4.9098,4.9197,4.9305,4.9468,4.967,4.9828,4.9893,4.9893,4.9893,4.9893,4.9893,4.9893,4.9893,4.9893,4.9893,4.9893,4.9893,4.9893,4.9893,4.9893,4.9893,4.9893,4.9893,4.9893,4.9893,4.9924,5.0265,5.0713,5.1123,5.2184,5.329,4.1078,4.0659,4.0062,3.9809,3.9697,3.844,3.7821,3.7709,0.0,0.0,0.0,3.6978,3.6978,3.6978,3.6978,3.7347,3.791,3.8538,3.9126,3.9732,4.0231,4.0197,3.9691,3.9661,3.9473,3.9133,3.9503,3.9754,3.9921,4.0301,4.0513,4.0448,3.9944,3.9685,3.9635,3.8973,3.8634,3.8764,3.8537,3.8408,3.8375,3.7681,3.7247,3.7117,3.4748,3.3462,3.3433,3.1663,3.1101,3.2096,3.2337,3.291,3.3978,3.4606,3.501,3.5155,3.5589,3.6105,3.6792,3.6934,3.7291,3.7943,3.8754,3.8861,3.8085,3.9173,3.9708,3.9244,4.036,4.1145,4.1298,4.1895,4.2297,4.2297,4.2297,4.2894,4.4368,4.4879,4.5832,4.7607,4.8212,4.8514,4.8847,4.9047,4.9173,4.9214,4.9273,4.943,4.9596,4.9769,4.9893,4.9893,4.9893,4.9893,4.9893,4.9893,4.9893,4.9893,4.9893,4.9893,4.9893,4.9893,4.9893,4.9893,4.9893,4.9893,4.9893,4.9893,4.9893,4.9893,5.0189,5.0561,5.135,5.2753,5.4003,4.0427,4.0631,4.0041,3.9809,3.9676,3.844,3.7616,3.7119,3.7054,3.6978,3.6978,3.6978,3.6978,3.6978,3.6978,3.7327,3.7938,3.8538,3.9126,0.0,4.0231,4.0461,4.0351,4.0351,4.0016,3.9501,4.0065,4.0072,3.9691,4.0227,4.0513,4.0513,4.0398,4.0366,4.0301,3.9685,3.962,4.0156,3.8991,3.8408,3.8375,3.7681,3.7034,3.6465,3.5474,3.4926,3.4893,3.3972,3.386,3.4621,3.4288,3.4245,3.4586,3.545,3.5988,3.623,3.7523,3.8352,3.8459,3.903,3.9458,3.9601,4.0315,4.0422,3.9672,3.9779,4.0136,4.0681,4.1002,4.1405,4.2012,4.2226,4.2297,4.2297,4.2297,4.2894,4.4392,4.4854,4.577,4.768,4.8221,4.8523,4.8829,4.8916,4.9002,4.9164,4.9238,4.9273,4.9446,4.9705,4.9872,4.9893,4.9893,4.9893,4.9893,4.9893,4.9893,4.9893,4.9893,4.9893,4.9893,4.9893,4.9893,4.9893,4.9893,4.9893,4.9893,4.9893,4.9893,4.9962,5.0834,5.1843,5.2108,5.3473,5.4496,4.0802,4.0688,4.0407,4.0266,4.0203,3.8966,3.7898,3.7026,3.6978,3.6978,3.6978,3.6978,3.6978,3.6978,3.6978,3.7519,3.8408,3.8705,3.9289,4.0108,4.0401,4.0505,4.0522,4.0715,4.0764,4.0653,4.1131,4.1279,4.1229,4.1508,4.1646,4.1598,4.129,4.0916,4.0495,4.0204,4.0204,4.0448,3.912,3.8616,3.8973,3.8278,3.7552,3.684,3.6378,3.5921,3.5551,3.5066,3.5228,3.6141,3.594,3.617,3.6991,3.7561,3.7945,3.8157,3.8937,3.9387,3.9387,3.9698,4.0101,4.0529,4.0895,4.1145,4.1217,4.1181,4.1359,4.1726,4.1752,4.1905,4.2262,4.2297,4.2297,4.2297,4.2297,4.2761,4.3782,4.4315,4.5236,4.6987,4.7626,4.8061,4.8818,4.889,4.8907,4.9056,4.9131,4.9201,4.9311,4.9484,4.9669,4.9755,4.9831,4.9886,4.9893,4.9893,4.9893,4.9893,4.9893,4.9893,4.9893,4.9893,4.9893,4.9893,4.9893,4.9893,4.9893,4.9893,4.9893,5.0006,5.0827,5.1729,5.2411,5.3745,5.4655,4.1163,4.0716,4.0716,4.0631,4.0378,3.936,3.8235,3.7251,3.7054,3.6978,3.6978,3.6978,3.6978,3.6978,3.6978,3.7672,3.8675,3.8786,3.9415,4.0436,4.0505,4.0505,4.0539,4.0817,4.1088,4.1373,4.1703,4.2045,4.2333,4.2444,4.2556,4.2538,4.2067,4.1564,4.0998,4.0804,4.0804,4.0869,3.9573,3.912,3.9685,3.9037,3.8375,3.7806,3.7417,3.6998,3.6554,3.6158,3.6451,3.7376,3.741,3.7907,3.8977,3.9287,3.9514,3.965,3.9977,4.0243,4.0422,4.0422,4.0707,4.1324,4.1359,4.1655,4.219,4.2297,4.2297,4.2297,4.2262,4.2262,4.2297,4.2297,4.2297,4.2297,4.2297,4.2751,4.3593,4.4037,4.4943,4.6627,4.7295,4.7941,4.8556,4.8847,4.889,4.8916,4.9056,4.914,4.9127,4.9249,4.9407,4.9544,4.9757,4.9883,4.9879,4.9893,4.9893,4.9893,4.9893,4.9893,4.9893,4.9893,4.9893,4.9893,4.9893,4.9893,4.9931,5.0113,5.0227,5.0379,5.1244,5.2146,5.3018,5.4003,5.4882,4.0856,4.0722,4.0716,4.0378,3.9837,3.9191,3.8488,3.7793,3.7251,3.6978,3.7082,3.6978,3.7007,3.6978,3.6978,3.7672,3.873,3.8786,3.9433,4.0436,4.0505,4.0505,4.0505,4.0543,4.0574,4.0698,4.1072,4.1489,4.1818,4.2045,4.2302,4.2587,4.2522,4.2457,4.2343,4.1823,4.1791,4.236,4.1031,4.0318,4.0366,3.975,3.9361,3.9311,3.8626,3.8432,3.8552,3.8045,3.8036,3.8788,3.8688,3.879,3.927,3.9671,3.9864,3.9919,4.059,4.1288,4.1976,4.2083,4.2047,4.219,4.2155,4.219,4.2297,4.2297,4.2297,4.2297,4.2297,4.2297,4.2297,4.2297,4.2333,4.2404,4.2369,4.2858,4.4175,4.4782,4.5621,4.7247,4.7753,4.8347,4.8449,4.8732,4.8881,4.889,4.8916,4.895,4.8959,4.9115,4.9209,4.9319,4.9521,4.9757,4.9831,4.9893,4.9893,4.9893,4.9893,4.9893,4.9893,4.9893,4.9893,4.9893,4.9893,4.9893,5.0075,5.0486,5.0933,5.0903,5.1926,5.3548,5.4389,5.4769,5.492,4.1123,4.0807,4.0727,4.035,3.9781,3.9528,3.9099,3.8488,3.8255,3.8143,3.8123,3.8143,3.7721,3.7007,3.6978,3.7672,3.8778,3.8786,3.9403,4.0453,4.0505,4.0505,4.0539,4.0763,4.0936,4.1173,4.1522,4.1867,4.2158,4.2333,4.246,4.2603,4.2619,4.2813,4.3152,4.2537,4.2537,4.3185,4.2246,4.1728,4.1614,4.0657,3.9912,3.9585,3.9787,3.964,3.9152,3.9561,3.9889,3.9834,3.9914,4.0214,4.0659,4.0828,4.1013,4.1293,4.1609,4.194,4.2262,4.2297,4.2297,4.2297,4.2297,4.2297,4.2297,4.2297,4.2297,4.2297,4.2297,4.2297,4.2297,4.2297,4.2465,4.2894,4.3001,4.3418,4.4453,4.4725,4.5351,4.658,4.7183,4.7754,4.8292,4.8705,4.8864,4.889,4.889,4.889,4.889,4.8996,4.9081,4.9197,4.9343,4.9484,4.9743,4.9876,4.9872,4.9893,4.9893,4.9893,4.9893,4.9893,4.9893,4.9893,4.9893,4.9893,4.9893,5.0075,5.0448,5.0865,5.1812,5.3283,5.4609,5.4875,5.492,4.1107,4.0697,4.069,4.0435,4.0034,3.9866,3.9556,3.9135,3.8986,3.893,3.893,3.893,3.8476,3.7844,3.7779,3.8361,3.9271,3.9513,4.0118,4.1006,4.1076,4.1076,4.1111,4.1355,4.1647,4.1855,4.2105,4.2471,4.2848,4.3025,4.3105,4.3185,4.3217,4.3444,4.3864,4.3444,4.3476,4.3913,4.3444,4.3201,4.3088,4.2197,4.1175,4.0248,4.0758,4.0626,3.9712,4.0802,4.1214,4.064,4.0952,4.1243,4.1471,4.1615,4.1877,4.2246,4.2297,4.2297,4.2297,4.2297,4.2297,4.2297,4.2297,4.2297,4.2297,4.2297,4.2297,4.2308,4.2476,4.2573,4.2333,4.2476,4.2894,4.3454,4.3668,4.4096,4.4835,4.4917,4.5426,4.6425,4.7092,4.7475,4.832,4.8759,4.889,4.889,4.889,4.889,4.889,4.8899,4.895,4.9077,4.9135,4.9321,4.9634,4.9778,4.9869,4.9886,4.9893,4.9893,4.9893,4.9893,4.9893,4.9893,4.9893,4.9931,4.9969,5.0,5.0417,5.0796,5.1774,5.3056,5.4238,5.4655,5.4875,4.0598,4.0166,4.0522,4.0659,4.0603,4.009,3.9788,3.9725,3.9191,3.8958,3.8994,3.8986,3.9199,3.9607,3.9627,4.0012,4.0633,4.1145,4.1753,4.235,4.2417,4.2461,4.2491,4.2509,4.2533,4.2504,4.2545,4.2931,4.3622,4.3943,4.431,4.4609,4.4561,4.4658,4.4723,4.4625,4.469,4.4707,4.4593,4.4625,4.4625,4.4528,4.3476,4.1772,4.1344,4.1233,4.1059,4.1574,4.1674,4.1363,4.1514,4.1536,4.1313,4.1646,4.198,4.2246,4.2297,4.2297,4.2297,4.2297,4.2297,4.2297,4.2297,4.2297,4.2297,4.2369,4.2404,4.2333,4.3036,4.3179,4.2654,4.3108,4.349,4.3668,4.4203,4.4881,4.5677,4.5749,4.6272,4.7151,4.7596,4.8063,4.875,4.8873,4.889,4.889,4.889,4.889,4.889,4.889,4.8899,4.8988,4.9077,4.9335,4.9619,4.9728,4.9792,4.9817,4.9859,4.9893,4.9893,4.9893,4.9893,4.9893,4.9893,4.9969,5.0082,5.0492,5.1206,5.1774,5.2494,5.3548,5.42,5.4534,5.4799,4.073,4.0479,4.0651,4.0716,4.0688,4.0463,4.0378,4.0322,4.0175,4.0041,4.0041,4.0062,4.0189,4.0411,4.1247,4.1499,4.1365,4.1599,4.2021,4.2547,4.2602,4.2602,4.2602,4.2602,4.2747,4.2895,4.29,4.329,4.3984,4.4405,4.4655,4.4771,4.4787,4.4982,4.5273,4.4982,4.4998,4.5338,4.5046,4.4787,4.482,4.4787,4.4415,4.3718,4.3082,4.2165,4.0779,4.1624,4.1752,4.0981,4.1265,4.1376,4.1244,4.1657,4.1927,4.2033,4.2215,4.2297,4.2297,4.2297,4.2297,4.2297,4.2297,4.2333,4.2404,4.2751,4.3072,4.3215,4.375,4.3989,4.3918,4.4061,4.4417,4.4892,4.5213,4.5677,4.632,4.6569,4.6733,4.7185,4.7652,4.817,4.8541,4.8767,4.8881,4.889,4.889,4.889,4.889,4.889,4.889,4.8916,4.9052,4.9287,4.9453,4.9641,4.9728,4.9785,4.9835,4.9866,4.9893,4.9893,4.9893,4.9893,4.9893,4.9931,5.0006,5.0075,5.0978,5.2032,5.2828,5.3435,5.4276,5.4617,5.4806,4.0818,4.0701,4.0716,4.0716,4.0716,4.0716,4.0716,4.0716,4.0716,4.0716,4.0716,4.0716,4.0923,4.143,4.2252,4.2693,4.2633,4.2659,4.2846,4.3199,4.3248,4.3248,4.3248,4.3248,4.3377,4.3565,4.357,4.4006,4.4746,4.4901,4.5141,4.5588,4.5412,4.5544,4.5969,4.5711,4.5726,4.5986,4.5694,4.5484,4.5484,4.5467,4.5355,4.5063,4.4431,4.3472,4.2035,4.2888,4.2902,4.203,4.1924,4.1724,4.1417,4.1624,4.1863,4.2048,4.2205,4.2297,4.2333,4.2547,4.269,4.2715,4.2929,4.3036,4.3072,4.3561,4.3811,4.4025,4.456,4.4988,4.506,4.5202,4.5488,4.582,4.6034,4.6391,4.6902,4.6973,4.7098,4.7385,4.7813,4.8221,4.8504,4.8767,4.8864,4.889,4.889,4.889,4.889,4.889,4.889,4.8899,4.8985,4.9094,4.9249,4.9437,4.9699,4.983,4.9848,4.9866,4.9931,4.9931,4.9931,4.9931,4.9893,4.9893,4.9893,4.9931,5.0682,5.1843,5.2449,5.3018,5.3814,5.4655,5.4806,4.0835,4.0722,4.0716,4.0716,4.0716,4.0716,4.0716,4.0716,4.0716,4.0716,4.0716,4.0716,4.1325,4.2363,4.2508,4.324,4.4083,4.4243,4.43,4.4406,4.4437,4.4437,4.4406,4.4375,4.4456,4.4555,4.4617,4.5165,4.6028,4.5764,4.6081,4.6929,4.6678,4.6647,4.6925,4.691,4.6845,4.6877,4.6748,4.678,4.6877,4.6748,4.6424,4.5824,4.5258,4.4981,4.4987,4.5279,4.4836,4.407,4.3416,4.2677,4.1845,4.1781,4.1907,4.2345,4.2374,4.2358,4.2511,4.3108,4.349,4.3561,4.4121,4.4346,4.431,4.4489,4.4596,4.4738,4.532,4.582,4.5927,4.6355,4.6534,4.607,4.6462,4.689,4.6973,4.7009,4.722,4.7747,4.8094,4.8486,4.8767,4.8864,4.8881,4.889,4.889,4.889,4.889,4.889,4.889,4.8964,4.9219,4.9425,4.9289,4.923,4.9604,4.9858,4.9876,4.9893,5.0,5.0038,5.0075,5.0038,4.9893,4.9931,5.0303,5.0379,5.0675,5.1578,5.207,5.2904,5.3852,5.4693,5.4806,4.1119,4.0716,4.0716,4.0716,4.0716,4.0716,4.0716,4.0716,4.0716,4.0716,4.0716,4.0716,4.1198,4.1943,4.2386,4.3071,4.3907,4.4362,4.4591,4.4591,4.4591,4.4591,4.4591,4.4591,4.4837,4.5264,4.5587,4.61,4.679,4.7183,4.7662,4.796,4.8106,4.8207,4.8217,4.7896,4.767,4.7605,4.7169,4.691,4.691,4.691,4.678,4.662,4.6697,4.6764,4.655,4.499,4.4044,4.3862,4.3615,4.3241,4.2814,4.2822,4.3069,4.3378,4.3603,4.3732,4.3861,4.4086,4.4275,4.431,4.4524,4.4549,4.4667,4.5131,4.5416,4.5499,4.6141,4.6616,4.6688,4.683,4.6866,4.6641,4.6866,4.7009,4.7009,4.7009,4.7064,4.7309,4.7809,4.8161,4.8354,4.8578,4.8881,4.889,4.889,4.889,4.8919,4.8993,4.9187,4.9596,4.9786,5.0033,5.0196,5.0326,5.0504,5.0515,5.0397,5.0244,5.0258,5.0492,5.0455,5.0379,5.0189,5.0265,5.0637,5.0903,5.1237,5.1843,5.2715,5.3518,5.4314,5.4693,5.4844,4.1411,4.1025,4.08,4.0716,4.0716,4.0716,4.0716,4.0716,4.0716,4.0716,4.0716,4.0716,4.122,4.1964,4.2426,4.314,4.3946,4.4419,4.4745,4.4868,4.4683,4.4591,4.4671,4.4899,4.5176,4.5615,4.6106,4.6687,4.7328,4.7608,4.7902,4.8295,4.8499,4.8597,4.8744,4.8551,4.8364,4.8299,4.7929,4.767,4.7637,4.741,4.7298,4.7301,4.7104,4.7029,4.6853,4.511,4.4293,4.4517,4.4202,4.37,4.3388,4.3433,4.3602,4.3898,4.413,4.4309,4.4525,4.478,4.506,4.5095,4.5309,4.5488,4.5559,4.6034,4.6248,4.6355,4.6676,4.7009,4.6973,4.7009,4.7009,4.7009,4.6973,4.7009,4.7009,4.7009,4.71,4.7287,4.7694,4.7992,4.8248,4.8523,4.8873,4.889,4.889,4.9104,4.9216,4.9364,4.9847,5.0311,5.0615,5.0929,5.1317,5.1447,5.1495,5.1289,5.1021,5.0828,5.0723,5.1268,5.1502,5.1395,5.1244,5.1319,5.1623,5.1616,5.1881,5.2677,5.3328,5.3897,5.4465,5.4731,5.492,4.1775,4.1593,4.1053,4.0856,4.08,4.08,4.0772,4.0716,4.0716,4.0716,4.0716,4.0929,4.1579,4.2474,4.2867,4.3618,4.4542,4.4707,4.5114,4.5391,4.5176,4.4899,4.4991,4.5453,4.5761,4.5976,4.6458,4.7044,4.77,4.7378,4.7243,4.8278,4.8299,4.8212,4.8733,4.8923,4.9022,4.9076,4.8947,4.885,4.8817,4.8267,4.7961,4.7896,4.685,4.6437,4.6666,4.6161,4.598,4.6316,4.5193,4.444,4.3918,4.3713,4.3995,4.4353,4.4389,4.4586,4.4747,4.5412,4.5856,4.5927,4.6391,4.7009,4.6783,4.6748,4.683,4.6866,4.6973,4.7009,4.7009,4.7009,4.7009,4.7009,4.7009,4.7009,4.7009,4.7009,4.7111,4.7374,4.7757,4.8128,4.8435,4.8808,4.9069,4.9253,4.9299,4.9661,4.9959,5.0293,5.0636,5.1026,5.1453,5.1805,5.2214,5.2371,5.2344,5.2048,5.1866,5.1752,5.1409,5.1838,5.2639,5.2487,5.2191,5.2336,5.2449,5.2487,5.2677,5.3215,5.3745,5.4162,5.4465,5.4806,5.5148,4.2374,4.234,4.2171,4.1834,4.1418,4.134,4.1109,4.0744,4.0744,4.08,4.0907,4.1746,4.2576,4.3387,4.3867,4.4799,4.5605,4.5515,4.568,4.6234,4.6172,4.6049,4.61,4.6254,4.6592,4.7004,4.7219,4.766,4.8317,4.8366,4.862,4.8979,4.9138,4.9506,4.986,4.9512,4.9563,4.9687,4.9238,4.9076,4.8979,4.8397,4.8008,4.7946,4.748,4.7424,4.7876,4.7936,4.7471,4.6809,4.6351,4.6243,4.6345,4.5943,4.5762,4.6019,4.6282,4.6316,4.613,4.6386,4.6665,4.6676,4.6926,4.7009,4.7009,4.7009,4.7009,4.7009,4.7009,4.7009,4.7009,4.7045,4.7045,4.7009,4.7152,4.7116,4.7045,4.7009,4.7054,4.719,4.7725,4.83,4.8952,4.9482,5.0015,5.0442,5.0599,5.0711,5.0924,5.1073,5.1342,5.1936,5.2354,5.2717,5.2995,5.3163,5.3144,5.284,5.2764,5.2936,5.2476,5.2272,5.3201,5.3821,5.3018,5.2866,5.3177,5.3366,5.3669,5.3859,5.42,5.4579,5.4693,5.492,5.5375,4.2754,4.2935,4.2705,4.2374,4.2036,4.2036,4.1812,4.1531,4.1474,4.1306,4.143,4.2489,4.3113,4.3319,4.4198,4.5171,4.6041,4.5792,4.6161,4.6973,4.7311,4.7096,4.6788,4.685,4.725,4.7588,4.7896,4.8235,4.8563,4.8903,4.9006,4.9056,4.9421,4.984,5.0119,5.0096,5.0139,5.0413,5.0131,4.9936,4.9872,4.9238,4.8947,4.8774,4.8522,4.8377,4.8529,4.8588,4.8279,4.7723,4.734,4.7272,4.7617,4.7307,4.7161,4.7266,4.7239,4.7031,4.701,4.7169,4.7393,4.7486,4.7509,4.7509,4.7437,4.7223,4.7009,4.7009,4.7009,4.7009,4.7045,4.7294,4.7616,4.7961,4.7961,4.7854,4.758,4.7818,4.7925,4.81,4.8438,4.8987,4.9633,5.0169,5.0704,5.1148,5.1231,5.1491,5.1788,5.1899,5.2122,5.2679,5.3014,5.3274,5.3385,5.3516,5.3562,5.3283,5.3289,5.3562,5.3374,5.2929,5.3634,5.4216,5.3739,5.3503,5.3837,5.4109,5.4276,5.4496,5.4769,5.4882,5.4958,5.5413,5.5792,4.3194,4.3577,4.3076,4.2818,4.2733,4.2705,4.2593,4.2565,4.248,4.2266,4.2204,4.3163,4.3566,4.3016,4.4569,4.525,4.5926,4.6049,4.6696,4.7558,4.8081,4.7927,4.7157,4.7496,4.7711,4.7865,4.8358,4.8635,4.8758,4.8748,4.8696,4.8882,4.9181,4.9461,4.992,5.0221,5.0679,5.1046,5.1024,5.0927,5.0797,5.026,4.9839,4.9746,4.9485,4.9127,4.9077,4.9035,4.9055,4.9195,4.8307,4.7962,4.7962,4.7962,4.7824,4.7824,4.7632,4.7478,4.7404,4.7703,4.7948,4.8105,4.82,4.8259,4.8116,4.7783,4.7497,4.7533,4.7259,4.7426,4.7533,4.7937,4.8472,4.8948,4.9198,4.9103,4.8758,4.896,4.9293,4.9317,4.9563,4.9962,5.0376,5.0727,5.1045,5.1824,5.1941,5.2222,5.2492,5.266,5.2939,5.3423,5.3608,5.372,5.3757,5.3757,5.3757,5.3665,5.3693,5.3849,5.3973,5.3871,5.4237,5.4371,5.4064,5.4088,5.4428,5.4671,5.4784,5.4958,5.5072,5.511,5.5178,5.5943,5.652,4.4532,4.4228,4.457,4.4172,4.3385,4.3324,4.3048,4.2649,4.2649,4.2832,4.3256,4.4021,4.4554,4.4888,4.5687,4.6565,4.7034,4.7127,4.763,4.8276,4.8491,4.8491,4.8122,4.8276,4.8337,4.8419,4.8491,4.8912,4.9189,4.9004,4.8912,4.9385,4.915,4.9138,4.9832,5.0062,5.0409,5.1035,5.1186,5.1218,5.1089,5.0552,5.0163,5.0172,5.0171,5.0258,5.0409,5.0984,5.139,5.1006,4.9789,4.8996,4.9238,4.8893,4.8651,4.857,4.8661,4.8435,4.8124,4.8185,4.8377,4.8504,4.8691,4.8728,4.8753,4.8781,4.8722,4.8806,4.8806,4.8663,4.8734,4.8913,4.9234,4.9519,4.9912,5.0209,4.9995,4.9626,4.9483,4.9484,4.9708,5.0114,5.0853,5.1166,5.1636,5.2312,5.2673,5.2947,5.3114,5.3279,5.3514,5.3794,5.3794,5.3794,5.3794,5.3794,5.3794,5.3943,5.4056,5.3963,5.4092,5.4321,5.4516,5.4577,5.4503,5.4613,5.4722,5.4807,5.4807,5.5087,5.5451,5.564,5.5981,5.6671,5.7202,4.5384,4.4851,4.516,4.4766,4.4003,4.3919,4.375,4.3492,4.3441,4.3449,4.384,4.4865,4.5378,4.5263,4.6448,4.7291,4.7619,4.7937,4.8214,4.8553,4.8583,4.8583,4.8583,4.8583,4.8583,4.8666,4.9004,4.9343,4.9549,4.962,4.9651,4.9733,4.9558,4.9574,4.975,5.0096,5.05,5.082,5.1092,5.1218,5.1089,5.0862,5.0635,5.0584,5.0718,5.0842,5.1129,5.1527,5.1927,5.1867,5.1085,5.0375,5.0444,5.01,4.9755,4.9418,4.904,4.898,4.87,4.8778,4.9004,4.9225,4.9392,4.953,4.9488,4.9482,4.9281,4.9293,4.9305,4.9412,4.9805,4.9876,4.9983,5.0411,5.0768,5.1066,5.0994,5.0673,5.0423,5.0448,5.0653,5.1023,5.1463,5.1599,5.1936,5.2488,5.2821,5.3107,5.3256,5.3432,5.3625,5.3794,5.3794,5.3794,5.3794,5.3794,5.3794,5.4017,5.4296,5.4092,5.4,5.4298,5.4595,5.4522,5.4368,5.4525,5.4605,5.473,5.5095,5.5587,5.5981,5.6323,5.6807,5.7444,5.7907,4.5898,4.5469,4.5553,4.5244,4.471,4.4593,4.4514,4.4514,4.4429,4.4234,4.4271,4.5733,4.575,4.569,4.6823,4.7548,4.7896,4.8214,4.8553,4.8583,4.8583,4.8583,4.8614,4.8758,4.886,4.885,4.9312,4.9672,5.0011,5.0359,5.038,5.0165,5.0359,5.0327,4.9998,5.0353,5.0838,5.0896,5.1094,5.1218,5.1218,5.1121,5.1121,5.1071,5.1175,5.1399,5.1781,5.2028,5.2151,5.2502,5.2548,5.2134,5.1617,5.1237,5.103,5.0341,4.9784,4.9538,4.9541,4.9479,4.9594,5.0087,5.0139,5.0208,5.0206,5.0048,4.9873,4.9779,4.9863,5.0138,5.0602,5.0673,5.0994,5.1422,5.1637,5.1708,5.1708,5.1708,5.153,5.1542,5.1342,5.1525,5.1754,5.191,5.2266,5.2604,5.2948,5.3204,5.3324,5.3437,5.3565,5.3686,5.3689,5.3806,5.3842,5.3873,5.3887,5.4132,5.4479,5.4462,5.4219,5.4475,5.4724,5.4335,5.4224,5.4463,5.4834,5.516,5.5586,5.614,5.6747,5.7278,5.7785,5.8291,5.8651,4.5828,4.6167,4.6673,4.6532,4.5942,4.5384,4.516,4.5075,4.4626,4.503,4.585,4.58,4.6296,4.6903,4.7293,4.7896,4.8327,4.8522,4.8583,4.8583,4.8583,4.8614,4.8799,4.9189,4.9435,4.9528,4.9774,5.0134,5.0534,5.0636,5.1036,5.119,5.1005,5.0748,5.0788,5.0993,5.1179,5.1163,5.1276,5.1315,5.1218,5.1283,5.1251,5.1326,5.162,5.206,5.2585,5.3061,5.3588,5.4036,5.4099,5.3651,5.2996,5.2375,5.1996,5.1582,5.0996,5.0592,5.0665,5.025,5.0022,5.0061,5.0279,5.0369,5.049,5.0678,5.0664,5.085,5.0976,5.1267,5.1458,5.1387,5.1494,5.1672,5.1708,5.1744,5.1744,5.1708,5.1851,5.1993,5.1899,5.1817,5.2049,5.2195,5.2413,5.2714,5.3058,5.3013,5.2935,5.3091,5.3232,5.3383,5.35,5.3708,5.388,5.3961,5.4016,5.4312,5.4671,5.5093,5.4965,5.4945,5.4855,5.4748,5.4642,5.4813,5.5191,5.5575,5.6131,5.6735,5.7484,5.8216,5.861,5.8947,5.9448,4.6619,4.6364,4.6954,4.6869,4.6307,4.597,4.5609,4.53,4.5015,4.5285,4.5808,4.6043,4.659,4.7469,4.7988,4.8307,4.8491,4.8583,4.8583,4.8583,4.8583,4.883,4.9097,4.9558,4.9918,5.0205,5.0543,5.1036,5.1682,5.1775,5.1898,5.2052,5.1867,5.1515,5.1313,5.1675,5.1575,5.1546,5.1546,5.1523,5.1315,5.151,5.1575,5.1522,5.2295,5.2888,5.2904,5.37,5.4207,5.4431,5.4494,5.4272,5.3961,5.3548,5.2996,5.2341,5.1892,5.1651,5.1651,5.1287,5.1119,5.083,5.0904,5.0816,5.0724,5.087,5.1092,5.1298,5.1389,5.1533,5.166,5.1744,5.1708,5.1708,5.1744,5.197,5.2113,5.1935,5.2172,5.2493,5.2185,5.2149,5.2411,5.2557,5.259,5.2824,5.318,5.3062,5.2846,5.3085,5.3463,5.3631,5.3899,5.4105,5.4311,5.4336,5.4336,5.4565,5.4999,5.5433,5.5681,5.5672,5.5629,5.5545,5.5491,5.5396,5.5659,5.6068,5.6701,5.7289,5.7875,5.8475,5.912,5.9641,6.0075,4.7331,4.6701,4.7178,4.7122,4.6673,4.6504,4.6111,4.5553,4.5356,4.5448,4.5782,4.627,4.6943,4.7755,4.8282,4.8583,4.8583,4.8583,4.8583,4.8645,4.883,4.9189,4.9579,4.9949,5.0288,5.0944,5.1528,5.2175,5.2452,5.2544,5.2706,5.2768,5.2799,5.2267,5.1633,5.2153,5.1937,5.1815,5.1844,5.1972,5.186,5.1944,5.1977,5.1618,5.3038,5.3561,5.3022,5.3921,5.453,5.4656,5.4651,5.4547,5.4651,5.4582,5.3942,5.2892,5.2548,5.2444,5.241,5.2134,5.1741,5.128,5.1367,5.1108,5.0774,5.0647,5.0851,5.1105,5.1524,5.1673,5.1925,5.2098,5.2231,5.2279,5.235,5.2363,5.2756,5.2886,5.2957,5.2957,5.2529,5.2671,5.3064,5.3171,5.3314,5.3612,5.3962,5.3964,5.3789,5.3927,5.4134,5.4243,5.4436,5.4689,5.4834,5.4893,5.4869,5.4916,5.5485,5.6078,5.6272,5.6423,5.6312,5.6201,5.6165,5.6143,5.634,5.665,5.7262,5.7802,5.8206,5.881,5.9605,6.0087,6.0452,4.7088,4.7884,4.794,4.794,4.7771,4.7266,4.6729,4.6111,4.5573,4.5727,4.6292,4.6535,4.7254,4.8229,4.85,4.8583,4.8645,4.8676,4.8768,4.8922,4.9343,4.9651,4.9887,5.0359,5.0944,5.1559,5.2236,5.2553,5.2829,5.2829,5.3137,5.3445,5.3076,5.2606,5.2435,5.2561,5.2307,5.2186,5.24,5.2672,5.2838,5.2508,5.23,5.2492,5.3311,5.3801,5.3284,5.4144,5.497,5.5313,5.4807,5.4858,5.5237,5.4839,5.4529,5.4065,5.3685,5.3253,5.3134,5.2789,5.2183,5.1687,5.141,5.0808,5.0657,5.0634,5.0809,5.0865,5.1657,5.2267,5.248,5.3148,5.3547,5.3586,5.3408,5.3551,5.3765,5.3492,5.3622,5.4014,5.3765,5.38,5.4014,5.405,5.4086,5.442,5.4661,5.4678,5.4636,5.4648,5.4904,5.5027,5.5017,5.5196,5.5353,5.5423,5.5433,5.5356,5.5906,5.6549,5.6645,5.6746,5.69,5.6781,5.6804,5.7084,5.7556,5.7846,5.8042,5.8378,5.892,5.9518,6.0243,6.0622,6.1031,4.6562,4.7628,4.7968,4.8108,4.8024,4.7459,4.6869,4.632,4.6059,4.6143,4.6535,4.7003,4.7691,4.8459,4.8583,4.885,4.9127,4.9189,4.9466,4.9682,5.0082,5.0451,5.0851,5.1159,5.1621,5.2144,5.2575,5.2944,5.3168,5.3691,5.4153,5.446,5.3783,5.3291,5.3121,5.3011,5.2862,5.2786,5.2911,5.31,5.3278,5.335,5.324,5.2903,5.4134,5.4171,5.4032,5.4731,5.5485,5.5687,5.5302,5.5237,5.534,5.4927,5.4494,5.4444,5.4203,5.4046,5.3977,5.3667,5.303,5.2548,5.2321,5.213,5.1489,5.1302,5.1506,5.1877,5.2432,5.2829,5.3068,5.3642,5.3842,5.4001,5.4251,5.4478,5.4514,5.4157,5.4121,5.4585,5.5013,5.4942,5.4871,5.4835,5.5013,5.5491,5.554,5.5388,5.521,5.4977,5.5361,5.5835,5.5777,5.5741,5.5875,5.5982,5.5964,5.6013,5.6325,5.6812,5.6874,5.6984,5.7267,5.7549,5.7693,5.8069,5.8646,5.8545,5.8275,5.8896,5.9624,6.0074,6.0584,6.1607,6.2255,4.6296,4.721,4.7687,4.794,4.8052,4.7459,4.6869,4.6349,4.6367,4.6417,4.6749,4.7413,4.8145,4.85,4.8645,4.8974,4.9672,4.9703,5.0134,5.0513,5.0913,5.1221,5.1436,5.1713,5.2021,5.2729,5.2667,5.3014,5.3691,5.4245,5.4737,5.5161,5.3783,5.3383,5.3351,5.325,5.3075,5.3334,5.3373,5.3572,5.3912,5.4179,5.3984,5.413,5.4613,5.5103,5.4645,5.5532,5.6164,5.644,5.6109,5.5961,5.5892,5.5598,5.4977,5.4805,5.4563,5.4632,5.4494,5.4287,5.408,5.3632,5.3115,5.2548,5.2203,5.2203,5.2263,5.2374,5.2994,5.338,5.378,5.4183,5.4679,5.4781,5.4799,5.5085,5.5263,5.5013,5.4942,5.5384,5.574,5.5812,5.574,5.5633,5.5919,5.649,5.6454,5.6097,5.5812,5.5441,5.574,5.624,5.6204,5.6133,5.624,5.6347,5.6432,5.663,5.6948,5.7113,5.7231,5.7585,5.7971,5.8221,5.8454,5.8809,5.9188,5.8796,5.8547,5.9433,6.0164,6.0314,6.087,6.2046,6.3198,4.6595,4.7207,4.7238,4.7575,4.8024,4.7434,4.6841,4.6296,4.6357,4.6502,4.6872,4.784,4.848,4.8614,4.8737,4.9127,4.9764,4.9703,5.0319,5.0882,5.1282,5.1652,5.1836,5.1929,5.2082,5.2606,5.2706,5.3076,5.3629,5.406,5.4153,5.3814,5.3414,5.2983,5.2897,5.3054,5.3312,5.3627,5.3772,5.4236,5.4588,5.4721,5.4405,5.4623,5.5391,5.5842,5.5086,5.6149,5.7052,5.7449,5.7016,5.672,5.6651,5.6426,5.5805,5.503,5.5099,5.5065,5.4823,5.4513,5.4134,5.3494,5.2961,5.2754,5.2651,5.2375,5.2302,5.2619,5.3435,5.3911,5.4448,5.5051,5.5466,5.5591,5.553,5.574,5.5955,5.599,5.599,5.6289,5.6361,5.624,5.624,5.6062,5.6133,5.6633,5.6561,5.6218,5.6254,5.6026,5.6204,5.6468,5.6504,5.6468,5.649,5.6668,5.7025,5.7239,5.7463,5.7584,5.765,5.8068,5.847,5.8854,5.9056,5.9387,5.9774,5.9917,6.011,6.0358,6.0711,6.1141,6.1733,6.2845,6.386,4.5493,4.6673,4.7038,4.7347,4.7491,4.6897,4.6504,4.6357,4.642,4.7029,4.7798,4.8355,4.8583,4.8706,4.9158,4.9651,5.0297,5.079,5.1282,5.1805,5.2236,5.2329,5.2329,5.2329,5.246,5.2645,5.2706,5.2768,5.3076,5.3506,5.3353,5.3106,5.3137,5.3353,5.3306,5.313,5.3365,5.3695,5.4147,5.4702,5.4838,5.5125,5.5001,5.5094,5.5272,5.5831,5.5899,5.6653,5.7392,5.7772,5.7603,5.7514,5.7357,5.7081,5.6391,5.5444,5.5651,5.5513,5.5237,5.4858,5.4356,5.4218,5.3804,5.3582,5.3513,5.3582,5.3616,5.3863,5.4117,5.4669,5.4805,5.5408,5.5887,5.6084,5.6302,5.647,5.6583,5.6663,5.674,5.6882,5.6597,5.6361,5.6361,5.6361,5.649,5.6704,5.6525,5.6432,5.6539,5.6932,5.7217,5.7289,5.7324,5.7525,5.7596,5.7689,5.776,5.7867,5.7989,5.8167,5.831,5.836,5.873,5.9202,5.9901,6.0495,6.101,6.1429,6.1539,6.1364,6.1693,6.2239,6.2959,6.3724,6.4511,4.4678,4.6042,4.6512,4.6907,4.7126,4.6729,4.6594,4.6637,4.6751,4.7456,4.8563,4.8583,4.8737,4.9035,4.9404,5.0205,5.0882,5.1436,5.2052,5.2421,5.2637,5.2729,5.2729,5.2698,5.2614,5.2729,5.2729,5.276,5.279,5.2729,5.279,5.2944,5.3106,5.326,5.3312,5.3423,5.3399,5.3618,5.4242,5.4802,5.4885,5.5131,5.5357,5.5324,5.5418,5.5728,5.621,5.6844,5.7423,5.7935,5.8101,5.8065,5.7874,5.7564,5.7047,5.6582,5.6271,5.6271,5.6099,5.5651,5.5219,5.5288,5.4892,5.4823,5.4839,5.4874,5.472,5.4805,5.5199,5.5475,5.5433,5.5999,5.6282,5.6505,5.7043,5.7278,5.7299,5.7349,5.7362,5.7404,5.7204,5.7239,5.7275,5.7311,5.6918,5.7168,5.7404,5.7275,5.7182,5.7717,5.8488,5.8524,5.8452,5.8667,5.8902,5.8617,5.8331,5.8438,5.8581,5.8938,5.908,5.9152,5.9651,6.0558,6.1272,6.1822,6.2164,6.2449,6.2307,6.2051,6.2485,6.302,6.3984,6.4693,6.5153,4.4368,4.5478,4.5557,4.6197,4.6917,4.7154,4.7121,4.7061,4.7353,4.7867,4.8562,4.8666,4.9035,4.9549,4.9805,5.0574,5.1374,5.1713,5.2113,5.2583,5.2729,5.2729,5.2729,5.2729,5.2729,5.2729,5.2729,5.2729,5.2729,5.2729,5.2729,5.2729,5.2829,5.286,5.2782,5.3166,5.3377,5.3531,5.4327,5.4623,5.4874,5.5184,5.5369,5.5389,5.5389,5.5681,5.6283,5.6729,5.7387,5.8237,5.8648,5.8669,5.8478,5.8857,5.8547,5.7943,5.7805,5.7771,5.7702,5.7081,5.6805,5.6598,5.6134,5.572,5.5685,5.5685,5.5754,5.5908,5.6284,5.6395,5.652,5.6725,5.6838,5.7163,5.7744,5.8136,5.8188,5.7989,5.7968,5.7939,5.8296,5.8581,5.8581,5.8367,5.7653,5.7653,5.8117,5.8153,5.7917,5.8203,5.8988,5.9309,5.9202,5.9523,5.958,5.9152,5.8938,5.9009,5.9295,5.9794,6.0201,6.0487,6.1129,6.1965,6.2464,6.2877,6.3163,6.3413,6.3413,6.3448,6.3234,6.3734,6.4733,6.5554,6.5943,4.3687,4.4447,4.5232,4.53,4.515,4.6073,4.6313,4.6272,4.7326,4.8218,4.8653,4.9066,4.9404,4.9887,5.0605,5.1251,5.1682,5.2276,5.2614,5.2645,5.2729,5.2729,5.2729,5.2729,5.2729,5.2729,5.2729,5.2729,5.2729,5.2729,5.2729,5.2729,5.2799,5.2729,5.2751,5.2922,5.3024,5.3443,5.4007,5.4454,5.479,5.5143,5.5389,5.5389,5.5389,5.5661,5.6238,5.6589,5.7419,5.8483,5.9003,5.9388,5.9684,6.0237,6.0013,5.9392,5.9081,5.8357,5.8219,5.7943,5.8254,5.7909,5.7168,5.6823,5.7582,5.7322,5.7219,5.7064,5.7271,5.718,5.6849,5.7524,5.7866,5.8246,5.8729,5.9065,5.9156,5.8709,5.851,5.8474,5.8688,5.8852,5.8888,5.9188,5.8688,5.8438,5.8866,5.8745,5.851,5.8545,5.9045,5.9544,5.9758,6.0165,6.0258,5.9972,5.9901,6.0058,6.0415,6.0879,6.1307,6.1608,6.2164,6.2806,6.3377,6.3948,6.4162,6.4412,6.4876,6.4947,6.4697,6.4519,6.5197,6.5982,6.6605,4.3159,4.3865,4.4453,4.4266,4.3877,4.5588,4.6345,4.6576,4.8008,4.87,4.8777,4.9343,4.9887,5.0297,5.1097,5.1929,5.2082,5.2429,5.2676,5.2729,5.2729,5.2729,5.2729,5.2729,5.2729,5.2729,5.2729,5.2729,5.2729,5.2729,5.2883,5.3045,5.3045,5.3106,5.3067,5.3012,5.2833,5.3277,5.3705,5.4242,5.4602,5.4998,5.5389,5.5389,5.545,5.5592,5.6046,5.6704,5.7444,5.8496,5.9264,5.9896,6.0648,6.0616,6.0737,6.0565,6.0254,5.953,5.9116,5.8668,5.9081,5.9685,5.8185,5.7754,5.8375,5.7909,5.7805,5.784,5.8168,5.7874,5.7631,5.8363,5.872,5.9096,5.9299,5.9631,6.0159,5.9739,5.9698,5.957,5.9465,5.948,5.9402,5.9616,5.9723,5.9616,5.958,5.9366,5.9259,5.9544,5.9687,6.0079,6.0594,6.1022,6.1165,6.095,6.095,6.1058,6.1379,6.17,6.2036,6.2286,6.2949,6.3591,6.4019,6.4483,6.5054,6.5447,6.5732,6.5982,6.6018,6.5911,6.5875,6.641,6.7176,4.2814,4.3703,4.3232,4.3049,4.3516,4.5868,4.7371,4.8193,4.9099,4.9197,4.8799,4.9537,5.0143,5.079,5.1467,5.2082,5.2513,5.2667,5.2698,5.2729,5.2729,5.2729,5.2729,5.2729,5.2729,5.2729,5.2729,5.279,5.276,5.3076,5.3383,5.3568,5.3568,5.3537,5.3383,5.3191,5.2942,5.3228,5.3718,5.4176,5.4518,5.5065,5.5343,5.5413,5.543,5.545,5.5912,5.6744,5.7324,5.8104,5.8901,5.9712,5.996,5.9478,6.0667,6.141,6.1323,6.0634,5.9978,5.9392,5.984,6.0392,5.9185,5.8392,5.8357,5.8702,5.8806,5.8944,5.9219,5.8771,5.8529,5.8943,5.9322,5.949,5.9639,6.0231,6.103,6.1148,6.1182,6.1107,6.098,6.0861,6.0615,6.0665,6.0487,6.0451,6.0344,6.0222,6.0293,6.1165,6.1236,6.1129,6.1593,6.195,6.1929,6.1521,6.1557,6.1557,6.1858,6.2179,6.2536,6.3071,6.377,6.4305,6.4555,6.5019,6.5732,6.6196,6.6498,6.6748,6.6946,6.666,6.6446,6.7088,6.7766,4.2003,4.2657,4.25,4.283,4.3758,4.5779,4.7353,4.8419,4.8554,4.887,4.9846,5.0233,5.0759,5.1436,5.2113,5.2483,5.2637,5.2729,5.2698,5.2729,5.2729,5.2729,5.2729,5.2729,5.2729,5.2706,5.2768,5.2983,5.3445,5.3753,5.4122,5.4368,5.406,5.3876,5.3753,5.3506,5.331,5.3401,5.3965,5.4362,5.4698,5.526,5.5456,5.5437,5.5389,5.5389,5.573,5.6115,5.6692,5.7617,5.7944,5.8686,6.0264,6.0096,6.0647,6.0633,6.0565,6.0323,6.0082,5.9444,5.9685,6.084,6.0116,6.0151,6.0116,6.0116,6.0047,6.0116,6.0358,6.0151,5.9978,6.0185,6.0514,6.067,6.0773,6.1099,6.175,6.1668,6.1732,6.1919,6.1832,6.1523,6.1334,6.12,6.1022,6.1093,6.1093,6.1058,6.1058,6.1771,6.2143,6.1965,6.1893,6.2036,6.2,6.1679,6.1893,6.2057,6.2449,6.2913,6.3555,6.4126,6.4646,6.5003,6.5268,6.5839,6.6517,6.6946,6.7338,6.7552,6.7731,6.7338,6.7195,6.7802,6.8337,4.1847,4.2185,4.2211,4.2861,4.408,4.5561,4.72,4.8607,4.8727,4.9341,5.0302,5.0866,5.1344,5.1713,5.2329,5.2698,5.2698,5.2729,5.2729,5.2729,5.2729,5.2729,5.2729,5.2729,5.2729,5.2737,5.2983,5.3322,5.3876,5.4614,5.5076,5.5068,5.4583,5.4491,5.4368,5.4022,5.3612,5.383,5.426,5.4694,5.5098,5.5442,5.5545,5.546,5.5401,5.5442,5.5483,5.5694,5.6537,5.7186,5.7337,5.8451,6.009,6.0587,6.0891,6.1047,6.1185,6.1013,6.0737,6.0323,6.0565,6.0978,6.122,6.1151,6.1082,6.0978,6.1013,6.1082,6.1496,6.1737,6.1668,6.1652,6.1898,6.2125,6.2127,6.2075,6.2039,6.1946,6.2145,6.2392,6.2241,6.1915,6.1732,6.1599,6.1628,6.1771,6.2021,6.2271,6.1807,6.1593,6.195,6.2,6.1858,6.1822,6.1858,6.2179,6.2393,6.277,6.3341,6.3877,6.4539,6.4931,6.5304,6.5661,6.6018,6.6553,6.7088,6.7731,6.8195,6.8373,6.8587,6.8587,6.8444,6.8535,6.898,4.2134,4.2237,4.239,4.3215,4.4369,4.5531,4.728,4.9224,4.9517,4.9981,5.0564,5.1282,5.1669,5.1901,5.2438,5.2676,5.2729,5.2729,5.2729,5.2729,5.2729,5.2729,5.2729,5.2729,5.2729,5.2922,5.326,5.366,5.4122,5.4829,5.5499,5.5622,5.5253,5.4976,5.473,5.4091,5.3698,5.3851,5.458,5.5238,5.5162,5.5419,5.5729,5.5516,5.551,5.5539,5.5746,5.6266,5.6988,5.6935,5.7241,5.8213,5.9328,6.0989,6.1416,6.1823,6.1944,6.222,6.1875,6.1496,6.1668,6.2013,6.2186,6.2393,6.2461,6.2048,6.2048,6.1841,6.2082,6.2324,6.2324,6.2289,6.2448,6.2433,6.2348,6.2541,6.2717,6.2597,6.2578,6.2746,6.2591,6.2316,6.2255,6.2159,6.2236,6.2475,6.2679,6.302,6.2842,6.2128,6.2164,6.2378,6.2556,6.2628,6.2714,6.2964,6.3071,6.3448,6.4055,6.4503,6.4983,6.5447,6.5911,6.6268,6.6624,6.7053,6.7588,6.8266,6.8785,6.9015,6.9301,6.9783,6.9783,6.9498,6.9534,4.1794,4.2364,4.3835,4.4447,4.4573,4.6366,4.7961,4.9314,4.9758,5.0407,5.1175,5.1399,5.1715,5.2189,5.2508,5.2729,5.2729,5.2729,5.2729,5.2729,5.2729,5.2729,5.2729,5.2729,5.2729,5.2922,5.3322,5.4029,5.4583,5.5222,5.5407,5.4952,5.4737,5.4607,5.4553,5.3906,5.396,5.4052,5.4893,5.5309,5.5064,5.5563,5.5992,5.59,5.5896,5.5801,5.5827,5.5661,5.5848,5.5811,5.5884,5.6645,5.7689,6.0355,6.1455,6.1595,6.2772,6.3324,6.3393,6.3032,6.3032,6.3722,6.4136,6.4274,6.4101,6.3427,6.2944,6.2668,6.253,6.2772,6.291,6.291,6.2875,6.2703,6.253,6.2966,6.3385,6.3234,6.3082,6.2997,6.2923,6.2838,6.2753,6.2801,6.2895,6.3024,6.3132,6.3357,6.35,6.3143,6.3199,6.3413,6.3805,6.3877,6.3841,6.3734,6.3805,6.4126,6.4662,6.5054,6.5482,6.6089,6.6696,6.6962,6.7283,6.7766,6.8266,6.882,6.9284,6.9551,6.9765,7.014,7.0283,7.0069,7.014,4.1716,4.2046,4.3963,4.4879,4.5264,4.677,4.8017,4.8835,4.9426,5.0163,5.1044,5.1493,5.2015,5.2419,5.2631,5.2729,5.2729,5.2729,5.2729,5.2729,5.2729,5.2729,5.2729,5.2729,5.2729,5.2891,5.3753,5.4491,5.5037,5.5376,5.5438,5.5014,5.4637,5.4453,5.446,5.4522,5.4483,5.4668,5.5376,5.5472,5.5247,5.594,5.6129,5.6038,5.5953,5.5979,5.5939,5.5701,5.5636,5.6234,5.6925,5.8224,5.9732,6.1881,6.304,6.3576,6.4274,6.4791,6.4772,6.4515,6.4308,6.5067,6.4964,6.4688,6.524,6.4653,6.4274,6.3963,6.3255,6.3324,6.3324,6.3324,6.3324,6.3186,6.3117,6.3344,6.3557,6.3599,6.3585,6.3588,6.3432,6.3215,6.323,6.3441,6.3538,6.3792,6.3867,6.4381,6.4396,6.4463,6.4448,6.4448,6.484,6.4983,6.4876,6.4697,6.4555,6.4912,6.534,6.6053,6.6696,6.714,6.7533,6.7711,6.8052,6.857,6.9106,6.9462,6.9819,7.0122,7.0264,7.0443,7.0514,7.0514,7.0443,4.1767,4.1623,4.3491,4.4776,4.5711,4.6836,4.7698,4.8379,4.903,4.9689,5.0469,5.1691,5.2352,5.2541,5.2706,5.2706,5.2729,5.2729,5.2729,5.2729,5.2729,5.286,5.286,5.279,5.2829,5.3168,5.3906,5.4645,5.5315,5.5315,5.5161,5.5407,5.5376,5.5284,5.5407,5.5407,5.5099,5.5191,5.5615,5.6016,5.6291,5.6621,5.6509,5.6254,5.6007,5.6177,5.6268,5.6154,5.6057,5.6865,5.8006,5.9318,6.0852,6.257,6.419,6.4992,6.5562,6.5983,6.601,6.5359,6.5688,6.593,6.5274,6.5274,6.593,6.593,6.555,6.5067,6.4377,6.391,6.391,6.3807,6.3807,6.3738,6.3703,6.3618,6.3747,6.3874,6.3913,6.3986,6.3816,6.3553,6.3705,6.3923,6.4178,6.44,6.4915,6.5468,6.5882,6.6002,6.6069,6.5875,6.5875,6.5911,6.5732,6.5697,6.5518,6.5732,6.6232,6.7124,6.7854,6.8052,6.8266,6.8409,6.8785,6.9355,6.9676,6.9979,7.03,7.0514,7.0514,7.0514,7.0514,7.0514,7.0514,4.1403,4.1499,4.3464,4.4452,4.4892,4.6528,4.7698,4.8349,4.903,4.9757,5.0562,5.1478,5.2117,5.2185,5.2541,5.2706,5.2706,5.2737,5.2729,5.2729,5.2799,5.3076,5.3137,5.2852,5.3076,5.3445,5.3845,5.4245,5.5068,5.4637,5.4206,5.4337,5.3691,5.3783,5.4214,5.4399,5.4884,5.5284,5.5776,5.6139,5.632,5.68,5.7512,5.7349,5.7035,5.712,5.7064,5.6672,5.6855,5.7446,5.8414,5.9701,6.113,6.2749,6.4336,6.5637,6.6273,6.6769,6.6613,6.5976,6.624,6.7413,6.6896,6.6413,6.6827,6.6999,6.6654,6.6378,6.5723,6.5048,6.4876,6.46,6.4496,6.4289,6.4186,6.3979,6.3915,6.3848,6.3781,6.3852,6.3872,6.3864,6.4008,6.4236,6.4445,6.4845,6.5573,6.6112,6.6372,6.6894,6.7484,6.7234,6.6913,6.6446,6.6089,6.6589,6.6589,6.6803,6.7088,6.7838,6.8444,6.8801,6.898,6.9158,6.9551,7.0086,7.0371,7.03,7.0407,7.0514,7.0514,7.0514,7.0514,7.055,7.0585]}]]